[[{"header":{"parameterUnit":"m.s-1","parameterCategory":1,"la1":31.0,"la2":29.5877,"lo1":-88.7671,"lo2":-86.6584,"dy":0.0162,"dx":0.0185,"nx":115,"ny":88,"refTime":"2023-10-03T12:00:00:Z","depth":0,"parameterNumber":2,"parameterNumberName":"U-component_of_WINDS"},"data":[0.0,0.0,0.0,0.0,0.0,0.0,0.0,0.0,0.0,0.0,0.0,0.0,0.0,0.0,0.0,0.0,0.0,0.0,0.0,0.0,0.0,0.0,0.0,0.0,0.0,0.0,0.0,0.0,0.0,0.0,0.0,0.0,0.0,0.0,0.0,0.0,0.0,0.0,0.0,0.0,0.0,0.0,0.0,0.0,0.0,0.0,0.0,0.0,0.0,0.0,0.0,0.0,0.0,0.0,0.0,0.0,0.0,0.0,0.0,0.0,0.0,0.0,0.0,0.0,0.0,0.0,0.0,0.0,0.0,0.0,0.0,0.0,0.0,0.0,0.0,0.0,0.0,0.0,0.0,0.0,0.0,0.0,0.0,0.0,0.0,0.0,0.0,0.0,0.0,0.0,0.0,0.0,0.0,0.0,0.0,0.0,0.0,0.0,0.0,0.0,0.0,0.0,0.0,0.0,0.0,0.0,0.0,0.0,0.0,0.0,0.0,0.0,0.0,0.0,0.0,0.0,0.0,0.0,0.0,0.0,0.0,0.0,0.0,0.0,0.0,0.0,0.0,0.0,0.0,0.0,0.0,0.0,0.0,0.0,0.0,0.0,0.0,0.0,0.0,0.0,0.0,0.0,0.0,0.0,0.0,0.0,0.0,0.0,0.0,0.0,0.0,0.0,0.0,0.0,0.0,0.0,0.0,0.0,0.0,0.0,0.0,0.0,0.0,0.0,0.0,0.0,0.0,0.0,0.0,0.0,0.0,0.0,0.0,0.0,0.0,0.0,0.0,0.0,0.0,0.0,0.0,0.0,0.0,0.0,0.0,0.0,0.0,0.0,0.0,0.0,0.0,0.0,0.0,0.0,0.0,0.0,0.0,0.0,0.0,0.0,0.0,0.0,0.0,0.0,0.0,0.0,0.0,0.0,0.0,0.0,0.0,0.0,0.0,0.0,0.0,0.0,0.0,0.0,0.0,0.0,0.0,0.0,0.0,0.0,0.0,0.0,0.0,0.0,0.0,0.0,0.0,0.0,0.0,0.0,0.0,0.0,0.0,0.0,0.0,0.0,0.0,0.0,0.0,0.0,0.0,0.0,0.0,0.0,0.0,0.0,0.0,0.0,0.0,0.0,0.0,0.0,0.0,0.0,0.0,0.0,0.0,0.0,0.0,0.0,0.0,0.0,0.0,0.0,0.0,0.0,0.0,0.0,0.0,0.0,0.0,0.0,0.0,0.0,0.0,0.0,0.0,0.0,0.0,0.0,0.0,0.0,0.0,0.0,0.0,0.0,0.0,0.0,0.0,0.0,0.0,0.0,0.0,0.0,0.0,0.0,0.0,0.0,0.0,0.0,0.0,0.0,0.0,0.0,0.0,0.0,0.0,0.0,0.0,0.0,0.0,0.0,0.0,0.0,0.0,0.0,0.0,0.0,0.0,0.0,0.0,0.0,0.0,0.0,0.0,0.0,0.0,0.0,0.0,0.0,0.0,0.0,0.0,0.0,0.0,0.0,0.0,0.0,0.0,0.0,0.0,0.0,0.0,0.0,0.0,0.0,0.0,0.0,0.0,0.0,0.0,0.0,0.0,0.0,0.0,0.0,0.0,0.0,0.0,0.0,0.0,0.0,0.0,0.0,0.0,0.0,0.0,0.0,0.0,0.0,0.0,0.0,0.0,0.0,0.0,0.0,0.0,0.0,0.0,0.0,0.0,0.0,0.0,0.0,0.0,0.0,0.0,0.0,0.0,0.0,0.0,0.0,0.0,0.0,0.0,0.0,0.0,0.0,0.0,0.0,0.0,0.0,0.0,0.0,0.0,0.0,0.0,0.0,0.0,0.0,0.0,0.0,0.0,0.0,0.0,0.0,0.0,0.0,0.0,0.0,0.0,0.0,0.0,0.0,0.0,0.0,0.0,0.0,0.0,0.0,0.0,0.0,0.0,0.0,0.0,0.0,0.0,0.0,0.0,0.0,0.0,0.0,0.0,0.0,0.0,0.0,0.0,0.0,0.0,0.0,0.0,0.0,0.0,0.0,0.0,0.0,0.0,0.0,0.0,0.0,0.0,0.0,0.0,0.0,0.0,0.0,0.0,0.0,0.0,0.0,0.0,0.0,0.0,0.0,0.0,0.0,0.0,0.0,0.0,0.0,0.0,0.0,0.0,0.0,0.0,0.0,0.0,0.0,0.0,0.0,0.0,0.0,0.0,0.0,0.0,0.0,0.0,0.0,0.0,0.0,0.0,0.0,0.0,0.0,0.0,0.0,0.0,0.0,0.0,0.0,0.0,0.0,0.0,0.0,0.0,0.0,0.0,0.0,0.0,0.0,0.0,0.0,0.0,0.0,0.0,0.0,0.0,0.0,0.0,0.0,0.0,0.0,0.0,0.0,0.0,0.0,0.0,0.0,0.0,0.0,0.0,0.0,0.0,0.0,0.0,0.0,0.0,0.0,0.0,0.0,0.0,0.0,0.0,0.0,0.0,0.0,0.0,0.0,0.0,0.0,0.0,0.0,0.0,0.0,0.0,0.0,0.0,0.0,0.0,0.0,0.0,0.0,0.0,0.0,0.0,0.0,0.0,0.0,0.0,0.0,0.0,0.0,0.0,0.0,0.0,0.0,0.0,0.0,0.0,0.0,0.0,0.0,0.0,0.0,0.0,0.0,0.0,0.0,0.0,0.0,0.0,0.0,0.0,0.0,0.0,0.0,0.0,0.0,0.0,0.0,0.0,0.0,0.0,0.0,0.0,0.0,0.0,0.0,0.0,0.0,0.0,0.0,0.0,0.0,0.0,0.0,0.0,0.0,0.0,0.0,0.0,0.0,0.0,0.0,0.0,0.0,0.0,0.0,0.0,0.0,0.0,0.0,0.0,0.0,0.0,0.0,0.0,0.0,0.0,0.0,0.0,0.0,0.0,0.0,0.0,0.0,0.0,0.0,0.0,0.0,0.0,0.0,0.0,0.0,0.0,0.0,0.0,0.0,0.0,0.0,0.0,0.0,0.0,0.0,0.0,0.0,0.0,0.0,0.0,0.0,0.0,0.0,0.0,0.0,0.0,0.0,0.0,0.0,0.0,0.0,0.0,0.0,0.0,0.0,0.0,0.0,0.0,0.0,0.0,0.0,0.0,0.0,0.0,0.0,0.0,0.0,0.0,0.0,0.0,0.0,0.0,0.0,0.0,0.0,0.0,0.0,0.0,0.0,0.0,0.0,0.0,0.0,0.0,0.0,0.0,0.0,0.0,0.0,0.0,0.0,0.0,0.0,0.0,0.0,0.0,0.0,0.0,0.0,0.0,0.0,0.0,0.0,0.0,0.0,0.0,0.0,0.0,0.0,0.0,0.0,0.0,0.0,0.0,0.0,0.0,0.0,0.0,0.0,0.0,0.0,0.0,0.0,0.0,0.0,0.0,0.0,0.0,0.0,0.0,0.0,0.0,0.0,0.0,0.0,0.0,0.0,0.0,0.0,0.0,0.0,0.0,0.0,0.0,0.0,0.0,0.0,0.0,0.0,0.0,0.0,0.0,0.0,0.0,0.0,0.0,0.0,0.0,0.0,0.0,0.0,0.0,0.0,0.0,0.0,0.0,0.0,0.0,0.0,0.0,0.0,0.0,0.0,0.0,0.0,0.0,0.0,0.0,0.0,0.0,0.0,0.0,0.0,0.0,0.0,0.0,0.0,0.0,0.0,0.0,0.0,0.0,0.0,0.0,0.0,0.0,0.0,0.0,0.0,0.0,0.0,0.0,0.0,0.0,0.0,0.0,0.0,0.0,0.0,0.0,0.0,0.0,0.0,0.0,0.0,0.0,0.0,0.0,0.0,0.0,0.0,0.0,0.0,0.0,0.0,0.0,0.0,0.0,0.0,0.0,0.0,0.0,0.0,0.0,0.0,0.0,0.0,0.0,0.0,0.0,0.0,0.0,0.0,0.0,0.0,0.0,0.0,0.0,0.0,0.0,0.0,0.0,0.0,0.0,0.0,0.0,0.0,0.0,0.0,0.0,0.0,0.0,0.0,0.0,0.0,0.0,0.0,0.0,0.0,0.0,0.0,0.0,0.0,0.0,0.0,0.0,0.0,0.0,0.0,0.0,0.0,0.0,0.0,0.0,0.0,0.0,0.0,0.0,0.0,0.0,0.0,0.0,0.0,0.0,0.0,0.0,0.0,0.0,0.0,0.0,0.0,0.0,0.0,0.0,0.0,0.0,0.0,0.0,0.0,0.0,0.0,0.0,0.0,0.0,0.0,0.0,0.0,0.0,0.0,0.0,0.0,0.0,0.0,1.505,0.0,0.0,0.0,0.0,0.0,0.0,0.0,0.0,0.0,0.0,0.0,0.0,0.0,0.0,0.0,0.0,0.0,0.0,0.0,0.0,0.0,0.0,0.0,0.0,0.0,0.0,0.0,0.0,0.0,0.0,0.0,0.0,0.0,0.0,0.0,0.0,0.0,0.0,0.0,0.0,0.0,0.0,0.0,0.0,0.0,0.0,0.0,0.0,0.0,0.0,0.0,0.0,0.0,0.0,0.0,0.0,0.0,0.0,0.0,0.0,0.0,0.0,0.0,0.0,0.0,0.0,0.0,0.0,0.0,0.0,0.0,0.0,0.0,0.0,0.0,0.0,0.0,0.0,0.0,0.0,0.0,0.0,0.0,0.0,0.0,0.0,0.0,0.0,0.0,0.0,0.0,0.0,0.0,0.0,0.0,0.0,0.0,0.0,0.0,0.0,0.0,0.0,0.0,0.0,0.0,0.0,0.0,0.0,0.0,0.0,1.5036,1.4973,1.5092,1.5101,1.5038,0.0,0.0,0.0,0.0,0.0,0.0,0.0,0.0,0.0,0.0,0.0,0.0,0.0,0.0,0.0,0.0,0.0,0.0,0.0,0.0,0.0,0.0,0.0,0.0,0.0,0.0,0.0,0.0,0.0,0.0,0.0,0.0,0.0,0.0,0.0,0.0,0.0,0.0,0.0,0.0,0.0,0.0,0.0,0.0,0.0,0.0,0.0,0.0,0.0,0.0,0.0,0.0,0.0,0.0,0.0,0.0,0.0,0.0,0.0,0.0,0.0,0.0,0.0,0.0,0.0,0.0,0.0,0.0,0.0,0.0,0.0,0.0,0.0,0.0,0.0,0.0,0.0,0.0,0.0,0.0,0.0,0.0,0.0,0.0,0.0,0.0,0.0,0.0,0.0,0.0,0.0,0.0,0.0,0.0,0.0,0.0,0.0,0.0,0.0,0.0,0.0,0.0,0.0,0.0,0.0,0.0,0.0,0.0,0.0,0.0,0.0,0.0,1.5322,1.5365,1.5335,0.0,0.0,0.0,0.0,0.0,0.0,0.0,0.0,0.0,0.0,0.0,0.0,0.0,0.0,0.0,0.0,0.0,0.0,0.0,0.0,0.0,0.0,0.0,0.0,0.0,0.0,0.0,0.0,0.0,0.0,0.0,0.0,0.0,0.0,0.0,0.0,0.0,0.0,0.0,0.0,0.0,0.0,0.0,0.0,0.0,0.0,0.0,0.0,0.0,0.0,0.0,0.0,0.0,0.0,0.0,0.0,0.0,0.0,0.0,0.0,0.0,0.0,0.0,0.0,0.0,0.0,0.0,0.0,0.0,0.0,0.0,0.0,0.0,0.0,0.0,0.0,0.0,0.0,0.0,0.0,0.0,0.0,0.0,0.0,0.0,0.0,0.0,0.0,0.0,0.0,0.0,0.0,0.0,0.0,0.0,0.0,0.0,0.0,0.0,0.0,0.0,0.0,0.0,0.0,0.0,0.0,0.0,0.0,0.0,0.0,1.5452,1.6143,1.6232,0.0,1.626,0.0,0.0,0.0,0.0,0.0,0.0,0.0,0.0,0.0,0.0,0.0,0.0,0.0,0.0,0.0,0.0,0.0,0.0,0.0,0.0,0.0,0.0,0.0,0.0,0.0,0.0,0.0,0.0,0.0,0.0,0.0,0.0,0.0,0.0,0.0,0.0,0.0,0.0,0.0,0.0,0.0,0.0,0.0,0.0,0.0,0.0,0.0,0.0,0.0,0.0,0.0,0.0,0.0,0.0,0.0,0.0,0.0,0.0,0.0,0.0,0.0,0.0,0.0,0.0,0.0,0.0,0.0,0.0,0.0,0.0,0.0,0.0,0.0,0.0,0.0,0.0,0.0,0.0,0.0,0.0,0.0,0.0,0.0,0.0,0.0,0.0,0.0,0.0,0.0,0.0,0.0,0.0,0.0,0.0,0.0,0.0,0.0,0.0,0.0,0.0,0.0,0.0,0.0,0.0,0.0,0.0,0.0,0.0,0.0,0.0,1.4943,1.6265,1.6303,1.6063,0.0,0.0,0.0,0.0,0.0,0.0,0.0,0.0,0.0,0.0,0.0,0.0,0.0,0.0,0.0,0.0,0.0,0.0,0.0,0.0,0.0,0.0,0.0,0.0,0.0,0.0,0.0,0.0,0.0,0.0,0.0,0.0,0.0,0.0,0.0,0.0,0.0,0.0,0.0,0.0,0.0,0.0,0.0,0.0,0.0,0.0,0.0,0.0,0.0,0.0,0.0,0.0,0.0,0.0,0.0,0.0,0.0,0.0,0.0,0.0,0.0,0.0,0.0,0.0,0.0,0.0,0.0,0.0,0.0,0.0,0.0,0.0,0.0,0.0,0.0,0.0,0.0,0.0,0.0,0.0,0.0,0.0,0.0,0.0,0.0,0.0,0.0,0.0,0.0,0.0,0.0,0.0,0.0,0.0,0.0,0.0,0.0,0.0,0.0,0.0,0.0,0.0,0.0,0.0,0.0,0.0,0.0,0.0,0.0,0.0,1.4412,1.4644,1.6195,1.6053,1.5744,1.5411,0.0,0.0,0.0,0.0,0.0,0.0,0.0,0.0,0.0,0.0,0.0,0.0,0.0,0.0,0.0,0.0,0.0,0.0,0.0,0.0,0.0,0.0,0.0,0.0,0.0,0.0,0.0,0.0,0.0,0.0,0.0,0.0,0.0,0.0,0.0,0.0,0.0,0.0,0.0,0.0,0.0,0.0,0.0,0.0,0.0,0.0,0.0,0.0,0.0,0.0,0.0,0.0,0.0,0.0,0.0,0.0,0.0,0.0,0.0,0.0,0.0,0.0,0.0,0.0,0.0,0.0,0.0,0.0,0.0,0.0,0.0,0.0,0.0,0.0,0.0,0.0,0.0,0.0,0.0,0.0,0.0,0.0,0.0,0.0,0.0,0.0,0.0,0.0,0.0,0.0,0.0,0.0,0.0,0.0,0.0,0.0,0.0,0.0,0.0,0.0,0.0,0.0,0.0,0.0,0.0,0.0,0.0,0.0,1.6192,1.4797,1.4746,1.6256,1.556,1.5464,0.0,0.0,0.0,0.0,0.0,0.0,0.0,0.0,0.0,0.0,0.0,0.0,0.0,0.0,0.0,0.0,0.0,0.0,0.0,0.0,0.0,0.0,0.0,0.0,0.0,0.0,0.0,0.0,0.0,0.0,0.0,0.0,0.0,0.0,0.0,0.0,0.0,0.0,0.0,0.0,0.0,0.0,0.0,0.0,0.0,0.0,0.0,0.0,0.0,0.0,0.0,0.0,0.0,0.0,0.0,0.0,0.0,0.0,0.0,0.0,0.0,0.0,0.0,0.0,0.0,0.0,0.0,0.0,0.0,0.0,0.0,0.0,0.0,0.0,0.0,0.0,0.0,0.0,0.0,0.0,0.0,0.0,0.0,0.0,0.0,0.0,0.0,0.0,0.0,0.0,0.0,0.0,0.0,0.0,0.0,0.0,0.0,0.0,0.0,0.0,0.0,0.0,0.0,0.0,0.0,0.0,0.0,0.0,0.0,1.48,1.43,1.3998,1.4059,1.472,1.5236,0.0,0.0,0.0,0.0,0.0,0.0,0.0,0.0,0.0,0.0,0.0,0.0,0.0,0.0,0.0,0.0,0.0,0.0,0.0,0.0,0.0,0.0,0.0,0.0,0.0,0.0,0.0,0.0,0.0,0.0,0.0,0.0,0.0,0.0,0.0,0.0,0.0,0.0,0.0,0.0,0.0,0.0,0.0,0.0,0.0,0.0,0.0,0.0,0.0,0.0,0.0,0.0,0.0,0.0,0.0,0.0,0.0,0.0,0.0,0.0,0.0,0.0,0.0,0.0,0.0,0.0,0.0,0.0,0.0,0.0,0.0,0.0,0.0,0.0,0.0,0.0,0.0,0.0,0.0,0.0,0.0,0.0,0.0,0.0,0.0,0.0,0.0,0.0,0.0,0.0,0.0,0.0,0.0,0.0,0.0,0.0,0.0,0.0,0.0,0.0,0.0,0.0,0.0,0.0,0.0,0.0,0.0,0.0,0.0,1.3592,0.0,1.4084,1.3535,1.4484,1.5007,0.0,0.0,0.0,0.0,0.0,0.0,0.0,0.0,0.0,0.0,0.0,0.0,0.0,0.0,0.0,0.0,0.0,0.0,0.0,0.0,0.0,0.0,0.0,0.0,0.0,0.0,0.0,0.0,0.0,0.0,0.0,0.0,0.0,0.0,0.0,0.0,0.0,0.0,0.0,0.0,0.0,0.0,0.0,0.0,0.0,0.0,0.0,0.0,0.0,0.0,0.0,0.0,0.0,0.0,0.0,0.0,0.0,0.0,0.0,0.0,0.0,0.0,0.0,0.0,0.0,0.0,0.0,0.0,0.0,0.0,0.0,0.0,0.0,0.0,0.0,0.0,0.0,0.0,0.0,0.0,0.0,0.0,0.0,0.0,0.0,0.0,0.0,0.0,0.0,0.0,0.0,0.0,0.0,0.0,0.0,0.0,0.0,0.0,0.0,0.0,0.0,0.0,0.0,0.0,0.0,0.0,0.0,0.0,1.2649,1.2705,1.4242,1.5013,1.5079,1.4931,1.4865,0.0,0.0,0.0,0.0,0.0,0.0,0.0,0.0,0.0,0.0,0.0,0.0,0.0,0.0,0.0,0.0,0.0,0.0,0.0,0.0,0.0,0.0,0.0,0.0,0.0,0.0,0.0,0.0,0.0,0.0,0.0,0.0,0.0,0.0,0.0,0.0,0.0,0.0,0.0,0.0,0.0,0.0,0.0,0.0,0.0,0.0,0.0,0.0,0.0,0.0,0.0,0.0,0.0,0.0,0.0,0.0,0.0,0.0,0.0,0.0,0.0,0.0,0.0,0.0,0.0,0.0,0.0,0.0,0.0,0.0,0.0,0.0,0.0,0.0,0.0,0.0,0.0,0.0,0.0,0.0,0.0,0.0,0.0,0.0,0.0,0.0,0.0,0.0,0.0,0.0,0.0,0.0,0.0,0.0,0.0,0.0,0.0,0.0,0.0,0.0,0.0,0.0,0.0,0.0,0.0,0.0,0.0,0.0,0.0,1.0934,1.2547,1.4014,1.5087,1.45,1.4952,0.0,0.0,0.0,0.0,0.0,0.0,0.0,0.0,0.0,0.0,0.0,0.0,0.0,0.0,0.0,0.0,0.0,0.0,0.0,0.0,0.0,0.0,0.0,0.0,0.0,0.0,0.0,0.0,0.0,0.0,0.0,0.0,0.0,0.0,0.0,0.0,0.0,0.0,0.0,0.0,0.0,0.0,0.0,0.0,0.0,0.0,0.0,0.0,0.0,0.0,0.0,0.0,0.0,0.0,0.0,0.0,0.0,0.0,0.0,0.0,0.0,0.0,0.0,0.0,0.0,0.0,0.0,0.0,0.0,0.0,0.0,0.0,0.0,0.0,0.0,0.0,0.0,0.0,0.0,0.0,0.0,0.0,0.0,0.0,0.0,0.0,0.0,0.0,0.0,0.0,0.0,0.0,0.0,0.0,0.0,0.0,0.0,0.0,0.0,0.0,0.0,0.0,0.0,0.0,0.0,0.0,0.0,0.0,0.0,1.2353,1.3389,1.4499,1.5539,1.4988,1.5276,1.6462,0.0,0.0,0.0,0.0,0.0,0.0,0.0,0.0,0.0,0.0,0.0,0.0,0.0,0.0,0.0,0.0,0.0,0.0,0.0,0.0,0.0,0.0,0.0,0.0,0.0,0.0,0.0,0.0,0.0,0.0,0.0,0.0,0.0,0.0,0.0,0.0,0.0,0.0,0.0,0.0,0.0,0.0,0.0,0.0,0.0,0.0,0.0,0.0,0.0,0.0,0.0,0.0,0.0,0.0,0.0,0.0,0.0,0.0,0.0,0.0,0.0,0.0,0.0,0.0,0.0,0.0,0.0,0.0,0.0,0.0,0.0,0.0,0.0,0.0,0.0,0.0,0.0,0.0,0.0,0.0,0.0,0.0,0.0,0.0,0.0,0.0,0.0,0.0,0.0,0.0,0.0,0.0,0.0,0.0,0.0,0.0,0.0,0.0,0.0,0.0,0.0,0.0,0.0,0.0,0.0,0.0,0.0,0.0,1.6212,1.642,1.6538,1.6515,1.635,1.5913,0.0,0.0,0.0,0.0,0.0,0.0,0.0,0.0,0.0,0.0,0.0,0.0,0.0,0.0,0.0,0.0,0.0,0.0,0.0,0.0,0.0,0.0,0.0,0.0,0.0,0.0,0.0,0.0,0.0,0.0,0.0,0.0,0.0,0.0,0.0,0.0,0.0,0.0,0.0,0.0,0.0,0.0,0.0,0.0,0.0,0.0,0.0,0.0,0.0,0.0,0.0,0.0,0.0,0.0,0.0,0.0,0.0,0.0,0.0,0.0,0.0,0.0,0.0,0.0,0.0,0.0,0.0,0.0,0.0,0.0,0.0,0.0,0.0,0.0,0.0,0.0,0.0,0.0,0.0,0.0,0.0,0.0,0.0,0.0,0.0,0.0,0.0,0.0,0.0,0.0,0.0,0.0,0.0,0.0,0.0,0.0,0.0,0.0,0.0,0.0,0.0,0.0,0.0,0.0,0.0,0.0,0.0,0.0,0.0,1.8776,1.9898,2.0272,1.9792,1.8044,1.7562,0.0,0.0,0.0,0.0,0.0,0.0,0.0,0.0,0.0,0.0,0.0,0.0,0.0,0.0,0.0,0.0,0.0,0.0,0.0,0.0,0.0,0.0,0.0,0.0,0.0,0.0,0.0,0.0,0.0,0.0,0.0,0.0,0.0,0.0,0.0,0.0,0.0,0.0,0.0,0.0,0.0,0.0,0.0,0.0,0.0,0.0,0.0,0.0,0.0,0.0,0.0,0.0,0.0,0.0,0.0,0.0,0.0,0.0,0.0,0.0,0.0,0.0,0.0,0.0,0.0,0.0,0.0,0.0,0.0,0.0,0.0,0.0,0.0,0.0,0.0,0.0,0.0,0.0,0.0,0.0,0.0,0.0,0.0,0.0,0.0,0.0,0.0,0.0,0.0,0.0,0.0,0.0,0.0,0.0,0.0,0.0,0.0,0.0,0.0,0.0,0.0,0.0,0.0,0.0,0.0,0.0,0.0,0.0,1.8525,2.0202,2.2088,2.3039,2.3033,2.101,1.9512,0.0,0.0,0.0,0.0,0.0,0.0,0.0,0.0,0.0,0.0,0.0,0.0,0.0,0.0,0.0,0.0,0.0,0.0,0.0,0.0,0.0,0.0,0.0,0.0,0.0,0.0,0.0,0.0,0.0,0.0,0.0,0.0,0.0,0.0,0.0,0.0,0.0,0.0,0.0,0.0,0.0,0.0,0.0,0.0,0.0,0.0,0.0,0.0,0.0,0.0,0.0,0.0,0.0,0.0,0.0,0.0,0.0,0.0,0.0,0.0,0.0,0.0,0.0,0.0,0.0,0.0,0.0,0.0,0.0,0.0,0.0,0.0,0.0,0.0,0.0,0.0,0.0,0.0,0.0,0.0,0.0,0.0,0.0,0.0,0.0,0.0,0.0,0.0,0.0,0.0,0.0,0.0,0.0,0.0,0.0,0.0,0.0,0.0,0.0,0.0,0.0,0.0,0.0,0.0,0.0,0.0,0.0,0.0,1.9376,2.0904,2.3357,2.4926,2.5485,2.4066,2.1451,0.0,0.0,0.0,0.0,0.0,0.0,0.0,0.0,0.0,0.0,0.0,0.0,0.0,0.0,0.0,0.0,0.0,0.0,0.0,0.0,0.0,0.0,0.0,0.0,0.0,0.0,0.0,0.0,0.0,0.0,0.0,0.0,0.0,0.0,0.0,0.0,0.0,0.0,0.0,0.0,0.0,0.0,0.0,0.0,0.0,0.0,0.0,0.0,0.0,0.0,0.0,0.0,0.0,0.0,0.0,0.0,0.0,0.0,0.0,0.0,0.0,0.0,0.0,0.0,0.0,0.0,0.0,0.0,0.0,0.0,0.0,0.0,0.0,0.0,0.0,0.0,0.0,0.0,0.0,0.0,0.0,0.0,0.0,0.0,0.0,0.0,0.0,0.0,0.0,0.0,0.0,0.0,0.0,0.0,0.0,0.0,0.0,0.0,0.0,0.0,0.0,0.0,0.0,0.0,0.0,0.0,0.0,0.0,2.0142,2.1733,2.4161,2.5229,2.4778,2.3165,2.1848,0.0,0.0,0.0,0.0,0.0,0.0,0.0,0.0,0.0,0.0,0.0,0.0,0.0,0.0,0.0,0.0,0.0,0.0,0.0,0.0,0.0,0.0,0.0,0.0,0.0,0.0,0.0,0.0,0.0,0.0,0.0,0.0,0.0,0.0,0.0,0.0,0.0,0.0,0.0,0.0,0.0,0.0,0.0,0.0,0.0,0.0,0.0,0.0,1.8319,0.0,0.0,0.0,0.0,0.0,0.0,0.0,0.0,0.0,0.0,0.0,0.0,0.0,0.0,0.0,0.0,0.0,0.0,0.0,0.0,0.0,0.0,0.0,0.0,0.0,0.0,0.0,0.0,0.0,0.0,0.0,0.0,0.0,0.0,0.0,0.0,0.0,0.0,0.0,0.0,0.0,0.0,0.0,0.0,0.0,0.0,0.0,0.0,0.0,0.0,0.0,0.0,0.0,0.0,0.0,0.0,0.0,0.0,0.0,2.0196,2.1458,2.4226,2.5503,2.5039,2.3425,2.2193,0.0,0.0,0.0,0.0,0.0,0.0,0.0,0.0,0.0,0.0,0.0,0.0,0.0,0.0,0.0,0.0,0.0,0.0,0.0,0.0,0.0,0.0,0.0,0.0,0.0,0.0,0.0,0.0,0.0,0.0,0.0,0.0,0.0,0.0,0.0,0.0,0.0,0.0,0.0,0.0,0.0,0.0,0.0,0.0,0.0,0.0,0.0,0.0,0.0,0.0,0.0,0.0,0.0,0.0,0.0,0.0,0.0,0.0,0.0,0.0,0.0,0.0,0.0,0.0,0.0,0.0,0.0,0.0,0.0,0.0,0.0,0.0,0.0,0.0,0.0,0.0,0.0,0.0,0.0,0.0,0.0,0.0,0.0,0.0,0.0,0.0,0.0,0.0,0.0,0.0,0.0,0.0,0.0,0.0,0.0,0.0,0.0,0.0,0.0,0.0,0.0,0.0,0.0,0.0,0.0,0.0,0.0,1.8293,1.9928,2.1038,2.3832,2.5308,2.529,2.3821,2.2282,2.0787,0.0,0.0,0.0,0.0,0.0,0.0,0.0,0.0,0.0,0.0,0.0,0.0,0.0,0.0,0.0,0.0,0.0,0.0,0.0,0.0,0.0,0.0,0.0,0.0,0.0,0.0,0.0,0.0,0.0,0.0,0.0,0.0,0.0,0.0,0.0,0.0,0.0,0.0,1.5061,1.6951,0.0,0.0,0.0,0.0,0.0,0.0,0.0,0.0,1.8008,0.0,0.0,0.0,0.0,0.0,0.0,0.0,0.0,0.0,0.0,0.0,0.0,0.0,0.0,0.0,0.0,0.0,0.0,0.0,0.0,0.0,0.0,0.0,0.0,0.0,0.0,0.0,0.0,0.0,0.0,0.0,0.0,0.0,0.0,0.0,0.0,0.0,0.0,0.0,0.0,0.0,0.0,0.0,0.0,0.0,0.0,0.0,0.0,0.0,0.0,0.0,0.0,0.0,0.0,0.0,0.0,1.6891,1.8025,1.9625,2.1759,2.2984,2.3615,2.3597,2.2681,2.1722,2.0754,0.0,0.0,0.0,0.0,0.0,0.0,0.0,0.0,0.0,0.0,0.0,0.0,0.0,0.0,0.0,0.0,0.0,0.0,0.0,0.0,0.0,0.0,0.0,0.0,0.0,0.0,0.0,0.0,0.0,0.0,0.0,0.0,0.0,0.0,0.0,0.0,0.0,0.0,0.0,1.7292,1.8639,0.0,0.0,0.0,0.0,0.0,0.0,0.0,0.0,1.7884,0.0,0.0,0.0,0.0,0.0,0.0,0.0,0.0,0.0,0.0,0.0,0.0,0.0,0.0,0.0,0.0,0.0,0.0,0.0,0.0,0.0,0.0,0.0,0.0,0.0,0.0,0.0,0.0,0.0,0.0,0.0,0.0,0.0,0.0,0.0,0.0,0.0,0.0,0.0,0.0,0.0,0.0,0.0,0.0,0.0,0.0,0.0,0.0,0.0,0.0,0.0,0.0,0.0,0.0,0.0,1.7671,1.8139,1.9344,2.1313,2.217,2.2574,2.2555,2.1721,2.1067,0.0,0.0,0.0,0.0,0.0,0.0,0.0,0.0,0.0,0.0,0.0,0.0,0.0,0.0,0.0,0.0,0.0,0.0,0.0,0.0,0.0,0.0,0.0,0.0,0.0,0.0,0.0,0.0,0.0,0.0,0.0,0.0,0.0,0.0,0.0,0.0,0.0,0.0,0.0,0.0,1.7648,1.8614,1.9354,0.0,0.0,0.0,0.0,0.0,0.0,1.9382,1.9198,0.0,0.0,0.0,0.0,0.0,0.0,0.0,0.0,0.0,0.0,0.0,0.0,0.0,0.0,0.0,0.0,0.0,0.0,0.0,0.0,0.0,0.0,0.0,0.0,0.0,0.0,0.0,0.0,0.0,0.0,0.0,0.0,0.0,0.0,0.0,0.0,0.0,0.0,0.0,0.0,0.0,0.0,0.0,0.0,0.0,0.0,0.0,0.0,0.0,0.0,0.0,0.0,0.0,0.0,0.0,1.8218,1.8147,1.8942,2.0715,2.1404,2.173,2.173,2.0996,2.0528,0.0,0.0,0.0,0.0,0.0,0.0,0.0,0.0,0.0,0.0,0.0,0.0,0.0,0.0,0.0,0.0,0.0,0.0,0.0,0.0,0.0,0.0,0.0,0.0,0.0,0.0,0.0,0.0,0.0,0.0,0.0,0.0,0.0,0.0,0.0,0.0,0.0,0.0,0.0,0.0,0.0,1.9029,1.9823,2.0258,0.0,0.0,0.0,0.0,2.0714,2.0758,0.0,0.0,0.0,0.0,0.0,0.0,0.0,0.0,0.0,0.0,0.0,0.0,0.0,0.0,0.0,0.0,0.0,0.0,0.0,0.0,0.0,0.0,0.0,0.0,0.0,0.0,0.0,0.0,0.0,0.0,0.0,0.0,0.0,0.0,0.0,0.0,0.0,0.0,0.0,0.0,0.0,0.0,0.0,0.0,0.0,0.0,0.0,0.0,0.0,0.0,0.0,0.0,0.0,0.0,0.0,0.0,1.8239,1.7591,1.8362,2.0577,2.0791,2.085,2.0847,2.0685,2.0248,0.0,0.0,0.0,0.0,0.0,0.0,0.0,0.0,0.0,0.0,0.0,0.0,0.0,0.0,0.0,0.0,0.0,0.0,0.0,0.0,0.0,0.0,0.0,0.0,0.0,0.0,0.0,0.0,0.0,0.0,0.0,0.0,0.0,0.0,0.0,0.0,0.0,0.0,0.0,0.0,0.0,2.0593,2.1259,2.0863,2.0719,0.0,0.0,2.1476,2.1468,2.1824,0.0,0.0,0.0,0.0,0.0,0.0,0.0,0.0,0.0,0.0,0.0,0.0,0.0,0.0,0.0,0.0,0.0,0.0,0.0,0.0,0.0,0.0,0.0,0.0,0.0,0.0,0.0,0.0,0.0,0.0,0.0,0.0,0.0,0.0,0.0,0.0,0.0,0.0,0.0,0.0,0.0,0.0,0.0,0.0,0.0,0.0,0.0,0.0,0.0,0.0,0.0,0.0,0.0,0.0,0.0,1.8161,1.8918,1.8157,1.8451,1.9952,1.9981,1.9962,1.9962,1.9887,1.9641,0.0,0.0,0.0,0.0,0.0,0.0,0.0,0.0,0.0,0.0,0.0,0.0,0.0,0.0,0.0,0.0,0.0,0.0,0.0,0.0,0.0,0.0,0.0,0.0,0.0,0.0,0.0,0.0,0.0,0.0,0.0,0.0,0.0,0.0,0.0,0.0,0.0,0.0,0.0,0.0,0.0,0.0,2.0992,2.1476,0.0,0.0,0.0,2.3588,2.3578,0.0,0.0,0.0,0.0,0.0,0.0,0.0,0.0,0.0,0.0,0.0,0.0,0.0,0.0,0.0,0.0,0.0,0.0,0.0,0.0,0.0,0.0,0.0,0.0,0.0,0.0,0.0,0.0,0.0,0.0,0.0,0.0,0.0,0.0,0.0,0.0,0.0,0.0,0.0,0.0,0.0,0.0,0.0,0.0,0.0,0.0,0.0,0.0,0.0,0.0,0.0,0.0,0.0,0.0,0.0,0.0,0.0,1.9452,1.8598,1.8551,1.9416,1.9409,1.9383,1.9386,1.9323,0.0,0.0,0.0,0.0,0.0,0.0,0.0,0.0,0.0,0.0,0.0,0.0,0.0,0.0,0.0,0.0,0.0,0.0,0.0,0.0,0.0,0.0,0.0,0.0,0.0,0.0,0.0,1.5613,0.0,0.0,0.0,0.0,0.0,0.0,0.0,0.0,0.0,0.0,0.0,0.0,0.0,0.0,2.1237,2.1392,2.2509,2.3417,0.0,0.0,2.5289,2.51,2.5188,2.4884,0.0,0.0,0.0,0.0,0.0,0.0,0.0,0.0,0.0,0.0,0.0,0.0,0.0,0.0,0.0,0.0,0.0,0.0,0.0,0.0,0.0,0.0,0.0,0.0,0.0,0.0,0.0,0.0,0.0,0.0,0.0,0.0,0.0,0.0,0.0,0.0,0.0,0.0,0.0,0.0,0.0,0.0,0.0,0.0,0.0,0.0,0.0,0.0,0.0,0.0,0.0,0.0,0.0,0.0,1.8519,1.9427,1.8451,1.8373,1.9264,1.9301,1.9323,1.9323,1.9297,1.9212,0.0,0.0,0.0,0.0,0.0,0.0,0.0,0.0,0.0,0.0,0.0,0.0,0.0,0.0,0.0,0.0,0.0,0.0,0.0,0.0,0.0,0.0,0.0,0.0,0.0,0.0,0.0,0.0,0.0,0.0,0.0,0.0,0.0,0.0,0.0,0.0,0.0,0.0,0.0,0.0,0.0,2.2966,2.3519,2.4323,2.5074,0.0,2.5964,2.5796,2.5111,2.5582,2.5278,2.3122,0.0,0.0,0.0,0.0,0.0,0.0,0.0,0.0,0.0,0.0,0.0,0.0,0.0,0.0,0.0,0.0,0.0,0.0,0.0,0.0,0.0,0.0,0.0,0.0,0.0,0.0,0.0,0.0,0.0,0.0,0.0,0.0,0.0,0.0,0.0,0.0,0.0,0.0,0.0,0.0,0.0,0.0,0.0,0.0,0.0,0.0,0.0,0.0,0.0,0.0,0.0,0.0,0.0,1.8862,1.9242,1.8802,1.8725,1.899,1.9443,1.9457,1.9004,1.9443,1.9345,0.0,0.0,0.0,0.0,0.0,0.0,0.0,0.0,0.0,0.0,0.0,0.0,0.0,0.0,0.0,0.0,0.0,0.0,0.0,0.0,0.0,0.0,0.0,0.0,0.0,0.0,0.0,0.0,1.551,1.6115,1.7315,0.0,0.0,0.0,0.0,0.0,0.0,0.0,0.0,0.0,0.0,2.3256,2.4448,2.482,0.0,0.0,2.65,2.6738,2.6469,2.6238,2.5652,2.433,2.356,0.0,0.0,0.0,0.0,0.0,0.0,0.0,0.0,0.0,0.0,0.0,0.0,0.0,0.0,0.0,0.0,0.0,0.0,0.0,0.0,0.0,0.0,0.0,0.0,0.0,0.0,0.0,0.0,0.0,0.0,0.0,0.0,0.0,0.0,0.0,0.0,0.0,0.0,0.0,0.0,0.0,0.0,0.0,0.0,0.0,0.0,0.0,0.0,0.0,0.0,0.0,0.0,1.8951,1.9006,1.8899,1.8843,1.8798,1.9514,1.955,1.8865,1.9487,1.9413,0.0,0.0,0.0,0.0,0.0,0.0,0.0,0.0,0.0,0.0,0.0,0.0,0.0,0.0,0.0,0.0,0.0,0.0,0.0,0.0,0.0,0.0,0.0,0.0,0.0,0.0,0.0,0.0,1.6175,1.6852,1.8135,0.0,0.0,0.0,0.0,0.0,0.0,0.0,0.0,0.0,0.0,2.387,2.4929,2.5414,2.5885,2.6385,2.6725,2.6951,2.6946,2.6019,2.5052,2.4275,0.0,0.0,0.0,0.0,0.0,0.0,0.0,0.0,0.0,0.0,0.0,0.0,0.0,0.0,0.0,0.0,0.0,0.0,0.0,0.0,0.0,0.0,0.0,0.0,0.0,0.0,0.0,2.2012,0.0,0.0,2.1796,0.0,0.0,0.0,0.0,0.0,0.0,0.0,0.0,0.0,0.0,0.0,0.0,0.0,0.0,0.0,0.0,0.0,0.0,0.0,0.0,0.0,0.0,1.8629,1.8798,1.8622,1.8629,1.8815,1.9527,1.9571,1.8882,1.9458,1.9403,1.8525,0.0,0.0,0.0,0.0,0.0,0.0,0.0,0.0,0.0,0.0,0.0,0.0,0.0,0.0,0.0,0.0,0.0,0.0,0.0,0.0,0.0,0.0,0.0,0.0,0.0,0.0,1.8266,1.7592,1.7473,0.0,0.0,0.0,0.0,0.0,0.0,0.0,0.0,0.0,2.3719,2.451,2.5033,2.4995,2.6264,2.7128,2.7197,2.6607,2.6124,2.6142,2.465,2.3192,0.0,0.0,0.0,0.0,0.0,0.0,0.0,0.0,0.0,0.0,0.0,0.0,0.0,0.0,0.0,0.0,0.0,0.0,0.0,0.0,0.0,0.0,0.0,0.0,0.0,0.0,0.0,2.2673,2.2013,0.0,0.0,0.0,0.0,0.0,0.0,0.0,0.0,0.0,0.0,0.0,2.2818,2.2842,0.0,0.0,0.0,0.0,0.0,0.0,0.0,0.0,0.0,0.0,0.0,0.0,1.9076,1.8629,1.8529,1.8713,1.9138,1.9843,2.0082,1.9806,2.0071,1.9585,1.8279,0.0,0.0,0.0,0.0,0.0,0.0,0.0,0.0,0.0,0.0,0.0,0.0,0.0,0.0,0.0,0.0,0.0,0.0,0.0,0.0,0.0,0.0,0.0,0.0,0.0,1.9964,0.0,0.0,0.0,0.0,0.0,0.0,0.0,0.0,0.0,0.0,2.2797,2.3075,2.3777,2.4092,2.4345,2.4625,2.5485,2.6036,0.0,0.0,0.0,0.0,0.0,0.0,0.0,0.0,0.0,0.0,0.0,0.0,0.0,0.0,2.2909,2.1979,2.1797,2.1781,2.1785,0.0,0.0,0.0,0.0,0.0,0.0,0.0,0.0,0.0,0.0,0.0,0.0,0.0,0.0,2.3094,0.0,2.2827,0.0,0.0,0.0,0.0,0.0,0.0,0.0,0.0,2.2705,2.2705,2.2705,2.2705,2.2705,0.0,2.2705,2.2705,0.0,0.0,0.0,0.0,0.0,0.0,0.0,0.0,1.9175,1.8428,1.8398,1.856,1.889,1.9854,2.0208,1.9915,2.0167,1.9847,1.8802,1.9118,1.9116,0.0,0.0,0.0,0.0,0.0,0.0,0.0,0.0,0.0,0.0,0.0,0.0,0.0,0.0,0.0,0.0,0.0,0.0,0.0,0.0,0.0,0.0,0.0,2.0808,0.0,0.0,0.0,0.0,0.0,0.0,0.0,0.0,0.0,2.3133,2.2929,2.3188,2.4319,2.3993,2.3906,2.4586,0.0,0.0,0.0,0.0,0.0,0.0,0.0,2.433,2.4114,2.4337,2.4545,2.4593,2.4808,2.4843,2.4365,0.0,0.0,2.2435,2.2181,2.2238,2.2484,2.2489,2.2675,2.3428,2.3531,2.3563,0.0,0.0,0.0,0.0,0.0,0.0,0.0,0.0,2.3265,2.3599,0.0,2.3295,0.0,0.0,0.0,0.0,2.2757,2.2757,0.0,0.0,2.2819,2.2767,2.2802,2.2809,2.2791,2.2774,2.2763,2.2763,2.275,2.2722,0.0,0.0,0.0,0.0,0.0,0.0,1.8953,1.8228,1.8205,1.8179,1.8205,1.9539,1.9909,1.9212,1.9854,2.0161,2.0004,2.0071,2.0094,2.0042,2.072,0.0,0.0,0.0,0.0,0.0,0.0,0.0,0.0,0.0,0.0,0.0,0.0,0.0,0.0,0.0,0.0,0.0,0.0,0.0,0.0,2.2061,0.0,0.0,0.0,0.0,0.0,0.0,0.0,0.0,0.0,2.2627,2.3731,2.3168,2.3368,2.52,0.0,0.0,0.0,0.0,2.5411,2.5002,2.5249,2.5364,2.5015,2.4673,2.4445,2.4432,0.0,0.0,2.5138,2.5154,2.5201,2.5122,2.5144,2.4663,2.3359,2.3055,2.3186,2.3774,2.3926,2.4201,2.4841,2.5007,2.4892,2.6567,0.0,0.0,0.0,0.0,2.4766,2.5198,2.5598,2.5598,2.5365,2.4909,2.4108,0.0,0.0,0.0,0.0,0.0,0.0,2.3802,2.4326,2.4343,2.4326,2.4343,2.4341,2.4341,2.4333,2.3745,2.3485,2.3457,2.294,2.2705,2.2705,0.0,0.0,0.0,0.0,1.947,1.8264,1.8195,1.842,1.8892,1.9293,1.9641,1.9878,2.0552,2.0643,2.01,2.059,2.0888,2.0845,2.0534,0.0,0.0,0.0,0.0,0.0,0.0,0.0,0.0,0.0,0.0,0.0,0.0,0.0,0.0,0.0,0.0,0.0,0.0,0.0,2.2705,2.2492,2.2395,0.0,0.0,0.0,0.0,0.0,0.0,0.0,0.0,0.0,2.3733,2.3004,2.2921,0.0,0.0,2.3539,2.4133,2.4527,2.462,2.428,2.4738,0.0,2.4308,2.4716,2.5047,2.4861,2.6146,2.7378,2.7846,2.7925,2.7778,2.7299,2.7204,2.692,2.6061,2.5058,2.4544,2.4664,2.5046,2.5441,2.5675,2.6103,2.6388,2.946,2.7904,2.6048,2.536,2.5633,2.6635,2.7041,2.7027,2.7001,2.6828,2.6518,2.5105,2.4524,2.4545,2.3898,0.0,0.0,0.0,2.4705,2.5404,2.5119,2.5139,2.5358,2.5133,2.4995,2.4944,2.4489,2.4116,2.3802,2.3353,2.2974,2.2716,0.0,2.2095,2.0917,2.0883,2.0268,1.9092,1.9032,1.9223,1.9549,1.9844,2.0319,2.1007,2.1427,2.1434,2.1003,2.14,2.1624,2.1634,2.1187,2.0628,0.0,0.0,0.0,0.0,0.0,0.0,0.0,0.0,0.0,0.0,0.0,2.2626,2.2709,0.0,0.0,0.0,2.2056,2.2544,2.2692,2.2582,0.0,0.0,0.0,0.0,0.0,0.0,0.0,2.1147,2.1755,2.2666,2.3733,2.3198,2.3285,2.4859,2.4201,2.3781,2.4451,0.0,2.4598,2.4363,2.4837,2.501,2.4439,2.531,2.6187,2.6564,2.7619,2.8589,2.9004,2.9114,2.8956,2.862,2.8494,2.8356,2.789,2.71,2.6474,2.6292,2.6505,2.6824,2.7073,2.7263,2.7303,3.2693,3.2317,2.932,2.7784,2.7511,2.8934,2.8989,2.8087,2.8014,2.821,2.8428,2.6276,2.5969,2.7031,2.5643,0.0,2.517,2.517,2.5619,2.6335,2.5663,2.5677,2.6235,2.5577,2.5217,2.5178,2.5114,2.4707,2.4019,2.3915,2.3512,2.2789,2.284,2.2438,2.1624,2.1589,2.1156,2.0286,2.0292,2.0222,2.0108,2.0827,2.1522,2.2168,2.2279,2.2303,2.2296,2.2296,2.2313,2.2296,2.2178,2.1447,2.0059,0.0,0.0,0.0,0.0,0.0,0.0,0.0,0.0,0.0,0.0,0.0,0.0,0.0,0.0,2.2493,2.217,0.0,2.2599,2.2347,0.0,0.0,0.0,2.2077,2.1864,2.1843,2.1862,2.1889,0.0,0.0,2.3774,2.3654,2.4107,2.5842,2.4814,2.432,2.5355,2.524,2.5075,2.4967,2.5259,2.5346,2.5007,2.6024,2.722,2.8325,2.894,2.883,2.8861,2.8972,2.8976,2.894,2.9051,2.9048,2.8939,2.877,2.8759,2.8178,2.8023,2.8136,2.85,2.8118,2.7679,3.4852,3.4097,3.2538,3.1383,3.0644,3.1397,3.158,3.1282,3.1156,3.0207,2.8599,2.7386,2.6384,2.5523,2.516,2.5643,2.6747,2.6755,2.7414,2.8561,2.8441,2.845,2.8561,2.7801,2.7479,2.7482,2.6385,2.5737,2.5532,2.4947,2.424,2.3522,2.3966,2.3315,2.1588,2.152,2.1098,2.0224,2.0222,2.019,2.0113,2.0815,2.1292,2.1454,2.1999,2.2313,2.2313,2.2313,2.2313,2.2262,2.1174,2.027,1.965,1.9618,0.0,0.0,0.0,0.0,0.0,0.0,0.0,0.0,0.0,2.2271,2.2605,0.0,2.2052,0.0,2.0314,2.0638,2.1901,2.1935,0.0,0.0,2.1889,2.1989,2.2158,2.2183,2.2305,2.2603,2.2938,2.3316,2.3834,2.4048,2.4533,2.548,2.4848,2.4569,2.5373,2.5217,2.5023,2.4997,2.5068,2.5088,2.5094,2.5696,2.6617,2.7439,2.7591,2.7578,2.7578,2.8015,2.832,2.8379,2.8778,2.9039,2.9005,2.904,2.8989,2.8882,2.8708,2.8471,2.8215,2.7968,2.7809,3.7083,3.6155,3.5467,3.4781,3.4205,3.4137,3.3644,3.2871,3.2747,3.1751,3.0149,2.9269,2.797,2.6494,2.65,2.6758,2.72,2.72,2.8002,2.9351,2.9007,2.8973,2.9237,2.8544,2.8044,2.7762,2.6924,2.6379,2.6048,2.5569,2.4949,2.4157,2.4508,2.4084,2.2928,2.2593,2.22,2.1713,2.1336,2.1105,2.1096,2.1485,2.1691,2.1701,2.194,2.207,2.2087,2.1939,2.1857,2.1831,2.1045,2.0165,1.9338,1.927,1.8824,0.0,0.0,0.0,0.0,0.0,0.0,0.0,0.0,0.0,0.0,0.0,2.1709,2.0744,2.0705,2.1157,2.215,2.2402,2.2506,2.2523,2.2506,2.2533,2.2587,2.256,2.2647,2.2888,2.3327,2.3747,2.4125,2.4457,2.4873,2.5424,2.5023,2.4858,2.5365,2.532,2.5179,2.5025,2.4995,2.5112,2.5397,2.6036,2.6728,2.7385,2.7791,2.7894,2.762,2.7853,2.8,2.7747,2.7924,2.8093,2.8048,2.7975,2.793,2.785,2.7751,2.7713,2.7784,2.75,2.7191,3.9134,3.8146,3.7748,3.7476,3.7234,3.6505,3.5282,3.3773,3.3549,3.2865,3.1855,3.0949,2.9747,2.8449,2.8379,2.8001,2.7386,2.7275,2.8056,2.9419,2.8622,2.8586,2.9197,2.8485,2.7818,2.7153,2.7098,2.6761,2.6143,2.6049,2.5611,2.4863,2.4914,2.4893,2.472,2.4159,2.3767,2.3567,2.2821,2.2388,2.2313,2.2254,2.223,2.2233,2.1908,2.1753,2.1729,2.1438,2.13,2.13,2.13,2.0652,1.9333,1.9228,1.9211,0.0,1.9168,0.0,0.0,0.0,0.0,0.0,0.0,0.0,0.0,2.1462,2.152,2.1667,2.2037,2.24,2.2783,2.3127,2.3325,2.33,2.3227,2.3106,2.2885,2.2801,2.2819,2.2998,2.3519,2.403,2.4483,2.4816,2.5094,2.53,2.5169,2.5059,2.5329,2.5396,2.5288,2.5025,2.4995,2.5175,2.5671,2.6325,2.6909,2.7536,2.7889,2.8367,2.7647,2.7657,2.7583,2.7082,2.6949,2.6898,2.6711,2.6654,2.6539,2.6527,2.6509,2.6666,2.7103,2.6787,2.6332,3.9934,3.8895,3.799,3.7493,3.726,3.6849,3.6143,3.524,3.4506,3.2973,3.0931,3.0022,2.948,2.9136,2.8459,2.8374,2.8767,2.8194,2.8689,3.0025,2.9266,2.9291,2.9894,2.8654,2.7998,2.7862,2.7306,2.6947,2.681,2.6729,2.6297,2.5542,2.6054,2.6046,2.5501,0.0,0.0,0.0,2.326,2.2895,2.2313,2.2034,2.1886,2.1886,2.1562,0.0,2.1393,2.1339,2.13,2.13,2.13,0.0,0.0,0.0,0.0,0.0,0.0,0.0,0.0,0.0,0.0,0.0,2.0811,2.1127,2.137,2.1229,2.1392,2.2078,2.2063,2.2214,2.2812,2.295,2.2952,2.2824,2.2363,2.2195,2.2651,2.2281,2.2357,2.3574,2.3775,2.4053,2.4636,2.4819,2.4866,2.494,2.497,2.4976,2.492,2.5039,2.5084,2.5015,2.4985,2.5033,2.5169,2.5355,2.5629,2.5612,2.565,2.5808,2.5798,2.6099,2.6319,2.6146,2.6449,2.669,2.6668,2.6678,2.654,2.6607,2.6499,2.6346,2.5996,2.5815,2.5679,4.0348,3.8959,3.828,3.7441,0.0,3.6723,3.6325,3.557,3.504,3.3805,3.2122,3.0951,3.0622,3.0866,2.9739,2.9414,2.9659,2.8927,2.9172,3.0156,2.9787,2.9608,2.9582,2.8881,2.8177,2.7504,2.7146,2.695,2.695,2.6859,2.6597,2.619,2.653,2.6438,2.5916,2.567,2.478,2.3173,2.2798,2.2354,2.1831,2.1649,2.1563,2.1539,2.1221,0.0,0.0,0.0,0.0,0.0,0.0,0.0,0.0,2.0568,0.0,2.0313,2.0296,2.0443,2.0767,2.0955,2.1113,2.1275,2.1443,2.1482,2.1374,2.1626,2.1944,2.2301,2.2629,2.2953,2.3227,2.3541,2.3716,2.3637,2.3384,2.3375,2.3626,2.3428,2.3516,2.415,2.4261,2.4329,2.4647,2.4755,2.4766,2.4725,2.4821,2.4846,2.4736,2.4832,2.4886,2.4902,2.4835,2.4809,2.4934,2.5189,2.5341,2.5382,2.5612,2.5659,2.5376,2.5597,2.5702,2.5373,2.5472,2.5616,2.5606,2.5563,2.55,2.5516,2.5447,2.5337,2.4976,2.5177,2.5285,4.046,3.8698,3.8338,3.7171,3.5604,3.6127,3.5981,3.5372,3.5221,0.0,0.0,3.229,3.2095,3.24,3.1132,3.0474,3.0332,2.9457,2.9474,3.0153,2.9976,2.9651,2.9213,2.8963,2.8235,2.7088,2.6935,2.6859,2.6859,2.675,2.6708,2.6691,2.6632,2.6401,2.5989,2.5435,2.4399,2.2965,2.2364,2.1836,2.1328,2.123,2.1221,2.1214,2.0893,2.0712,2.0712,2.0458,2.0296,2.0296,2.0403,2.0465,2.048,2.0588,2.0665,2.0659,2.065,2.0888,2.1418,2.1473,2.1695,2.2274,2.2413,2.2197,2.1562,2.2149,2.2574,2.2601,2.3318,2.3751,2.3782,2.4264,2.4589,2.4595,2.4566,2.4533,2.4523,2.4429,2.4284,2.4524,2.4416,2.4443,2.4553,2.4671,2.4727,2.463,2.4686,2.4732,2.4625,2.4686,2.4756,2.4772,2.4684,2.4658,2.4789,2.5103,2.5486,2.5431,2.5883,2.6096,2.567,2.5498,2.5259,2.475,2.4539,2.4524,2.4488,2.4482,2.4292,2.4281,2.4281,2.4281,2.4327,2.4738,2.4891,4.0329,3.8329,3.7654,3.6298,3.4592,3.4581,3.473,3.4991,3.5015,3.3815,3.1873,3.2869,3.2988,3.2441,3.1506,3.1087,3.0973,2.9628,2.9425,3.0067,2.9467,2.9441,2.9862,2.8602,2.7875,2.7638,2.7046,2.6716,2.6733,2.6716,2.6708,2.6674,2.635,2.598,2.5517,2.4331,2.3437,2.2902,2.3078,2.2573,2.1341,2.1015,2.086,2.0868,2.056,2.0381,2.0349,2.0321,2.0296,2.0311,2.085,2.1159,2.1165,2.1679,2.2018,2.2018,2.2018,2.2074,2.2141,2.2157,2.2188,2.2311,2.2825,2.2885,2.2316,2.2353,2.2711,2.3353,2.359,2.3865,2.4356,2.4527,2.4574,2.4482,2.4027,2.3664,2.3685,2.3229,2.3173,2.3787,2.3655,2.3894,2.4421,2.4539,2.4554,2.4517,2.4563,2.4605,2.4544,2.4574,2.4609,2.4614,2.4608,2.4623,2.4661,2.4672,2.4813,2.4771,2.488,2.501,2.4854,2.4771,2.4684,2.4549,2.4421,2.4349,2.4338,2.4317,2.4281,2.4281,2.4281,2.4281,2.4281,2.4384,2.4262,4.0626,3.8972,3.8384,3.6961,3.4987,3.481,3.4788,3.4937,3.5271,3.4821,3.3668,3.2747,3.2778,3.3429,3.1914,3.142,3.1752,3.0676,3.0388,3.0656,3.0354,3.0123,2.9921,2.928,2.874,2.8343,2.8006,2.7873,2.7908,2.7703,2.7343,2.687,2.5822,2.5227,2.507,2.4273,2.3613,2.312,2.2366,2.1753,2.1313,2.1167,2.1037,2.0984,2.087,2.0815,2.0722,2.0806,2.0996,2.1374,2.1664,2.1843,2.1849,2.2126,2.2267,2.221,2.2257,2.2436,2.2716,2.3149,2.3394,2.3394,2.3656,2.3727,2.3454,2.3498,2.3665,2.3953,2.4047,2.4172,2.441,2.4441,2.4441,2.439,2.4163,2.4033,2.3976,2.376,2.3693,2.4002,2.3969,2.4025,2.4349,2.4452,2.4462,2.4421,2.4426,2.4416,2.44,2.4431,2.4482,2.4533,2.4482,2.4466,2.4523,2.4488,2.4441,2.4436,2.4421,2.4426,2.4436,2.4385,2.4374,2.439,2.4349,2.4307,2.4281,2.4281,2.4281,2.4281,2.4281,2.4281,2.4261,2.3941,2.3562,4.0451,3.9069,3.8433,3.6922,3.4914,3.4687,3.4579,3.4597,3.4684,3.5057,3.5155,3.2975,3.2702,3.3738,3.2151,3.1651,3.1951,3.1372,3.1035,3.1005,3.0995,3.0653,3.002,2.9807,2.9337,2.8724,2.8567,2.8541,2.855,2.8256,2.7633,2.6711,2.5478,2.4744,2.4614,2.4158,2.3718,2.3165,2.183,2.1227,2.1486,2.1483,2.1427,2.131,2.1409,2.1409,2.1338,2.1412,2.1719,2.2236,2.243,2.2501,2.2473,2.2661,2.2703,2.2625,2.2689,2.2894,2.333,2.3912,2.4281,2.4281,2.4281,2.4292,2.4292,2.439,2.4426,2.4338,2.4359,2.4395,2.4338,2.4317,2.4281,2.4317,2.439,2.44,2.4441,2.4457,2.4462,2.4456,2.4359,2.4276,2.4328,2.439,2.44,2.4338,2.4281,2.4281,2.4281,2.4281,2.4349,2.439,2.4369,2.4359,2.4436,2.4364,2.4302,2.4281,2.4292,2.4302,2.4302,2.4292,2.4292,2.4317,2.4292,2.4281,2.4281,2.4281,2.4281,2.4281,2.4281,2.4261,2.4104,2.3638,2.3157,3.9007,3.7724,3.6457,3.4681,3.3245,3.2997,3.3192,3.3425,3.2242,3.3071,3.5025,3.4454,3.3457,3.256,3.2188,3.1828,3.1509,3.085,3.0514,3.042,3.0393,3.0323,3.0174,2.9478,2.8828,2.8367,2.7882,2.7677,2.7605,2.7514,2.6918,2.5864,2.5571,2.5024,2.416,2.3539,2.3168,2.3021,2.2337,2.2003,2.2011,2.2026,2.2003,2.1912,2.1932,2.1955,2.1992,2.2036,2.2051,2.2158,2.2837,2.3144,2.3121,2.3687,2.4092,2.4045,2.4025,2.406,2.4095,2.4235,2.4281,2.4281,2.4281,2.4281,2.4281,2.4317,2.4317,2.4307,2.4328,2.4328,2.4302,2.4281,2.4281,2.4281,2.4317,2.4312,2.4328,2.4317,2.4323,2.4307,2.4312,2.4281,2.4307,2.4328,2.4317,2.4307,2.4281,2.4281,2.4292,2.4199,2.4256,2.4297,2.4287,2.4271,2.4323,2.4317,2.4281,2.4281,2.4276,2.4261,2.4246,2.4251,2.4281,2.4292,2.4281,2.4281,2.4281,2.4281,2.4281,2.4281,2.4261,2.4177,2.3814,2.353,2.3355,3.8897,3.7515,3.6829,3.5817,3.4699,3.4016,3.3846,3.3964,3.3275,3.3403,3.3952,3.4108,3.3868,3.3357,3.2552,3.2045,3.1811,3.0874,3.0587,3.0724,3.0379,3.0145,3.0069,2.9798,2.9324,2.8854,2.8588,2.8461,2.838,2.7816,2.7061,2.6333,2.5853,2.5205,2.4511,2.4241,2.394,2.3608,2.3366,2.3203,2.3066,2.2798,2.2581,2.2501,2.2531,2.26,2.2615,2.2615,2.2853,2.332,2.3667,2.3825,2.3748,2.4112,2.4255,2.414,2.4103,2.4114,2.4202,2.4255,2.4281,2.4281,2.4281,2.4281,2.4281,2.4281,2.4281,2.4281,2.4281,2.4281,2.4281,2.4281,2.4281,2.4281,2.4281,2.4281,2.4281,2.4281,2.4281,2.4281,2.4281,2.4281,2.4281,2.4281,2.4281,2.4281,2.4281,2.4281,2.4276,2.3979,2.3902,2.4164,2.3989,2.3922,2.4179,2.4281,2.4281,2.4246,2.3963,2.3779,2.4184,2.3892,2.3799,2.4215,2.4292,2.4281,2.4281,2.4281,2.4281,2.4281,2.4261,2.4156,2.3681,2.3377,2.3035,3.8558,3.7492,3.708,3.6428,3.5591,3.4824,3.4355,3.4093,3.394,3.3651,3.3367,3.3795,3.4048,3.3995,3.2917,3.2245,3.1853,3.0888,3.0509,3.059,2.9963,2.9623,2.959,2.9556,2.9255,2.8841,2.8752,2.8853,2.8856,2.805,2.7264,2.6711,2.6159,2.5575,2.5074,2.4897,2.458,2.4187,2.4024,2.3882,2.3696,2.3371,2.3115,2.3027,2.3104,2.3197,2.3223,2.3223,2.3492,2.4051,2.4114,2.4135,2.4092,2.4203,2.4193,2.4024,2.3993,2.4035,2.415,2.4229,2.4261,2.4281,2.4281,2.4281,2.4281,2.4281,2.4281,2.4281,2.4281,2.4281,2.4281,2.4281,2.4281,2.4281,2.4281,2.4281,2.4281,2.4281,2.4281,2.4281,2.4281,2.4281,2.4281,2.4281,2.4281,2.4281,2.4281,2.4281,2.4261,2.3933,2.381,2.4194,2.387,2.3824,2.4194,2.4281,2.4281,2.423,2.3917,2.3871,2.4215,2.381,2.3615,2.4261,2.4292,2.4281,2.4281,2.4281,2.4245,2.4261,2.4188,2.3952,2.3432,2.3035,2.2561,3.7482,3.7183,3.6394,3.5608,3.4746,3.4577,3.3987,3.3237,3.316,3.3312,3.3631,3.392,3.4027,3.3998,3.3162,3.2294,3.137,3.0728,3.0145,2.9628,2.8972,2.861,2.8559,2.8436,2.8174,2.7845,2.7934,2.7962,2.7925,2.769,2.7263,2.6668,2.6584,2.6225,2.5608,2.5137,2.4766,2.4519,2.4112,2.3754,2.3638,2.3571,2.3526,2.3516,2.3556,2.3606,2.3717,2.3758,2.3788,2.3839,2.3925,2.395,2.3871,2.4056,2.4124,2.4014,2.3993,2.3993,2.4014,2.4135,2.4229,2.4286,2.4261,2.4281,2.4297,2.4297,2.4281,2.4281,2.4281,2.4281,2.4281,2.4281,2.4281,2.4281,2.4281,2.4281,2.4281,2.4281,2.4281,2.4281,2.4281,2.4281,2.4281,2.4281,2.4281,2.4281,2.4281,2.4261,2.4184,2.4179,2.4164,2.4179,2.4174,2.4241,2.4292,2.4281,2.4281,2.4215,2.4148,2.4184,2.4256,2.4271,2.4246,2.4276,2.4292,2.4281,2.4281,2.4245,2.4168,2.4074,2.3862,2.3562,2.3046,2.2575,2.2161,3.6945,3.6319,3.5908,3.5525,3.516,3.4577,3.3806,3.305,3.335,3.2994,3.2493,3.3349,3.3616,3.3112,3.2894,3.2254,3.1317,3.0369,2.9715,2.9366,2.9126,2.8787,2.8426,2.8738,2.8436,2.7705,2.765,2.7675,2.7678,2.7625,2.748,2.7288,2.724,2.6911,2.633,2.6066,2.5548,2.4672,2.4384,2.4092,2.3655,2.3584,2.3584,2.3584,2.3584,2.3664,2.3792,2.3717,2.3707,2.3792,2.385,2.385,2.3818,2.3882,2.3914,2.3882,2.3887,2.3871,2.3882,2.3993,2.4082,2.4109,2.4109,2.4151,2.4213,2.4239,2.426,2.4286,2.4281,2.4281,2.4281,2.4281,2.4281,2.4281,2.4281,2.4281,2.4281,2.4281,2.4281,2.4281,2.4281,2.4281,2.4281,2.4281,2.4281,2.4281,2.4281,2.4138,2.3779,2.3671,2.3692,2.3681,2.3662,2.3815,2.4302,2.4292,2.4276,2.4138,2.4061,2.4046,2.4076,2.3917,2.384,2.423,2.4281,2.4122,2.4056,2.3917,2.3851,2.3434,2.3271,2.3224,2.2609,2.2278,2.1926,3.6354,3.5684,3.5583,3.552,3.5333,3.4515,3.3752,3.3194,3.3587,3.3055,3.2271,3.323,3.3335,3.2668,3.25,3.1745,3.07,3.0026,2.9522,2.9045,2.8997,2.8726,2.8477,2.8984,2.8802,2.7934,2.7677,2.7585,2.7585,2.7585,2.7585,2.7585,2.7585,2.7375,2.6958,2.6731,2.6114,2.533,2.4831,2.4365,2.394,2.3551,2.3439,2.3534,2.3297,2.3345,2.3696,2.3653,2.3638,2.3717,2.3739,2.375,2.3807,2.361,2.3599,2.375,2.375,2.3739,2.3818,2.3882,2.3961,2.3982,2.3993,2.4046,2.4135,2.4156,2.4197,2.4224,2.4271,2.4297,2.4276,2.4266,2.4266,2.4276,2.4286,2.4297,2.4261,2.4281,2.4281,2.4281,2.4281,2.4281,2.4281,2.4281,2.4281,2.4281,2.4297,2.4051,2.3713,2.3345,2.3345,2.3513,2.3435,2.3681,2.4076,2.4292,2.4281,2.4174,2.4138,2.4061,2.3984,2.3733,2.3733,2.4138,2.4169,2.3948,2.3753,2.3593,2.3255,2.2808,2.2905,2.3027,2.2518,2.2067,2.1747,3.5628,3.5349,3.5434,3.5326,3.5095,3.4337,3.3828,3.3505,3.3705,3.3343,3.2519,3.3419,3.3124,3.2457,3.186,3.0843,2.9595,2.9703,2.9335,2.8439,2.8419,2.8391,2.8343,2.8907,2.8848,2.8142,2.7765,2.7575,2.7562,2.7634,2.7664,2.7587,2.7649,2.7619,2.7557,2.6951,2.6602,2.6211,2.531,2.4667,2.4457,2.356,2.3197,2.3355,2.2669,2.2646,2.353,2.353,2.3465,2.3497,2.3519,2.3616,2.362,2.3257,2.3179,2.3674,2.3674,2.3674,2.376,2.3782,2.3861,2.3925,2.3972,2.3982,2.4003,2.4092,2.4135,2.4077,2.4172,2.4266,2.4208,2.4187,2.4187,2.4197,2.4245,2.4234,2.4229,2.4245,2.4281,2.4256,2.4266,2.4281,2.4281,2.4286,2.4276,2.4276,2.425,2.4049,2.3779,2.3381,2.3473,2.3671,2.3544,2.3463,2.3897,2.4281,2.4281,2.424,2.4251,2.423,2.4199,2.4046,2.4015,2.4266,2.403,2.3805,2.3409,2.3252,2.3078,2.2769,2.2868,2.2697,2.224,2.1795,2.1614,3.5216,3.5222,3.4682,3.4431,3.4366,3.4007,3.3444,3.2851,3.3595,3.2814,3.135,3.2209,3.1923,3.0717,3.0342,2.9837,2.8972,2.8748,2.824,2.7818,2.8442,2.8591,2.8311,2.8521,2.8322,2.7745,2.7452,2.7321,2.7435,2.7869,2.7939,2.7612,2.7923,2.788,2.7465,2.7166,2.6853,2.6448,2.6065,2.534,2.425,2.3763,2.3279,2.2612,2.2244,2.2429,2.3043,2.2773,2.2578,2.2589,2.2566,2.2762,2.3031,2.299,2.315,2.3573,2.3616,2.3606,2.3653,2.3674,2.3664,2.3717,2.3717,2.376,2.385,2.3919,2.3961,2.3972,2.4056,2.4077,2.4067,2.4056,2.4092,2.4202,2.4145,2.4088,2.4092,2.4103,2.4079,2.4096,2.4095,2.4136,2.4204,2.4234,2.4223,2.4229,2.4197,2.3942,2.3061,2.3305,2.3198,2.2869,2.2914,2.3307,2.3817,2.4063,2.3975,2.4105,2.4198,2.4266,2.4276,2.4276,2.4286,2.4142,2.3892,2.3553,2.3171,2.2956,2.282,2.2446,2.2204,2.1978,2.1722,2.1568,2.1434,3.4887,3.4804,3.4189,3.3869,3.3722,3.3326,3.2801,3.2408,3.2917,3.2222,3.107,3.1367,3.1168,3.0218,2.9783,2.9304,2.8864,2.8835,2.8352,2.7671,2.8488,2.8752,2.8429,2.8523,2.8275,2.7724,2.7364,2.7192,2.7222,2.7669,2.775,2.7471,2.7737,2.775,2.7316,2.701,2.6663,2.6295,2.5706,2.4907,2.3924,2.3262,2.2677,2.2081,2.1694,2.1789,2.2189,2.1764,2.1789,2.2175,2.2072,2.2095,2.2523,2.2443,2.2561,2.2931,2.305,2.3109,2.329,2.3308,2.3432,2.3556,2.3584,2.3616,2.3717,2.375,2.3829,2.3839,2.3961,2.3982,2.394,2.3925,2.3982,2.405,2.4024,2.3993,2.3993,2.3993,2.3994,2.4012,2.3995,2.4036,2.4097,2.4124,2.4123,2.4124,2.4067,2.372,2.2803,2.3005,2.2733,2.2566,2.2748,2.3238,2.382,2.3843,2.3657,2.387,2.4104,2.4182,2.4224,2.4224,2.4224,2.3968,2.3708,2.3252,2.2871,2.2858,2.2721,2.2193,2.1679,2.1752,2.1706,2.1506,2.1372,3.4505,3.4038,3.3783,3.3485,3.3156,3.2334,3.2056,3.2139,3.1961,3.177,3.1502,3.1008,3.0788,3.0746,2.9711,2.9,2.8883,2.9493,2.9072,2.82,2.8559,2.8935,2.8846,2.8919,2.8695,2.8198,2.7655,2.7363,2.7468,2.7669,2.7327,2.7491,2.7545,2.7264,2.7123,2.661,2.6228,2.5921,2.4761,2.4029,2.3588,2.2413,2.1614,2.172,2.1007,2.0822,2.1213,2.0981,2.1311,2.2386,2.1756,2.1577,2.1898,2.165,2.1708,2.2175,2.2142,2.2417,2.274,2.2942,2.3102,2.3443,2.3551,2.3562,2.353,2.3653,2.3674,2.3562,2.3771,2.3903,2.3807,2.3782,2.3792,2.3818,2.3871,2.3914,2.3972,2.395,2.392,2.3956,2.3972,2.397,2.3965,2.3979,2.3987,2.3972,2.3903,2.3473,2.3003,2.2877,2.2831,2.2771,2.2757,2.312,2.3676,2.3484,2.3375,2.37,2.3935,2.402,2.4067,2.4067,2.4098,2.3826,2.3416,2.2969,2.2664,2.2625,2.2294,2.1681,2.1527,2.1726,2.1615,2.1328,2.1071,3.3646,3.3035,3.2749,3.2449,3.2128,3.1737,3.158,3.161,3.178,3.1381,3.0819,3.051,3.0004,2.9359,2.8621,2.8101,2.8188,2.8391,2.8333,2.7999,2.8913,2.9157,2.9039,2.926,2.9143,2.8684,2.8366,2.8311,2.8354,2.8742,2.877,2.8464,2.818,2.781,2.7098,2.6246,2.58,2.5499,2.5105,2.4103,2.3091,2.2642,2.1819,2.0674,2.041,2.0535,2.0979,2.0945,2.0908,2.1179,2.107,2.1107,2.1492,2.1446,2.1542,2.1905,2.2058,2.2128,2.2339,2.2663,2.2934,2.3102,2.3345,2.3432,2.3124,2.3432,2.3421,2.3279,2.3443,2.3685,2.3653,2.3664,2.3664,2.3664,2.3707,2.3728,2.3717,2.3707,2.3707,2.3717,2.3728,2.3762,2.384,2.3857,2.3839,2.385,2.3758,2.3534,2.3016,2.3104,2.3188,2.283,2.2781,2.312,2.3327,2.3124,2.3154,2.3535,2.3739,2.3814,2.3803,2.376,2.3814,2.3782,2.3161,2.2646,2.2423,2.2286,2.1724,2.1203,2.1226,2.1345,2.1111,2.0826,2.0567,3.2815,3.2321,3.2034,3.1767,3.1508,3.1292,3.1117,3.1043,3.1219,3.0877,3.0086,2.9718,2.9283,2.8679,2.8014,2.7801,2.792,2.8321,2.8437,2.8497,2.9493,2.9682,2.9391,2.9493,2.9319,2.8837,2.8737,2.868,2.8737,2.9201,2.8854,2.8081,2.7982,2.7313,2.6134,2.5481,2.4985,2.4641,2.4309,2.343,2.2385,2.2154,2.1407,2.0348,2.0118,2.0296,2.0547,2.0622,2.061,2.0523,2.0498,2.0648,2.0972,2.1008,2.1166,2.1491,2.1516,2.1575,2.1813,2.2121,2.2354,2.2546,2.2849,2.2819,2.266,2.2841,2.2841,2.2968,2.3157,2.3366,2.3551,2.3584,2.3584,2.3595,2.3584,2.3584,2.3584,2.3595,2.3595,2.3584,2.3595,2.362,2.3713,2.3726,2.3717,2.3717,2.3717,2.3325,2.2918,2.3302,2.3445,2.3018,2.2952,2.3298,2.3454,2.3308,2.3224,2.3543,2.3616,2.3707,2.3595,2.3519,2.3577,2.349,2.2886,2.2406,2.2158,2.1878,2.1429,2.1081,2.1019,2.0875,2.069,2.0506,2.0213,3.206,3.1752,3.1551,3.1394,3.119,3.0925,3.0747,3.0642,3.0672,3.0366,2.9755,2.9043,2.8897,2.8738,2.8003,2.7821,2.8226,2.8872,2.923,2.9446,2.9997,3.0146,2.9578,2.9563,2.9348,2.8915,2.8756,2.867,2.8655,2.867,2.8054,2.7341,2.6958,2.6144,2.5328,2.4518,2.408,2.3838,2.3302,2.2654,2.1967,2.1573,2.0999,2.0346,1.999,1.9978,2.0054,2.0105,2.0156,2.0156,2.0182,2.036,2.0511,2.0524,2.0586,2.0711,2.0823,2.096,2.1241,2.1423,2.1614,2.1953,2.2105,2.2058,2.2107,2.2175,2.2409,2.2697,2.287,2.3168,2.3508,2.3584,2.3584,2.3584,2.3584,2.3584,2.3584,2.3584,2.3584,2.3584,2.3584,2.3584,2.3584,2.3584,2.3595,2.3638,2.3638,2.3443,2.3197,2.3381,2.3381,2.3086,2.3199,2.3524,2.3569,2.3558,2.3517,2.3595,2.3595,2.3595,2.3443,2.3377,2.3377,2.3135,2.2397,2.1978,2.1827,2.1468,2.1106,2.0972,2.0885,2.0671,2.0441,2.0262,2.0012,3.1536,3.091,3.1219,3.1117,3.0762,3.0672,3.0613,3.0583,3.0598,3.0422,3.0103,2.916,2.8942,2.9247,2.7952,2.7611,2.8211,2.8749,2.9128,2.9972,3.0331,3.0179,2.9688,2.9523,2.9466,2.9205,2.8757,2.8557,2.8476,2.8142,2.7768,2.7368,2.6347,2.5686,2.4949,2.4268,2.3758,2.3363,2.3043,2.2669,2.2127,2.1652,2.1138,2.0543,2.0076,1.9862,1.9837,1.9875,1.9875,1.9927,2.0067,2.0245,2.0423,2.0486,2.0499,2.0524,2.0537,2.0599,2.0749,2.1045,2.1298,2.1504,2.1791,2.1955,2.1614,2.1849,2.2081,2.2348,2.2637,2.2976,2.3454,2.3573,2.3573,2.3573,2.3584,2.3584,2.3584,2.3584,2.3584,2.3584,2.3584,2.3584,2.3584,2.3584,2.3584,2.3584,2.3565,2.3531,2.3516,2.3505,2.3385,2.3191,2.334,2.3584,2.3562,2.3508,2.3421,2.333,2.3319,2.3264,2.312,2.2886,2.2762,2.2374,2.1789,2.1553,2.1542,2.1166,2.081,2.0787,2.0749,2.0588,2.0388,2.0128,1.9681,3.1014,3.0642,3.0881,3.0821,3.0627,3.0598,3.0423,3.0204,3.0315,2.9852,2.9117,2.8555,2.8426,2.8269,2.7584,2.7556,2.82,2.8817,2.9419,2.9977,3.0144,2.9916,2.9485,2.8973,2.8721,2.8935,2.8713,2.8411,2.8101,2.7732,2.7255,2.6459,2.5713,2.4925,2.4234,2.3786,2.3432,2.3203,2.3095,2.2836,2.2315,2.2024,2.1444,2.0754,2.0138,1.9811,1.9811,1.9811,1.9811,1.9849,1.9939,2.008,2.0233,2.0271,2.0296,2.036,2.036,2.041,2.0561,2.0711,2.0884,2.0971,2.124,2.1179,2.107,2.1214,2.1609,2.1941,2.2212,2.2457,2.3157,2.3268,2.3334,2.3551,2.3556,2.3545,2.3545,2.3577,2.3584,2.3584,2.3584,2.3584,2.3584,2.3551,2.3584,2.3573,2.3562,2.3528,2.3565,2.3565,2.3565,2.349,2.352,2.3573,2.3556,2.3421,2.3201,2.3031,2.2852,2.2725,2.2555,2.2267,2.199,2.1732,2.1577,2.1446,2.1363,2.0946,2.0699,2.0711,2.0672,2.0555,2.0346,2.0056,1.9453,3.0582,3.0522,3.0582,3.0582,3.0508,3.0392,3.0044,2.9637,2.9786,2.901,2.7726,2.794,2.7868,2.7314,2.723,2.7561,2.8115,2.8665,2.917,2.9357,2.9326,2.9109,2.875,2.8085,2.7666,2.8106,2.7867,2.7623,2.7335,2.7086,2.6005,2.499,2.4667,2.4085,2.3278,2.309,2.3085,2.3047,2.308,2.2945,2.2508,2.2307,2.1707,2.0791,2.0314,1.9924,1.9849,1.9811,1.9811,1.9811,1.9811,1.985,1.9939,2.0003,2.0054,2.0169,2.0169,2.0233,2.0334,2.0423,2.0448,2.0436,2.0486,2.0499,2.0499,2.0586,2.1006,2.1479,2.1801,2.1919,2.2603,2.2683,2.2886,2.312,2.3212,2.3271,2.3337,2.3388,2.3377,2.3577,2.3566,2.3566,2.3497,2.3439,2.3519,2.353,2.3497,2.3519,2.3541,2.3551,2.3541,2.3473,2.344,2.3113,2.3024,2.2958,2.278,2.2678,2.2423,2.2221,2.2046,2.186,2.1684,2.1708,2.1577,2.1373,2.1155,2.0885,2.0724,2.0711,2.066,2.0595,2.0334,1.9994,1.946,3.0447,3.0203,3.0462,3.0446,3.0103,2.966,2.9359,2.9228,2.8987,2.8472,2.7752,2.7765,2.7989,2.7985,2.7454,2.7481,2.7798,2.8071,2.8065,2.8179,2.8211,2.81,2.7591,2.7134,2.6801,2.6363,2.6253,2.6131,2.5777,2.4903,2.4592,2.3929,2.3463,2.2965,2.2943,2.2848,2.2924,2.2942,2.303,2.2977,2.2842,2.2445,2.1882,2.093,2.0603,2.0263,1.9912,1.9836,1.9811,1.9811,1.9811,1.9811,1.9849,1.9939,2.0003,2.0029,2.0042,2.0067,2.0131,2.0105,2.0144,2.022,2.0271,2.0245,2.0245,2.0271,2.061,2.103,2.1476,2.1724,2.1864,2.195,2.1946,2.2037,2.2167,2.2262,2.2566,2.2728,2.2894,2.3172,2.3345,2.3428,2.3285,2.3091,2.2978,2.2955,2.2938,2.3135,2.3319,2.3373,2.3406,2.333,2.3231,2.2783,2.2365,2.2321,2.2221,2.2205,2.2022,2.1789,2.1623,2.1516,2.1446,2.141,2.1252,2.0983,2.0811,2.0749,2.0736,2.0699,2.0686,2.066,2.049,2.0294,2.0308,2.9989,2.988,3.002,2.9805,2.9357,2.9059,2.8549,2.8009,2.7942,2.746,2.6998,2.7163,2.7505,2.7604,2.7484,2.7322,2.7351,2.7501,2.7488,2.7537,2.7438,2.7291,2.6739,2.6329,2.6049,2.5719,2.5311,2.4968,2.4876,2.4425,2.3698,2.3192,2.2822,2.2705,2.2708,2.2769,2.2784,2.2818,2.2924,2.3,2.2965,2.2552,2.1956,2.1594,2.0981,2.0553,2.0301,1.9912,1.9824,1.9811,1.9811,1.9811,1.9824,1.9849,1.9901,1.9913,1.9901,1.9926,1.999,1.999,2.0042,2.008,2.0093,2.0093,2.0105,2.0144,2.0271,2.0584,2.103,2.135,2.1364,2.1327,2.1464,2.1651,2.1639,2.1738,2.1941,2.2011,2.2274,2.2603,2.2708,2.2791,2.2849,2.2658,2.2424,2.236,2.2364,2.2629,2.2983,2.2958,2.2924,2.2827,2.264,2.2331,2.1852,2.1683,2.1649,2.1621,2.1573,2.135,2.124,2.113,2.1057,2.1009,2.0799,2.0674,2.0699,2.0724,2.0699,2.0699,2.0686,2.0686,2.0686,2.0647,2.0634,2.9459,2.9509,2.946,2.9095,2.863,2.8447,2.7788,2.6931,2.7086,2.6568,2.563,2.642,2.6828,2.6756,2.6889,2.6984,2.6841,2.7015,2.6917,2.6867,2.668,2.6548,2.6271,2.5783,2.5335,2.5317,2.489,2.4338,2.4365,2.4075,2.3478,2.2923,2.2629,2.2613,2.2598,2.2601,2.2616,2.2678,2.28,2.2863,2.2769,2.2558,2.2293,2.2158,2.1287,2.0789,2.0511,2.0061,1.9836,1.9811,1.9811,1.9811,1.9811,1.9811,1.9811,1.9811,1.9811,1.9862,1.9913,1.9939,1.9939,1.9952,1.9965,1.9965,1.9977,1.9978,2.0003,2.0169,2.0459,2.0737,2.0717,2.0727,2.0907,2.1087,2.1172,2.1272,2.1345,2.1429,2.152,2.1779,2.1993,2.2118,2.2165,2.2007,2.1732,2.1876,2.1883,2.1978,2.2262,2.2156,2.2095,2.206,2.193,2.1731,2.1402,2.1088,2.1036,2.1016,2.0984,2.0847,2.0785,2.0749,2.0724,2.0761,2.0699,2.0612,2.0649,2.0686,2.0699,2.0699,2.0699,2.0686,2.0686,2.0804,2.087,2.8958,2.9137,2.8907,2.8581,2.8167,2.7698,2.7074,2.649,2.6635,2.6175,2.5016,2.5768,2.6098,2.6164,2.6297,2.6348,2.6191,2.5948,2.5814,2.5831,2.5709,2.5687,2.5534,2.5411,2.5017,2.4904,2.4564,2.4425,2.4169,2.368,2.3096,2.2542,2.2355,2.2263,2.2337,2.2402,2.2436,2.2466,2.2632,2.2723,2.2726,2.2655,2.2372,2.1957,2.1473,2.0998,2.0575,2.0119,1.9834,1.976,1.9773,1.9785,1.9811,1.9811,1.9811,1.9811,1.9811,1.9811,1.9824,1.9849,1.9849,1.9849,1.9849,1.9837,1.9849,1.9849,1.985,1.9824,1.9978,2.0054,2.0092,2.0003,2.0029,2.0131,2.0295,2.0472,2.0609,2.0795,2.0891,2.0977,2.1172,2.1356,2.1476,2.1233,2.1066,2.1251,2.1405,2.148,2.1532,2.1472,2.1304,2.1256,2.1239,2.1077,2.0995,2.067,2.0609,2.0522,2.0485,2.0435,2.0486,2.0536,2.0624,2.0636,2.0562,2.0562,2.0611,2.0649,2.0686,2.0699,2.0699,2.0686,2.0699,2.0844,2.1014,2.83,2.8801,2.8685,2.8145,2.7417,2.7116,2.6314,2.5403,2.5337,2.4955,2.443,2.4877,2.5326,2.5657,2.6028,2.6,2.5699,2.5406,2.5312,2.5294,2.5294,2.5294,2.5162,2.4787,2.4436,2.4729,2.4169,2.3813,2.37,2.3397,2.2813,2.2378,2.2232,2.2213,2.2246,2.2275,2.2278,2.2325,2.2448,2.2583,2.2672,2.2678,2.2567,2.2294,2.1812,2.1286,2.0771,2.028,1.9875,1.9689,1.9565,1.9617,1.9669,1.9695,1.9721,1.9811,1.9811,1.9811,1.9811,1.9811,1.9811,1.9811,1.9811,1.9811,1.9811,1.9811,1.9811,1.9811,1.9811,1.9811,1.9811,1.9811,1.9811,1.9811,1.9811,1.9914,2.0118,2.0105,2.022,2.0283,2.037,2.06,2.0757,2.0595,2.0449,2.0513,2.0642,2.0726,2.0855,2.0955,2.072,2.0485,2.0457,2.0417,2.0395,2.0271,2.0334,2.0283,2.0233,2.022,2.0309,2.0385,2.0461,2.0461,2.036,2.041,2.0536,2.0598,2.061,2.0648,2.0699,2.0805,2.0923,2.0817,2.1014,2.7647,2.8105,2.815,2.7623,2.6777,2.6524,2.5614,2.4415,2.44,2.4099,2.3855,2.4249,2.4806,2.521,2.5647,2.5716,2.5329,2.5294,2.5294,2.5294,2.5294,2.5294,2.5127,2.4632,2.4584,2.5102,2.4155,2.3636,2.3433,2.318,2.2746,2.2237,2.2213,2.2306,2.239,2.2466,2.249,2.251,2.2587,2.2599,2.2567,2.2552,2.2552,2.2384,2.2032,2.1509,2.097,2.0476,1.9961,1.9531,1.9433,1.9486,1.9527,1.9604,1.9656,1.9734,1.9773,1.9811,1.9811,1.9811,1.9811,1.9811,1.9811,1.9811,1.9811,1.9811,1.9811,1.9811,1.9811,1.9811,1.9811,1.9811,1.9811,1.9811,1.9811,1.9811,1.9824,1.9901,1.994,2.0016,2.0055,1.9978,2.0041,1.994,1.9875,1.9837,1.9901,2.0016,2.0207,2.0434,2.0321,2.0093,2.008,2.008,2.0055,2.0029,2.0054,2.008,2.0016,2.0029,2.0144,2.022,2.0283,2.0245,2.022,2.0245,2.0359,2.0447,2.056,2.0676,2.0831,2.1106,2.1185,2.1093,2.1315,2.7033,2.676,2.6867,2.6844,2.6666,2.5725,2.496,2.42,2.4354,2.4058,2.3592,2.4152,2.4415,2.4699,2.5108,2.5357,2.5294,2.5294,2.5294,2.5294,2.5294,2.5294,2.5168,2.5043,2.4863,2.4705,2.4076,2.36,2.326,2.3019,2.2634,2.2258,2.2197,2.2498,2.2706,2.2754,2.2811,2.2831,2.2879,2.2666,2.2468,2.2311,2.2275,2.2197,2.1846,2.1375,2.084,2.0463,2.0016,1.9502,1.9379,1.9382,1.9422,1.9526,1.9592,1.9658,1.976,1.9798,1.9811,1.9811,1.9811,1.9811,1.9811,1.9811,1.9811,1.9811,1.9811,1.9811,1.9811,1.9811,1.9811,1.9811,1.9811,1.9811,1.9811,1.9811,1.9811,1.9811,1.9837,1.9811,1.9811,1.9811,1.9811,1.9811,1.9811,1.9811,1.9811,1.9927,1.9901,2.0055,2.0003,1.9875,1.9863,1.9863,1.985,1.9875,1.9914,1.9965,1.9939,1.9952,2.0003,2.0067,2.0105,2.0284,2.0309,2.0246,2.0284,2.0643,2.0875,2.086,2.1015,2.1342,2.1732,2.1862,2.2214,2.6474,2.6342,2.5682,2.5554,2.5795,2.5375,2.4523,2.3558,2.3485,2.3242,2.2781,2.3325,2.3765,2.4136,2.459,2.5006,2.5246,2.5294,2.5276,2.5294,2.5294,2.5294,2.5222,2.5054,2.4825,2.4705,2.4181,2.3729,2.3541,2.2903,2.2486,2.2234,2.219,2.2282,2.2526,2.2931,2.3041,2.3036,2.3029,2.2855,2.2723,2.2338,2.2197,2.2165,2.2123,2.1699,2.1204,2.0705,2.02,1.9729,1.9377,1.9298,1.9316,1.9447,1.9501,1.9581,1.9709,1.9773,1.9785,1.9785,1.9811,1.9811,1.9811,1.9811,1.9811,1.9811,1.9811,1.9811,1.9811,1.9811,1.9811,1.9811,1.9811,1.9811,1.9811,1.9811,1.9811,1.9811,1.9811,1.9811,1.9811,1.9811,1.9811,1.9811,1.9811,1.9811,1.9811,1.9811,1.9811,1.9811,1.9811,1.9811,1.9811,1.9811,1.9811,1.9811,1.9811,1.9824,1.9862,1.9938,2.0002,1.9888,1.9964,2.0192,2.0534,2.0675,2.0855,2.11,2.1194,2.1146,2.134,2.1673,2.2086,2.2529,2.2855,2.537,2.5042,2.4262,2.4378,2.4945,2.4458,2.3604,2.2705,2.2451,2.23,2.2097,2.2691,2.3123,2.3529,2.4113,2.4398,2.4613,2.469,2.4897,2.4962,2.4974,2.5098,2.5079,2.503,2.4898,2.4789,2.4194,2.3669,2.3392,2.2655,2.2269,2.2134,2.2213,2.2348,2.2658,2.3083,2.339,2.3285,2.3245,2.2975,2.2795,2.2407,2.2197,2.2197,2.2165,2.1876,2.1443,2.1017,2.0629,2.0099,1.9655,1.9361,1.9334,1.9354,1.9397,1.9501,1.9605,1.9682,1.9682,1.9747,1.9798,1.9811,1.9811,1.9811,1.9811,1.9811,1.9811,1.9811,1.9811,1.9811,1.9811,1.9811,1.9811,1.9811,1.9811,1.9811,1.9811,1.9811,1.9811,1.9811,1.9811,1.9811,1.9811,1.9811,1.9811,1.9811,1.9811,1.9811,1.9811,1.9811,1.9811,1.9811,1.9811,1.9811,1.9811,1.9811,1.9811,1.9811,1.9874,2.0025,2.0037,1.9987,2.0238,2.0743,2.106,2.1212,2.1366,2.1534,2.1504,2.1423,2.1769,2.2178,2.2643,2.3087,2.3164,2.3566,2.2445,2.2586,2.3376,2.4235,2.2745,2.201,2.1905,2.1557,2.1506,2.18,2.2512,2.2742,2.2803,2.3448,2.3768,2.381,2.3775,2.409,2.4595,2.4596,2.4684,2.4979,2.5103,2.485,2.4585,2.4013,2.3445,2.295,2.2396,2.2038,2.1892,2.1999,2.2548,2.3015,2.3948,2.4178,2.3844,2.373,2.3191,2.2594,2.2306,2.2209,2.2197,2.2197,2.1945,2.1632,2.1344,2.0983,2.0584,2.0069,1.9787,1.9677,1.9447,1.9349,1.9254,1.937,1.9421,1.9447,1.9656,1.976,1.9798,1.9811,1.9811,1.9811,1.9811,1.9811,1.9811,1.9811,1.9811,1.9811,1.9811,1.9811,1.9811,1.9811,1.9811,1.9811,1.9811,1.9811,1.9811,1.9811,1.9811,1.9811,1.9811,1.9811,1.9811,1.9811,1.9811,1.9811,1.9811,1.9811,1.9811,1.9811,1.9811,1.9811,1.9811,1.9811,1.9811,1.9949,2.0175,2.0414,2.0552,2.0879,2.1356,2.1559,2.1673,2.1796,2.1933,2.1985,2.2085,2.2388,2.2786,2.3264,2.3454,2.3401,2.283,2.18,2.1346,2.1456,2.1955,2.1961,2.1733,2.1447,2.1257,2.1253,2.1387,2.1743,2.1968,2.2164,2.246,2.2925,2.3421,2.3524,2.3913,2.4319,2.4348,2.4661,2.4904,2.4859,2.4659,2.4289,2.3764,2.2864,2.2034,2.1689,2.1313,2.1124,2.1683,2.243,2.3359,2.4129,2.4258,2.3886,2.372,2.344,2.2778,2.2402,2.2197,2.2197,2.2197,2.2077,2.1873,2.1632,2.1344,2.1088,2.0622,2.0209,1.9943,1.9652,1.9539,1.9335,1.9316,1.9434,1.9499,1.9643,1.9721,1.9785,1.9836,1.9848,1.9811,1.9798,1.9811,1.9836,1.9886,1.9874,1.9811,1.9811,1.9811,1.9811,1.9811,1.9811,1.9811,1.9811,1.9811,1.9811,1.9811,1.9811,1.9811,1.9772,1.9772,1.9785,1.9773,1.9798,1.9811,1.9811,1.9811,1.9811,1.9811,1.9811,1.9811,1.9811,1.9886,1.9949,2.0188,2.0503,2.0742,2.1067,2.1468,2.192,2.2019,2.2132,2.232,2.2495,2.2661,2.285,2.2837,2.2843,2.3044,2.3219,2.328,2.1415,2.0558,2.0041,1.986,2.0049,2.073,2.0916,2.0832,2.0935,2.0987,2.1026,2.1138,2.1259,2.1476,2.1711,2.1992,2.2819,2.2829,2.3436,2.3863,2.4025,2.4363,2.4549,2.4406,2.4184,2.3781,2.2838,2.1861,2.1153,2.0713,2.0702,2.096,2.1263,2.2246,2.3213,2.3764,2.4113,2.3917,2.3922,2.3525,2.2959,2.2534,2.2197,2.2197,2.2197,2.2173,2.2089,2.1897,2.1641,2.1482,2.1139,2.0617,2.0247,1.9925,1.97,1.9329,1.9211,1.9329,1.9407,1.9447,1.9586,1.9927,1.9956,2.0021,2.0084,2.027,2.0246,2.0209,2.0099,1.9949,1.9874,1.9861,1.9785,1.9785,1.9798,1.9798,1.9811,1.9811,1.9798,1.9798,1.9773,1.9786,1.9785,1.9746,1.9732,1.9733,1.9747,1.976,1.9785,1.9798,1.9798,1.9811,1.9824,1.9836,1.9824,1.9811,1.9924,2.0075,2.0439,2.0855,2.1331,2.1707,2.2081,2.2406,2.2506,2.2659,2.2882,2.306,2.2997,2.2884,2.2776,2.2789,2.2847,2.2899,2.2967,1.9324,1.8726,1.8676,1.8732,1.8831,1.9406,1.9761,2.0134,2.0453,2.0587,2.0614,2.0951,2.0944,2.0754,2.1129,2.1463,2.1674,2.1688,2.2393,2.3053,2.3155,2.3705,2.3937,2.3869,2.3305,2.2756,2.1938,2.0858,2.0238,1.9822,2.0113,2.0884,2.1162,2.1904,2.259,2.3071,2.353,2.3813,2.3694,2.3266,2.2726,2.2179,2.1922,2.189,2.1956,2.1972,2.1936,2.1892,2.1861,2.1745,2.1532,2.1039,2.0566,2.0102,1.9595,1.9217,1.9124,1.9227,1.9356,1.9408,1.9704,2.017,2.0412,2.0457,2.0548,2.0748,2.0737,2.0642,2.0508,2.0223,1.9999,1.9872,1.9747,1.976,1.9773,1.9785,1.9798,1.9798,1.9785,1.9773,1.9735,1.9722,1.9721,1.9694,1.9615,1.9629,1.963,1.9682,1.9721,1.9811,1.9811,1.9811,1.9824,1.9861,1.9887,2.0037,2.0314,2.059,2.0892,2.1281,2.1794,2.2246,2.2508,2.2757,2.2957,2.3095,2.3095,2.3095,2.3083,2.2957,2.2769,2.2732,2.2782,2.2558,2.2548,1.9106,1.8232,1.8206,1.8381,1.8757,1.9185,1.9676,2.0085,2.021,2.0243,2.0253,2.0367,2.0344,2.0275,2.0402,2.0747,2.0983,2.1196,2.1548,2.1945,2.2324,2.2355,2.238,2.2349,2.1848,2.1231,2.0497,1.982,1.9076,1.8703,1.9235,1.9966,2.0599,2.114,2.1558,2.193,2.275,2.3234,2.3097,2.2734,2.2063,2.1341,2.1238,2.1321,2.1415,2.1415,2.1431,2.1431,2.1289,2.0812,2.1092,2.08,1.9856,2.0408,2.0622,1.9698,1.9591,1.9631,1.9726,1.9779,2.0025,2.0564,2.095,2.1009,2.1034,2.1094,2.1209,2.1064,2.0799,2.0442,2.0094,1.9907,1.9744,1.9656,1.9694,1.9796,1.9784,1.9758,1.9733,1.9669,1.9644,1.9681,1.9667,1.955,1.9484,1.9486,1.9525,1.9589,1.9667,1.9758,1.9936,1.9949,2.0001,2.009,2.0339,2.0515,2.0829,2.113,2.1419,2.1707,2.2146,2.2546,2.2859,2.3007,2.3083,2.3095,2.3095,2.3095,2.3095,2.2932,2.2757,2.2732,2.2669,2.2468,2.2408,1.8291,1.7766,1.774,1.8003,1.841,1.8716,1.9119,1.949,1.9556,1.9627,1.9813,1.9829,1.9824,1.9872,2.0047,2.032,2.0593,2.0866,2.1137,2.1286,2.1481,2.1382,2.1184,2.0889,2.064,1.9991,1.9394,1.8872,1.8364,1.8574,1.9059,1.9641,1.999,2.0284,2.0702,2.118,2.1626,2.1973,2.2024,2.1832,2.1274,2.055,2.0481,2.0581,2.0693,2.0693,2.0693,2.072,2.0436,2.0237,2.0757,2.0705,1.9948,2.0444,2.0812,1.9999,1.9854,1.9991,2.0141,2.0227,2.0544,2.0957,2.1371,2.1461,2.1587,2.1699,2.1594,2.1442,2.1003,2.0593,2.0248,1.9926,1.9713,1.9512,1.9653,1.9794,1.9756,1.9704,1.9628,1.9565,1.9564,1.9613,1.956,1.9417,1.9353,1.9393,1.948,1.9591,1.9672,1.9753,2.0046,2.025,2.0318,2.0397,2.0709,2.1054,2.134,2.1616,2.187,2.2182,2.2546,2.2759,2.2982,2.3058,2.3095,2.3095,2.3095,2.3095,2.307,2.292,2.2794,2.2732,2.2669,2.2518,2.2533,1.7141,1.7325,1.7336,1.762,1.7933,1.8043,1.8272,1.8571,1.8593,1.8873,1.9272,1.9338,1.9349,1.9387,1.9627,1.9818,1.9987,2.0199,2.029,2.06,2.0453,2.0282,1.9986,1.983,1.9475,1.9188,1.8808,1.8269,1.8427,1.8648,1.9047,1.9578,1.9774,1.9932,2.005,2.0518,2.0792,2.0652,2.0674,2.0555,2.0648,2.0235,1.9765,1.9966,2.0015,1.9998,2.0009,2.0009,1.9977,2.0161,2.0369,2.0444,2.0488,2.0184,2.0306,2.037,2.0213,2.0336,2.0567,2.0699,2.1012,2.1286,2.1488,2.1726,2.1922,2.2092,2.1979,2.1802,2.1403,2.1063,2.071,2.0322,2.002,1.9972,2.0078,2.0218,2.0266,2.0069,1.9749,1.9659,1.9504,1.9528,1.9405,1.9275,1.9209,1.9263,1.9325,1.9469,1.977,1.9856,2.0225,2.0598,2.0736,2.0917,2.1325,2.1641,2.1874,2.2124,2.2343,2.2531,2.2819,2.297,2.3083,2.3095,2.3095,2.3095,2.3095,2.3095,2.3095,2.3032,2.2907,2.2784,2.2684,2.2606,2.2669,1.7117,1.735,1.7697,1.7715,1.7547,1.7857,1.7835,1.7645,1.7631,1.8123,1.8753,1.8877,1.8877,1.8916,1.9012,1.9095,1.9107,1.9238,1.9167,1.9152,1.913,1.8982,1.8587,1.8577,1.8282,1.7797,1.7582,1.7861,1.8145,1.8535,1.8957,1.9327,1.9493,1.9496,1.9418,1.9858,1.9792,1.9507,1.9217,1.938,1.9678,1.9021,1.8459,1.8977,1.926,1.926,1.926,1.926,1.8938,1.8754,1.9183,1.9884,2.0807,2.0523,2.0679,2.0966,2.06,2.0633,2.084,2.1042,2.1299,2.1658,2.1892,2.2038,2.2199,2.2331,2.2308,2.2092,2.1818,2.1467,2.1137,2.0709,2.0383,2.0439,2.0508,2.0632,2.0769,2.0393,1.9979,1.971,1.9528,1.9394,1.9272,1.9207,1.9105,1.9078,1.9078,1.9273,1.9852,2.0145,2.0627,2.0982,2.1215,2.146,2.1901,2.2169,2.2339,2.2549,2.2769,2.2945,2.308,2.3095,2.3095,2.3095,2.3095,2.3095,2.3095,2.3095,2.3083,2.3058,2.3045,2.292,2.292,2.2895,2.292,1.7008,1.7205,1.7548,1.7544,1.7394,1.7587,1.7544,1.7325,1.7306,1.7587,1.8065,1.8272,1.8392,1.8383,1.8397,1.8195,1.8153,1.8249,1.8165,1.8016,1.7889,1.7724,1.7535,1.7477,1.7337,1.6998,1.732,1.7669,1.7917,1.821,1.8586,1.8797,1.8912,1.8921,1.8826,1.8884,1.8839,1.8487,1.8036,1.8202,1.8661,1.8056,1.7818,1.8334,1.8502,1.8536,1.8546,1.8553,1.8361,1.8286,1.8754,1.9513,2.0199,2.0132,2.0266,2.0542,2.0576,2.0567,2.0841,2.1097,2.1253,2.1401,2.1663,2.1565,2.1729,2.1866,2.2278,2.2073,2.1703,2.1353,2.1197,2.086,2.0594,2.0536,2.0635,2.0752,2.0874,2.0817,2.0296,1.9791,1.9598,1.9433,1.9382,1.9454,1.9412,1.9557,1.9471,1.9854,2.0312,2.0504,2.0972,2.1377,2.1608,2.2032,2.2527,2.2684,2.2759,2.2972,2.3065,2.3108,2.3093,2.3095,2.3095,2.3095,2.3095,2.3095,2.3095,2.3095,2.3095,2.3083,2.3083,2.307,2.3095,2.3095,2.307,1.6906,1.7064,1.7236,1.7317,1.7292,1.7264,1.7264,1.7253,1.7253,1.7222,1.7232,1.7629,1.7788,1.7819,1.7715,1.7444,1.7283,1.7306,1.7194,1.7074,1.7026,1.6965,1.6851,1.6667,1.6779,1.7008,1.7329,1.7458,1.7605,1.7944,1.8182,1.8109,1.81,1.8118,1.81,1.81,1.8109,1.7944,1.7686,1.7472,1.7441,1.7358,1.7571,1.7725,1.7828,1.7923,1.794,1.7957,1.7957,1.8226,1.8586,1.9243,1.9619,1.9684,1.99,2.0096,2.0162,2.014,2.03,2.0667,2.0536,2.05,2.0789,2.1024,2.1183,2.1518,2.1905,2.2002,2.163,2.1487,2.1341,2.123,2.0991,2.0865,2.0967,2.1027,2.1161,2.1224,2.0644,2.0029,1.9849,1.9665,1.9664,1.9746,1.9844,2.0001,2.0312,2.0817,2.1157,2.1158,2.1355,2.1734,2.2004,2.2489,2.2927,2.2945,2.2892,2.2915,2.2972,2.3047,2.3093,2.3108,2.3095,2.3095,2.3095,2.3108,2.3095,2.3095,2.3095,2.3095,2.3095,2.3095,2.3095,2.3095,2.3095,1.6962,1.7253,1.7292,1.7281,1.7256,1.7109,1.7053,1.7039,1.7006,1.6853,1.6616,1.6712,1.6849,1.6821,1.6442,1.625,1.6344,1.6339,1.6227,1.6084,1.6306,1.6389,1.6513,1.6661,1.6799,1.7018,1.7238,1.7431,1.7413,1.7807,1.8073,1.8018,1.8036,1.8027,1.8045,1.8018,1.7908,1.7705,1.7557,1.7399,1.737,1.7361,1.7365,1.7468,1.7573,1.7608,1.7632,1.7708,1.775,1.8012,1.8459,1.8927,1.9101,1.9211,1.9431,1.9582,1.9649,1.9677,1.9852,2.009,1.9949,1.9884,2.0193,2.0468,2.0696,2.1044,2.1467,2.194,2.1752,2.1888,2.1825,2.1855,2.1716,2.1716,2.1777,2.1777,2.1837,2.1554,2.1087,2.0757,2.0536,2.0382,2.0253,2.0325,2.0399,2.0527,2.0598,2.1079,2.144,2.1581,2.1723,2.2004,2.2298,2.2485,2.2714,2.279,2.2781,2.2833,2.2878,2.2984,2.3047,2.3108,2.3095,2.3063,2.3093,2.3093,2.3108,2.3078,2.3095,2.3095,2.3095,2.3095,2.3095,2.317,2.3233]},{"header":{"parameterUnit":"m.s-1","parameterCategory":1,"la1":31.0,"la2":29.5877,"lo1":-88.7671,"lo2":-86.6584,"dy":0.0162,"dx":0.0185,"nx":115,"ny":88,"refTime":"2023-10-03T12:00:00:Z","depth":0,"parameterNumber":3,"parameterNumberName":"V-component_of_WINDS"},"data":[0.0,0.0,0.0,0.0,0.0,0.0,0.0,0.0,0.0,0.0,0.0,0.0,0.0,0.0,0.0,0.0,0.0,0.0,0.0,0.0,0.0,0.0,0.0,0.0,0.0,0.0,0.0,0.0,0.0,0.0,0.0,0.0,0.0,0.0,0.0,0.0,0.0,0.0,0.0,0.0,0.0,0.0,0.0,0.0,0.0,0.0,0.0,0.0,0.0,0.0,0.0,0.0,0.0,0.0,0.0,0.0,0.0,0.0,0.0,0.0,0.0,0.0,0.0,0.0,0.0,0.0,0.0,0.0,0.0,0.0,0.0,0.0,0.0,0.0,0.0,0.0,0.0,0.0,0.0,0.0,0.0,0.0,0.0,0.0,0.0,0.0,0.0,0.0,0.0,0.0,0.0,0.0,0.0,0.0,0.0,0.0,0.0,0.0,0.0,0.0,0.0,0.0,0.0,0.0,0.0,0.0,0.0,0.0,0.0,0.0,0.0,0.0,0.0,0.0,0.0,0.0,0.0,0.0,0.0,0.0,0.0,0.0,0.0,0.0,0.0,0.0,0.0,0.0,0.0,0.0,0.0,0.0,0.0,0.0,0.0,0.0,0.0,0.0,0.0,0.0,0.0,0.0,0.0,0.0,0.0,0.0,0.0,0.0,0.0,0.0,0.0,0.0,0.0,0.0,0.0,0.0,0.0,0.0,0.0,0.0,0.0,0.0,0.0,0.0,0.0,0.0,0.0,0.0,0.0,0.0,0.0,0.0,0.0,0.0,0.0,0.0,0.0,0.0,0.0,0.0,0.0,0.0,0.0,0.0,0.0,0.0,0.0,0.0,0.0,0.0,0.0,0.0,0.0,0.0,0.0,0.0,0.0,0.0,0.0,0.0,0.0,0.0,0.0,0.0,0.0,0.0,0.0,0.0,0.0,0.0,0.0,0.0,0.0,0.0,0.0,0.0,0.0,0.0,0.0,0.0,0.0,0.0,0.0,0.0,0.0,0.0,0.0,0.0,0.0,0.0,0.0,0.0,0.0,0.0,0.0,0.0,0.0,0.0,0.0,0.0,0.0,0.0,0.0,0.0,0.0,0.0,0.0,0.0,0.0,0.0,0.0,0.0,0.0,0.0,0.0,0.0,0.0,0.0,0.0,0.0,0.0,0.0,0.0,0.0,0.0,0.0,0.0,0.0,0.0,0.0,0.0,0.0,0.0,0.0,0.0,0.0,0.0,0.0,0.0,0.0,0.0,0.0,0.0,0.0,0.0,0.0,0.0,0.0,0.0,0.0,0.0,0.0,0.0,0.0,0.0,0.0,0.0,0.0,0.0,0.0,0.0,0.0,0.0,0.0,0.0,0.0,0.0,0.0,0.0,0.0,0.0,0.0,0.0,0.0,0.0,0.0,0.0,0.0,0.0,0.0,0.0,0.0,0.0,0.0,0.0,0.0,0.0,0.0,0.0,0.0,0.0,0.0,0.0,0.0,0.0,0.0,0.0,0.0,0.0,0.0,0.0,0.0,0.0,0.0,0.0,0.0,0.0,0.0,0.0,0.0,0.0,0.0,0.0,0.0,0.0,0.0,0.0,0.0,0.0,0.0,0.0,0.0,0.0,0.0,0.0,0.0,0.0,0.0,0.0,0.0,0.0,0.0,0.0,0.0,0.0,0.0,0.0,0.0,0.0,0.0,0.0,0.0,0.0,0.0,0.0,0.0,0.0,0.0,0.0,0.0,0.0,0.0,0.0,0.0,0.0,0.0,0.0,0.0,0.0,0.0,0.0,0.0,0.0,0.0,0.0,0.0,0.0,0.0,0.0,0.0,0.0,0.0,0.0,0.0,0.0,0.0,0.0,0.0,0.0,0.0,0.0,0.0,0.0,0.0,0.0,0.0,0.0,0.0,0.0,0.0,0.0,0.0,0.0,0.0,0.0,0.0,0.0,0.0,0.0,0.0,0.0,0.0,0.0,0.0,0.0,0.0,0.0,0.0,0.0,0.0,0.0,0.0,0.0,0.0,0.0,0.0,0.0,0.0,0.0,0.0,0.0,0.0,0.0,0.0,0.0,0.0,0.0,0.0,0.0,0.0,0.0,0.0,0.0,0.0,0.0,0.0,0.0,0.0,0.0,0.0,0.0,0.0,0.0,0.0,0.0,0.0,0.0,0.0,0.0,0.0,0.0,0.0,0.0,0.0,0.0,0.0,0.0,0.0,0.0,0.0,0.0,0.0,0.0,0.0,0.0,0.0,0.0,0.0,0.0,0.0,0.0,0.0,0.0,0.0,0.0,0.0,0.0,0.0,0.0,0.0,0.0,0.0,0.0,0.0,0.0,0.0,0.0,0.0,0.0,0.0,0.0,0.0,0.0,0.0,0.0,0.0,0.0,0.0,0.0,0.0,0.0,0.0,0.0,0.0,0.0,0.0,0.0,0.0,0.0,0.0,0.0,0.0,0.0,0.0,0.0,0.0,0.0,0.0,0.0,0.0,0.0,0.0,0.0,0.0,0.0,0.0,0.0,0.0,0.0,0.0,0.0,0.0,0.0,0.0,0.0,0.0,0.0,0.0,0.0,0.0,0.0,0.0,0.0,0.0,0.0,0.0,0.0,0.0,0.0,0.0,0.0,0.0,0.0,0.0,0.0,0.0,0.0,0.0,0.0,0.0,0.0,0.0,0.0,0.0,0.0,0.0,0.0,0.0,0.0,0.0,0.0,0.0,0.0,0.0,0.0,0.0,0.0,0.0,0.0,0.0,0.0,0.0,0.0,0.0,0.0,0.0,0.0,0.0,0.0,0.0,0.0,0.0,0.0,0.0,0.0,0.0,0.0,0.0,0.0,0.0,0.0,0.0,0.0,0.0,0.0,0.0,0.0,0.0,0.0,0.0,0.0,0.0,0.0,0.0,0.0,0.0,0.0,0.0,0.0,0.0,0.0,0.0,0.0,0.0,0.0,0.0,0.0,0.0,0.0,0.0,0.0,0.0,0.0,0.0,0.0,0.0,0.0,0.0,0.0,0.0,0.0,0.0,0.0,0.0,0.0,0.0,0.0,0.0,0.0,0.0,0.0,0.0,0.0,0.0,0.0,0.0,0.0,0.0,0.0,0.0,0.0,0.0,0.0,0.0,0.0,0.0,0.0,0.0,0.0,0.0,0.0,0.0,0.0,0.0,0.0,0.0,0.0,0.0,0.0,0.0,0.0,0.0,0.0,0.0,0.0,0.0,0.0,0.0,0.0,0.0,0.0,0.0,0.0,0.0,0.0,0.0,0.0,0.0,0.0,0.0,0.0,0.0,0.0,0.0,0.0,0.0,0.0,0.0,0.0,0.0,0.0,0.0,0.0,0.0,0.0,0.0,0.0,0.0,0.0,0.0,0.0,0.0,0.0,0.0,0.0,0.0,0.0,0.0,0.0,0.0,0.0,0.0,0.0,0.0,0.0,0.0,0.0,0.0,0.0,0.0,0.0,0.0,0.0,0.0,0.0,0.0,0.0,0.0,0.0,0.0,0.0,0.0,0.0,0.0,0.0,0.0,0.0,0.0,0.0,0.0,0.0,0.0,0.0,0.0,0.0,0.0,0.0,0.0,0.0,0.0,0.0,0.0,0.0,0.0,0.0,0.0,0.0,0.0,0.0,0.0,0.0,0.0,0.0,0.0,0.0,0.0,0.0,0.0,0.0,0.0,0.0,0.0,0.0,0.0,0.0,0.0,0.0,0.0,0.0,0.0,0.0,0.0,0.0,0.0,0.0,0.0,0.0,0.0,0.0,0.0,0.0,0.0,0.0,0.0,0.0,0.0,0.0,0.0,0.0,0.0,0.0,0.0,0.0,0.0,0.0,0.0,0.0,0.0,0.0,0.0,0.0,0.0,0.0,0.0,0.0,0.0,0.0,0.0,0.0,0.0,0.0,0.0,0.0,0.0,0.0,0.0,0.0,0.0,0.0,0.0,0.0,0.0,0.0,0.0,0.0,0.0,0.0,0.0,0.0,0.0,0.0,0.0,0.0,0.0,0.0,0.0,0.0,0.0,0.0,0.0,0.0,0.0,0.0,0.0,0.0,0.0,0.0,0.0,0.0,0.0,0.0,0.0,0.0,0.0,0.0,0.0,0.0,0.0,0.0,0.0,0.0,0.0,0.0,0.0,0.0,0.0,0.0,0.0,0.0,0.0,0.0,0.0,0.0,0.0,0.0,0.0,0.0,0.0,0.0,0.0,0.0,0.0,0.0,0.0,0.0,0.0,0.0,0.0,0.0,0.0,0.0,0.0,0.0,0.0,0.0,0.0,0.3311,0.0,0.0,0.0,0.0,0.0,0.0,0.0,0.0,0.0,0.0,0.0,0.0,0.0,0.0,0.0,0.0,0.0,0.0,0.0,0.0,0.0,0.0,0.0,0.0,0.0,0.0,0.0,0.0,0.0,0.0,0.0,0.0,0.0,0.0,0.0,0.0,0.0,0.0,0.0,0.0,0.0,0.0,0.0,0.0,0.0,0.0,0.0,0.0,0.0,0.0,0.0,0.0,0.0,0.0,0.0,0.0,0.0,0.0,0.0,0.0,0.0,0.0,0.0,0.0,0.0,0.0,0.0,0.0,0.0,0.0,0.0,0.0,0.0,0.0,0.0,0.0,0.0,0.0,0.0,0.0,0.0,0.0,0.0,0.0,0.0,0.0,0.0,0.0,0.0,0.0,0.0,0.0,0.0,0.0,0.0,0.0,0.0,0.0,0.0,0.0,0.0,0.0,0.0,0.0,0.0,0.0,0.0,0.0,0.0,0.0,0.3376,0.356,0.3113,0.3072,0.3541,0.0,0.0,0.0,0.0,0.0,0.0,0.0,0.0,0.0,0.0,0.0,0.0,0.0,0.0,0.0,0.0,0.0,0.0,0.0,0.0,0.0,0.0,0.0,0.0,0.0,0.0,0.0,0.0,0.0,0.0,0.0,0.0,0.0,0.0,0.0,0.0,0.0,0.0,0.0,0.0,0.0,0.0,0.0,0.0,0.0,0.0,0.0,0.0,0.0,0.0,0.0,0.0,0.0,0.0,0.0,0.0,0.0,0.0,0.0,0.0,0.0,0.0,0.0,0.0,0.0,0.0,0.0,0.0,0.0,0.0,0.0,0.0,0.0,0.0,0.0,0.0,0.0,0.0,0.0,0.0,0.0,0.0,0.0,0.0,0.0,0.0,0.0,0.0,0.0,0.0,0.0,0.0,0.0,0.0,0.0,0.0,0.0,0.0,0.0,0.0,0.0,0.0,0.0,0.0,0.0,0.0,0.0,0.0,0.0,0.0,0.0,0.0,0.3257,0.3144,0.3558,0.0,0.0,0.0,0.0,0.0,0.0,0.0,0.0,0.0,0.0,0.0,0.0,0.0,0.0,0.0,0.0,0.0,0.0,0.0,0.0,0.0,0.0,0.0,0.0,0.0,0.0,0.0,0.0,0.0,0.0,0.0,0.0,0.0,0.0,0.0,0.0,0.0,0.0,0.0,0.0,0.0,0.0,0.0,0.0,0.0,0.0,0.0,0.0,0.0,0.0,0.0,0.0,0.0,0.0,0.0,0.0,0.0,0.0,0.0,0.0,0.0,0.0,0.0,0.0,0.0,0.0,0.0,0.0,0.0,0.0,0.0,0.0,0.0,0.0,0.0,0.0,0.0,0.0,0.0,0.0,0.0,0.0,0.0,0.0,0.0,0.0,0.0,0.0,0.0,0.0,0.0,0.0,0.0,0.0,0.0,0.0,0.0,0.0,0.0,0.0,0.0,0.0,0.0,0.0,0.0,0.0,0.0,0.0,0.0,0.0,0.3302,0.3524,0.3293,0.0,0.3447,0.0,0.0,0.0,0.0,0.0,0.0,0.0,0.0,0.0,0.0,0.0,0.0,0.0,0.0,0.0,0.0,0.0,0.0,0.0,0.0,0.0,0.0,0.0,0.0,0.0,0.0,0.0,0.0,0.0,0.0,0.0,0.0,0.0,0.0,0.0,0.0,0.0,0.0,0.0,0.0,0.0,0.0,0.0,0.0,0.0,0.0,0.0,0.0,0.0,0.0,0.0,0.0,0.0,0.0,0.0,0.0,0.0,0.0,0.0,0.0,0.0,0.0,0.0,0.0,0.0,0.0,0.0,0.0,0.0,0.0,0.0,0.0,0.0,0.0,0.0,0.0,0.0,0.0,0.0,0.0,0.0,0.0,0.0,0.0,0.0,0.0,0.0,0.0,0.0,0.0,0.0,0.0,0.0,0.0,0.0,0.0,0.0,0.0,0.0,0.0,0.0,0.0,0.0,0.0,0.0,0.0,0.0,0.0,0.0,0.0,0.3253,0.3606,0.3614,0.3524,0.0,0.0,0.0,0.0,0.0,0.0,0.0,0.0,0.0,0.0,0.0,0.0,0.0,0.0,0.0,0.0,0.0,0.0,0.0,0.0,0.0,0.0,0.0,0.0,0.0,0.0,0.0,0.0,0.0,0.0,0.0,0.0,0.0,0.0,0.0,0.0,0.0,0.0,0.0,0.0,0.0,0.0,0.0,0.0,0.0,0.0,0.0,0.0,0.0,0.0,0.0,0.0,0.0,0.0,0.0,0.0,0.0,0.0,0.0,0.0,0.0,0.0,0.0,0.0,0.0,0.0,0.0,0.0,0.0,0.0,0.0,0.0,0.0,0.0,0.0,0.0,0.0,0.0,0.0,0.0,0.0,0.0,0.0,0.0,0.0,0.0,0.0,0.0,0.0,0.0,0.0,0.0,0.0,0.0,0.0,0.0,0.0,0.0,0.0,0.0,0.0,0.0,0.0,0.0,0.0,0.0,0.0,0.0,0.0,0.0,0.2932,0.3063,0.3563,0.366,0.3608,0.3399,0.0,0.0,0.0,0.0,0.0,0.0,0.0,0.0,0.0,0.0,0.0,0.0,0.0,0.0,0.0,0.0,0.0,0.0,0.0,0.0,0.0,0.0,0.0,0.0,0.0,0.0,0.0,0.0,0.0,0.0,0.0,0.0,0.0,0.0,0.0,0.0,0.0,0.0,0.0,0.0,0.0,0.0,0.0,0.0,0.0,0.0,0.0,0.0,0.0,0.0,0.0,0.0,0.0,0.0,0.0,0.0,0.0,0.0,0.0,0.0,0.0,0.0,0.0,0.0,0.0,0.0,0.0,0.0,0.0,0.0,0.0,0.0,0.0,0.0,0.0,0.0,0.0,0.0,0.0,0.0,0.0,0.0,0.0,0.0,0.0,0.0,0.0,0.0,0.0,0.0,0.0,0.0,0.0,0.0,0.0,0.0,0.0,0.0,0.0,0.0,0.0,0.0,0.0,0.0,0.0,0.0,0.0,0.0,0.2983,0.2576,0.2642,0.327,0.3263,0.3428,0.0,0.0,0.0,0.0,0.0,0.0,0.0,0.0,0.0,0.0,0.0,0.0,0.0,0.0,0.0,0.0,0.0,0.0,0.0,0.0,0.0,0.0,0.0,0.0,0.0,0.0,0.0,0.0,0.0,0.0,0.0,0.0,0.0,0.0,0.0,0.0,0.0,0.0,0.0,0.0,0.0,0.0,0.0,0.0,0.0,0.0,0.0,0.0,0.0,0.0,0.0,0.0,0.0,0.0,0.0,0.0,0.0,0.0,0.0,0.0,0.0,0.0,0.0,0.0,0.0,0.0,0.0,0.0,0.0,0.0,0.0,0.0,0.0,0.0,0.0,0.0,0.0,0.0,0.0,0.0,0.0,0.0,0.0,0.0,0.0,0.0,0.0,0.0,0.0,0.0,0.0,0.0,0.0,0.0,0.0,0.0,0.0,0.0,0.0,0.0,0.0,0.0,0.0,0.0,0.0,0.0,0.0,0.0,0.0,0.2443,0.2353,0.2382,0.2598,0.2986,0.3282,0.0,0.0,0.0,0.0,0.0,0.0,0.0,0.0,0.0,0.0,0.0,0.0,0.0,0.0,0.0,0.0,0.0,0.0,0.0,0.0,0.0,0.0,0.0,0.0,0.0,0.0,0.0,0.0,0.0,0.0,0.0,0.0,0.0,0.0,0.0,0.0,0.0,0.0,0.0,0.0,0.0,0.0,0.0,0.0,0.0,0.0,0.0,0.0,0.0,0.0,0.0,0.0,0.0,0.0,0.0,0.0,0.0,0.0,0.0,0.0,0.0,0.0,0.0,0.0,0.0,0.0,0.0,0.0,0.0,0.0,0.0,0.0,0.0,0.0,0.0,0.0,0.0,0.0,0.0,0.0,0.0,0.0,0.0,0.0,0.0,0.0,0.0,0.0,0.0,0.0,0.0,0.0,0.0,0.0,0.0,0.0,0.0,0.0,0.0,0.0,0.0,0.0,0.0,0.0,0.0,0.0,0.0,0.0,0.0,0.2206,0.0,0.246,0.2531,0.3062,0.3413,0.0,0.0,0.0,0.0,0.0,0.0,0.0,0.0,0.0,0.0,0.0,0.0,0.0,0.0,0.0,0.0,0.0,0.0,0.0,0.0,0.0,0.0,0.0,0.0,0.0,0.0,0.0,0.0,0.0,0.0,0.0,0.0,0.0,0.0,0.0,0.0,0.0,0.0,0.0,0.0,0.0,0.0,0.0,0.0,0.0,0.0,0.0,0.0,0.0,0.0,0.0,0.0,0.0,0.0,0.0,0.0,0.0,0.0,0.0,0.0,0.0,0.0,0.0,0.0,0.0,0.0,0.0,0.0,0.0,0.0,0.0,0.0,0.0,0.0,0.0,0.0,0.0,0.0,0.0,0.0,0.0,0.0,0.0,0.0,0.0,0.0,0.0,0.0,0.0,0.0,0.0,0.0,0.0,0.0,0.0,0.0,0.0,0.0,0.0,0.0,0.0,0.0,0.0,0.0,0.0,0.0,0.0,0.0,0.2159,0.2398,0.2575,0.2808,0.3179,0.3482,0.3836,0.0,0.0,0.0,0.0,0.0,0.0,0.0,0.0,0.0,0.0,0.0,0.0,0.0,0.0,0.0,0.0,0.0,0.0,0.0,0.0,0.0,0.0,0.0,0.0,0.0,0.0,0.0,0.0,0.0,0.0,0.0,0.0,0.0,0.0,0.0,0.0,0.0,0.0,0.0,0.0,0.0,0.0,0.0,0.0,0.0,0.0,0.0,0.0,0.0,0.0,0.0,0.0,0.0,0.0,0.0,0.0,0.0,0.0,0.0,0.0,0.0,0.0,0.0,0.0,0.0,0.0,0.0,0.0,0.0,0.0,0.0,0.0,0.0,0.0,0.0,0.0,0.0,0.0,0.0,0.0,0.0,0.0,0.0,0.0,0.0,0.0,0.0,0.0,0.0,0.0,0.0,0.0,0.0,0.0,0.0,0.0,0.0,0.0,0.0,0.0,0.0,0.0,0.0,0.0,0.0,0.0,0.0,0.0,0.0,0.2474,0.2396,0.2518,0.2839,0.3082,0.3392,0.0,0.0,0.0,0.0,0.0,0.0,0.0,0.0,0.0,0.0,0.0,0.0,0.0,0.0,0.0,0.0,0.0,0.0,0.0,0.0,0.0,0.0,0.0,0.0,0.0,0.0,0.0,0.0,0.0,0.0,0.0,0.0,0.0,0.0,0.0,0.0,0.0,0.0,0.0,0.0,0.0,0.0,0.0,0.0,0.0,0.0,0.0,0.0,0.0,0.0,0.0,0.0,0.0,0.0,0.0,0.0,0.0,0.0,0.0,0.0,0.0,0.0,0.0,0.0,0.0,0.0,0.0,0.0,0.0,0.0,0.0,0.0,0.0,0.0,0.0,0.0,0.0,0.0,0.0,0.0,0.0,0.0,0.0,0.0,0.0,0.0,0.0,0.0,0.0,0.0,0.0,0.0,0.0,0.0,0.0,0.0,0.0,0.0,0.0,0.0,0.0,0.0,0.0,0.0,0.0,0.0,0.0,0.0,0.0,0.3325,0.3045,0.2991,0.317,0.3323,0.3553,0.3886,0.0,0.0,0.0,0.0,0.0,0.0,0.0,0.0,0.0,0.0,0.0,0.0,0.0,0.0,0.0,0.0,0.0,0.0,0.0,0.0,0.0,0.0,0.0,0.0,0.0,0.0,0.0,0.0,0.0,0.0,0.0,0.0,0.0,0.0,0.0,0.0,0.0,0.0,0.0,0.0,0.0,0.0,0.0,0.0,0.0,0.0,0.0,0.0,0.0,0.0,0.0,0.0,0.0,0.0,0.0,0.0,0.0,0.0,0.0,0.0,0.0,0.0,0.0,0.0,0.0,0.0,0.0,0.0,0.0,0.0,0.0,0.0,0.0,0.0,0.0,0.0,0.0,0.0,0.0,0.0,0.0,0.0,0.0,0.0,0.0,0.0,0.0,0.0,0.0,0.0,0.0,0.0,0.0,0.0,0.0,0.0,0.0,0.0,0.0,0.0,0.0,0.0,0.0,0.0,0.0,0.0,0.0,0.0,0.4754,0.4448,0.4229,0.4079,0.4096,0.4227,0.0,0.0,0.0,0.0,0.0,0.0,0.0,0.0,0.0,0.0,0.0,0.0,0.0,0.0,0.0,0.0,0.0,0.0,0.0,0.0,0.0,0.0,0.0,0.0,0.0,0.0,0.0,0.0,0.0,0.0,0.0,0.0,0.0,0.0,0.0,0.0,0.0,0.0,0.0,0.0,0.0,0.0,0.0,0.0,0.0,0.0,0.0,0.0,0.0,0.0,0.0,0.0,0.0,0.0,0.0,0.0,0.0,0.0,0.0,0.0,0.0,0.0,0.0,0.0,0.0,0.0,0.0,0.0,0.0,0.0,0.0,0.0,0.0,0.0,0.0,0.0,0.0,0.0,0.0,0.0,0.0,0.0,0.0,0.0,0.0,0.0,0.0,0.0,0.0,0.0,0.0,0.0,0.0,0.0,0.0,0.0,0.0,0.0,0.0,0.0,0.0,0.0,0.0,0.0,0.0,0.0,0.0,0.0,0.0,0.545,0.606,0.5969,0.5142,0.4646,0.4562,0.0,0.0,0.0,0.0,0.0,0.0,0.0,0.0,0.0,0.0,0.0,0.0,0.0,0.0,0.0,0.0,0.0,0.0,0.0,0.0,0.0,0.0,0.0,0.0,0.0,0.0,0.0,0.0,0.0,0.0,0.0,0.0,0.0,0.0,0.0,0.0,0.0,0.0,0.0,0.0,0.0,0.0,0.0,0.0,0.0,0.0,0.0,0.0,0.0,0.0,0.0,0.0,0.0,0.0,0.0,0.0,0.0,0.0,0.0,0.0,0.0,0.0,0.0,0.0,0.0,0.0,0.0,0.0,0.0,0.0,0.0,0.0,0.0,0.0,0.0,0.0,0.0,0.0,0.0,0.0,0.0,0.0,0.0,0.0,0.0,0.0,0.0,0.0,0.0,0.0,0.0,0.0,0.0,0.0,0.0,0.0,0.0,0.0,0.0,0.0,0.0,0.0,0.0,0.0,0.0,0.0,0.0,0.0,0.5675,0.6068,0.6978,0.7209,0.6686,0.595,0.5503,0.0,0.0,0.0,0.0,0.0,0.0,0.0,0.0,0.0,0.0,0.0,0.0,0.0,0.0,0.0,0.0,0.0,0.0,0.0,0.0,0.0,0.0,0.0,0.0,0.0,0.0,0.0,0.0,0.0,0.0,0.0,0.0,0.0,0.0,0.0,0.0,0.0,0.0,0.0,0.0,0.0,0.0,0.0,0.0,0.0,0.0,0.0,0.0,0.0,0.0,0.0,0.0,0.0,0.0,0.0,0.0,0.0,0.0,0.0,0.0,0.0,0.0,0.0,0.0,0.0,0.0,0.0,0.0,0.0,0.0,0.0,0.0,0.0,0.0,0.0,0.0,0.0,0.0,0.0,0.0,0.0,0.0,0.0,0.0,0.0,0.0,0.0,0.0,0.0,0.0,0.0,0.0,0.0,0.0,0.0,0.0,0.0,0.0,0.0,0.0,0.0,0.0,0.0,0.0,0.0,0.0,0.0,0.0,0.5831,0.6641,0.7435,0.7979,0.8219,0.7458,0.6725,0.0,0.0,0.0,0.0,0.0,0.0,0.0,0.0,0.0,0.0,0.0,0.0,0.0,0.0,0.0,0.0,0.0,0.0,0.0,0.0,0.0,0.0,0.0,0.0,0.0,0.0,0.0,0.0,0.0,0.0,0.0,0.0,0.0,0.0,0.0,0.0,0.0,0.0,0.0,0.0,0.0,0.0,0.0,0.0,0.0,0.0,0.0,0.0,0.0,0.0,0.0,0.0,0.0,0.0,0.0,0.0,0.0,0.0,0.0,0.0,0.0,0.0,0.0,0.0,0.0,0.0,0.0,0.0,0.0,0.0,0.0,0.0,0.0,0.0,0.0,0.0,0.0,0.0,0.0,0.0,0.0,0.0,0.0,0.0,0.0,0.0,0.0,0.0,0.0,0.0,0.0,0.0,0.0,0.0,0.0,0.0,0.0,0.0,0.0,0.0,0.0,0.0,0.0,0.0,0.0,0.0,0.0,0.0,0.646,0.7062,0.7807,0.8121,0.7991,0.7457,0.7151,0.0,0.0,0.0,0.0,0.0,0.0,0.0,0.0,0.0,0.0,0.0,0.0,0.0,0.0,0.0,0.0,0.0,0.0,0.0,0.0,0.0,0.0,0.0,0.0,0.0,0.0,0.0,0.0,0.0,0.0,0.0,0.0,0.0,0.0,0.0,0.0,0.0,0.0,0.0,0.0,0.0,0.0,0.0,0.0,0.0,0.0,0.0,0.0,0.9435,0.0,0.0,0.0,0.0,0.0,0.0,0.0,0.0,0.0,0.0,0.0,0.0,0.0,0.0,0.0,0.0,0.0,0.0,0.0,0.0,0.0,0.0,0.0,0.0,0.0,0.0,0.0,0.0,0.0,0.0,0.0,0.0,0.0,0.0,0.0,0.0,0.0,0.0,0.0,0.0,0.0,0.0,0.0,0.0,0.0,0.0,0.0,0.0,0.0,0.0,0.0,0.0,0.0,0.0,0.0,0.0,0.0,0.0,0.0,0.6611,0.7024,0.7857,0.8225,0.8075,0.7668,0.7412,0.0,0.0,0.0,0.0,0.0,0.0,0.0,0.0,0.0,0.0,0.0,0.0,0.0,0.0,0.0,0.0,0.0,0.0,0.0,0.0,0.0,0.0,0.0,0.0,0.0,0.0,0.0,0.0,0.0,0.0,0.0,0.0,0.0,0.0,0.0,0.0,0.0,0.0,0.0,0.0,0.0,0.0,0.0,0.0,0.0,0.0,0.0,0.0,0.0,0.0,0.0,0.0,0.0,0.0,0.0,0.0,0.0,0.0,0.0,0.0,0.0,0.0,0.0,0.0,0.0,0.0,0.0,0.0,0.0,0.0,0.0,0.0,0.0,0.0,0.0,0.0,0.0,0.0,0.0,0.0,0.0,0.0,0.0,0.0,0.0,0.0,0.0,0.0,0.0,0.0,0.0,0.0,0.0,0.0,0.0,0.0,0.0,0.0,0.0,0.0,0.0,0.0,0.0,0.0,0.0,0.0,0.0,0.5955,0.6487,0.6861,0.7744,0.8193,0.8187,0.7841,0.7455,0.712,0.0,0.0,0.0,0.0,0.0,0.0,0.0,0.0,0.0,0.0,0.0,0.0,0.0,0.0,0.0,0.0,0.0,0.0,0.0,0.0,0.0,0.0,0.0,0.0,0.0,0.0,0.0,0.0,0.0,0.0,0.0,0.0,0.0,0.0,0.0,0.0,0.0,0.0,0.7214,0.8417,0.0,0.0,0.0,0.0,0.0,0.0,0.0,0.0,0.9854,0.0,0.0,0.0,0.0,0.0,0.0,0.0,0.0,0.0,0.0,0.0,0.0,0.0,0.0,0.0,0.0,0.0,0.0,0.0,0.0,0.0,0.0,0.0,0.0,0.0,0.0,0.0,0.0,0.0,0.0,0.0,0.0,0.0,0.0,0.0,0.0,0.0,0.0,0.0,0.0,0.0,0.0,0.0,0.0,0.0,0.0,0.0,0.0,0.0,0.0,0.0,0.0,0.0,0.0,0.0,0.0,0.5529,0.577,0.6282,0.7109,0.751,0.7716,0.771,0.7493,0.7281,0.7096,0.0,0.0,0.0,0.0,0.0,0.0,0.0,0.0,0.0,0.0,0.0,0.0,0.0,0.0,0.0,0.0,0.0,0.0,0.0,0.0,0.0,0.0,0.0,0.0,0.0,0.0,0.0,0.0,0.0,0.0,0.0,0.0,0.0,0.0,0.0,0.0,0.0,0.0,0.0,0.8609,0.9408,0.0,0.0,0.0,0.0,0.0,0.0,0.0,0.0,1.1,0.0,0.0,0.0,0.0,0.0,0.0,0.0,0.0,0.0,0.0,0.0,0.0,0.0,0.0,0.0,0.0,0.0,0.0,0.0,0.0,0.0,0.0,0.0,0.0,0.0,0.0,0.0,0.0,0.0,0.0,0.0,0.0,0.0,0.0,0.0,0.0,0.0,0.0,0.0,0.0,0.0,0.0,0.0,0.0,0.0,0.0,0.0,0.0,0.0,0.0,0.0,0.0,0.0,0.0,0.0,0.5784,0.5861,0.6262,0.6964,0.7297,0.7444,0.7438,0.7347,0.7267,0.0,0.0,0.0,0.0,0.0,0.0,0.0,0.0,0.0,0.0,0.0,0.0,0.0,0.0,0.0,0.0,0.0,0.0,0.0,0.0,0.0,0.0,0.0,0.0,0.0,0.0,0.0,0.0,0.0,0.0,0.0,0.0,0.0,0.0,0.0,0.0,0.0,0.0,0.0,0.0,0.9285,0.9459,0.9941,0.0,0.0,0.0,0.0,0.0,0.0,1.1078,1.1507,0.0,0.0,0.0,0.0,0.0,0.0,0.0,0.0,0.0,0.0,0.0,0.0,0.0,0.0,0.0,0.0,0.0,0.0,0.0,0.0,0.0,0.0,0.0,0.0,0.0,0.0,0.0,0.0,0.0,0.0,0.0,0.0,0.0,0.0,0.0,0.0,0.0,0.0,0.0,0.0,0.0,0.0,0.0,0.0,0.0,0.0,0.0,0.0,0.0,0.0,0.0,0.0,0.0,0.0,0.0,0.5996,0.5962,0.6235,0.6843,0.7123,0.7258,0.7258,0.7294,0.7269,0.0,0.0,0.0,0.0,0.0,0.0,0.0,0.0,0.0,0.0,0.0,0.0,0.0,0.0,0.0,0.0,0.0,0.0,0.0,0.0,0.0,0.0,0.0,0.0,0.0,0.0,0.0,0.0,0.0,0.0,0.0,0.0,0.0,0.0,0.0,0.0,0.0,0.0,0.0,0.0,0.0,0.9761,1.0182,1.0489,0.0,0.0,0.0,0.0,1.0755,1.17,0.0,0.0,0.0,0.0,0.0,0.0,0.0,0.0,0.0,0.0,0.0,0.0,0.0,0.0,0.0,0.0,0.0,0.0,0.0,0.0,0.0,0.0,0.0,0.0,0.0,0.0,0.0,0.0,0.0,0.0,0.0,0.0,0.0,0.0,0.0,0.0,0.0,0.0,0.0,0.0,0.0,0.0,0.0,0.0,0.0,0.0,0.0,0.0,0.0,0.0,0.0,0.0,0.0,0.0,0.0,0.0,0.6058,0.5779,0.6122,0.701,0.7108,0.7116,0.7127,0.7236,0.7183,0.0,0.0,0.0,0.0,0.0,0.0,0.0,0.0,0.0,0.0,0.0,0.0,0.0,0.0,0.0,0.0,0.0,0.0,0.0,0.0,0.0,0.0,0.0,0.0,0.0,0.0,0.0,0.0,0.0,0.0,0.0,0.0,0.0,0.0,0.0,0.0,0.0,0.0,0.0,0.0,0.0,1.0606,1.123,1.0976,1.0872,0.0,0.0,1.0635,1.1295,1.2394,0.0,0.0,0.0,0.0,0.0,0.0,0.0,0.0,0.0,0.0,0.0,0.0,0.0,0.0,0.0,0.0,0.0,0.0,0.0,0.0,0.0,0.0,0.0,0.0,0.0,0.0,0.0,0.0,0.0,0.0,0.0,0.0,0.0,0.0,0.0,0.0,0.0,0.0,0.0,0.0,0.0,0.0,0.0,0.0,0.0,0.0,0.0,0.0,0.0,0.0,0.0,0.0,0.0,0.0,0.0,0.6044,0.6307,0.6119,0.6286,0.6846,0.6941,0.6995,0.6995,0.7091,0.7197,0.0,0.0,0.0,0.0,0.0,0.0,0.0,0.0,0.0,0.0,0.0,0.0,0.0,0.0,0.0,0.0,0.0,0.0,0.0,0.0,0.0,0.0,0.0,0.0,0.0,0.0,0.0,0.0,0.0,0.0,0.0,0.0,0.0,0.0,0.0,0.0,0.0,0.0,0.0,0.0,0.0,0.0,1.0899,1.1195,0.0,0.0,0.0,1.1473,1.2274,0.0,0.0,0.0,0.0,0.0,0.0,0.0,0.0,0.0,0.0,0.0,0.0,0.0,0.0,0.0,0.0,0.0,0.0,0.0,0.0,0.0,0.0,0.0,0.0,0.0,0.0,0.0,0.0,0.0,0.0,0.0,0.0,0.0,0.0,0.0,0.0,0.0,0.0,0.0,0.0,0.0,0.0,0.0,0.0,0.0,0.0,0.0,0.0,0.0,0.0,0.0,0.0,0.0,0.0,0.0,0.0,0.0,0.6556,0.6517,0.6592,0.6781,0.6861,0.6935,0.6925,0.6985,0.0,0.0,0.0,0.0,0.0,0.0,0.0,0.0,0.0,0.0,0.0,0.0,0.0,0.0,0.0,0.0,0.0,0.0,0.0,0.0,0.0,0.0,0.0,0.0,0.0,0.0,0.0,0.728,0.0,0.0,0.0,0.0,0.0,0.0,0.0,0.0,0.0,0.0,0.0,0.0,0.0,0.0,1.085,1.1018,1.1749,1.2288,0.0,0.0,1.2352,1.3031,1.273,1.2423,0.0,0.0,0.0,0.0,0.0,0.0,0.0,0.0,0.0,0.0,0.0,0.0,0.0,0.0,0.0,0.0,0.0,0.0,0.0,0.0,0.0,0.0,0.0,0.0,0.0,0.0,0.0,0.0,0.0,0.0,0.0,0.0,0.0,0.0,0.0,0.0,0.0,0.0,0.0,0.0,0.0,0.0,0.0,0.0,0.0,0.0,0.0,0.0,0.0,0.0,0.0,0.0,0.0,0.0,0.674,0.6689,0.6922,0.7018,0.6976,0.6989,0.6985,0.6985,0.7,0.7231,0.0,0.0,0.0,0.0,0.0,0.0,0.0,0.0,0.0,0.0,0.0,0.0,0.0,0.0,0.0,0.0,0.0,0.0,0.0,0.0,0.0,0.0,0.0,0.0,0.0,0.0,0.0,0.0,0.0,0.0,0.0,0.0,0.0,0.0,0.0,0.0,0.0,0.0,0.0,0.0,0.0,1.1844,1.2472,1.2916,1.3332,0.0,1.3444,1.3215,1.3264,1.3247,1.2984,1.2262,0.0,0.0,0.0,0.0,0.0,0.0,0.0,0.0,0.0,0.0,0.0,0.0,0.0,0.0,0.0,0.0,0.0,0.0,0.0,0.0,0.0,0.0,0.0,0.0,0.0,0.0,0.0,0.0,0.0,0.0,0.0,0.0,0.0,0.0,0.0,0.0,0.0,0.0,0.0,0.0,0.0,0.0,0.0,0.0,0.0,0.0,0.0,0.0,0.0,0.0,0.0,0.0,0.0,0.7217,0.7206,0.7371,0.7565,0.7793,0.8078,0.8097,0.7811,0.8078,0.8361,0.0,0.0,0.0,0.0,0.0,0.0,0.0,0.0,0.0,0.0,0.0,0.0,0.0,0.0,0.0,0.0,0.0,0.0,0.0,0.0,0.0,0.0,0.0,0.0,0.0,0.0,0.0,0.0,0.7849,0.8167,0.8823,0.0,0.0,0.0,0.0,0.0,0.0,0.0,0.0,0.0,0.0,1.209,1.2846,1.3145,0.0,0.0,1.3979,1.403,1.4037,1.3207,1.2633,1.2818,1.256,0.0,0.0,0.0,0.0,0.0,0.0,0.0,0.0,0.0,0.0,0.0,0.0,0.0,0.0,0.0,0.0,0.0,0.0,0.0,0.0,0.0,0.0,0.0,0.0,0.0,0.0,0.0,0.0,0.0,0.0,0.0,0.0,0.0,0.0,0.0,0.0,0.0,0.0,0.0,0.0,0.0,0.0,0.0,0.0,0.0,0.0,0.0,0.0,0.0,0.0,0.0,0.0,0.7838,0.7703,0.7962,0.8144,0.8296,0.8752,0.8768,0.8338,0.8765,0.9065,0.0,0.0,0.0,0.0,0.0,0.0,0.0,0.0,0.0,0.0,0.0,0.0,0.0,0.0,0.0,0.0,0.0,0.0,0.0,0.0,0.0,0.0,0.0,0.0,0.0,0.0,0.0,0.0,0.8264,0.8656,0.9365,0.0,0.0,0.0,0.0,0.0,0.0,0.0,0.0,0.0,0.0,1.2476,1.3064,1.3442,1.3763,1.4029,1.4304,1.4462,1.4346,1.3508,1.2954,1.3129,0.0,0.0,0.0,0.0,0.0,0.0,0.0,0.0,0.0,0.0,0.0,0.0,0.0,0.0,0.0,0.0,0.0,0.0,0.0,0.0,0.0,0.0,0.0,0.0,0.0,0.0,0.0,1.0148,0.0,0.0,1.0557,0.0,0.0,0.0,0.0,0.0,0.0,0.0,0.0,0.0,0.0,0.0,0.0,0.0,0.0,0.0,0.0,0.0,0.0,0.0,0.0,0.0,0.0,0.8576,0.8198,0.8683,0.8761,0.8353,0.8771,0.8816,0.8395,0.8829,0.9087,0.9023,0.0,0.0,0.0,0.0,0.0,0.0,0.0,0.0,0.0,0.0,0.0,0.0,0.0,0.0,0.0,0.0,0.0,0.0,0.0,0.0,0.0,0.0,0.0,0.0,0.0,0.0,0.9408,0.9012,0.8987,0.0,0.0,0.0,0.0,0.0,0.0,0.0,0.0,0.0,1.2595,1.2895,1.3118,1.3273,1.3965,1.4462,1.4499,1.4522,1.4388,1.4028,1.4375,1.4299,0.0,0.0,0.0,0.0,0.0,0.0,0.0,0.0,0.0,0.0,0.0,0.0,0.0,0.0,0.0,0.0,0.0,0.0,0.0,0.0,0.0,0.0,0.0,0.0,0.0,0.0,0.0,1.0392,1.0692,0.0,0.0,0.0,0.0,0.0,0.0,0.0,0.0,0.0,0.0,0.0,1.1831,1.1828,0.0,0.0,0.0,0.0,0.0,0.0,0.0,0.0,0.0,0.0,0.0,0.0,0.9048,0.8761,0.8925,0.9216,0.9633,1.0056,1.0232,1.0173,1.0254,1.0047,0.9553,0.0,0.0,0.0,0.0,0.0,0.0,0.0,0.0,0.0,0.0,0.0,0.0,0.0,0.0,0.0,0.0,0.0,0.0,0.0,0.0,0.0,0.0,0.0,0.0,0.0,1.0545,0.0,0.0,0.0,0.0,0.0,0.0,0.0,0.0,0.0,0.0,1.1915,1.2141,1.2526,1.2726,1.3081,1.3668,1.4291,1.4824,0.0,0.0,0.0,0.0,0.0,0.0,0.0,0.0,0.0,0.0,0.0,0.0,0.0,0.0,1.5598,1.3918,1.3324,1.3201,1.353,0.0,0.0,0.0,0.0,0.0,0.0,0.0,0.0,0.0,0.0,0.0,0.0,0.0,0.0,1.0969,0.0,1.16,0.0,0.0,0.0,0.0,0.0,0.0,0.0,0.0,1.2088,1.2088,1.2088,1.2088,1.2088,0.0,1.2088,1.2088,0.0,0.0,0.0,0.0,0.0,0.0,0.0,0.0,0.956,0.9263,0.9236,0.9521,1.011,1.0668,1.0958,1.0926,1.0993,1.0846,1.0436,1.083,1.0912,0.0,0.0,0.0,0.0,0.0,0.0,0.0,0.0,0.0,0.0,0.0,0.0,0.0,0.0,0.0,0.0,0.0,0.0,0.0,0.0,0.0,0.0,0.0,1.1122,0.0,0.0,0.0,0.0,0.0,0.0,0.0,0.0,0.0,1.1946,1.2,1.2345,1.2964,1.2993,1.3354,1.4446,0.0,0.0,0.0,0.0,0.0,0.0,0.0,1.55,1.5548,1.5598,1.5959,1.6942,1.7655,1.8008,1.7702,0.0,0.0,1.5008,1.4543,1.4563,1.4864,1.6097,1.6836,1.5877,1.5723,1.5781,0.0,0.0,0.0,0.0,0.0,0.0,0.0,0.0,1.1378,1.1718,0.0,1.1886,0.0,0.0,0.0,0.0,1.2116,1.2116,0.0,0.0,1.2165,1.2138,1.2156,1.2143,1.2134,1.2125,1.2104,1.2104,1.2128,1.2098,0.0,0.0,0.0,0.0,0.0,0.0,1.0117,0.9692,0.9693,0.9742,0.9859,1.0636,1.0936,1.0663,1.1076,1.1407,1.1564,1.1486,1.1485,1.1615,1.1963,0.0,0.0,0.0,0.0,0.0,0.0,0.0,0.0,0.0,0.0,0.0,0.0,0.0,0.0,0.0,0.0,0.0,0.0,0.0,0.0,1.1761,0.0,0.0,0.0,0.0,0.0,0.0,0.0,0.0,0.0,1.2639,1.232,1.2173,1.2589,1.3879,0.0,0.0,0.0,0.0,1.4931,1.568,1.6417,1.6669,1.5879,1.6997,1.7659,1.6831,0.0,0.0,1.8201,1.8212,1.8247,1.8189,1.8226,1.7857,1.6894,1.6312,1.633,1.7154,1.7805,1.8154,1.811,1.7982,1.794,0.9752,0.0,0.0,0.0,0.0,1.145,1.2002,1.252,1.252,1.2508,1.2504,1.2184,0.0,0.0,0.0,0.0,0.0,0.0,1.2689,1.2951,1.296,1.2951,1.296,1.2755,1.2755,1.2938,1.2377,1.2242,1.2505,1.2229,1.2088,1.2088,0.0,0.0,0.0,0.0,1.0393,0.9749,0.9713,0.9872,1.0231,1.0475,1.0734,1.1033,1.1628,1.1784,1.1474,1.1798,1.1984,1.202,1.1855,0.0,0.0,0.0,0.0,0.0,0.0,0.0,0.0,0.0,0.0,0.0,0.0,0.0,0.0,0.0,0.0,0.0,0.0,0.0,1.2088,1.1991,1.1923,0.0,0.0,0.0,0.0,0.0,0.0,0.0,0.0,0.0,1.4085,1.3281,1.2754,0.0,0.0,1.3952,1.5043,1.5663,1.6238,1.6844,1.7382,0.0,1.6804,1.6691,1.7074,1.8249,1.9171,1.9869,2.0255,2.0312,2.0182,1.9811,1.9743,1.9536,1.8891,1.7505,1.6908,1.7756,1.9175,1.9877,1.8955,1.8965,1.9238,1.1051,1.0746,1.0293,1.0635,1.148,1.2156,1.2718,1.32,1.3297,1.3339,1.3348,1.2809,1.2699,1.2913,1.2673,0.0,0.0,0.0,1.3153,1.3543,1.3373,1.3419,1.359,1.3346,1.3273,1.3368,1.2935,1.2722,1.2689,1.245,1.2248,1.211,0.0,1.1779,1.1166,1.1147,1.0848,1.0272,1.0093,1.0275,1.078,1.1014,1.1365,1.1855,1.2262,1.2328,1.2019,1.2309,1.2469,1.249,1.2248,1.2121,0.0,0.0,0.0,0.0,0.0,0.0,0.0,0.0,0.0,0.0,0.0,1.2237,1.2122,0.0,0.0,0.0,1.1976,1.2304,1.2113,1.2277,0.0,0.0,0.0,0.0,0.0,0.0,0.0,1.3039,1.343,1.3737,1.3893,1.399,1.4147,1.4443,1.4291,1.4573,1.5709,0.0,1.6552,1.7539,1.7716,1.7675,1.7533,1.7518,1.8104,1.9724,2.0367,2.0795,2.1121,2.1201,2.1086,2.0818,2.0726,2.0649,2.0427,1.9353,1.858,1.8971,2.0063,2.0676,1.9988,2.0059,2.0203,1.2386,1.2385,1.131,1.142,1.2303,1.2996,1.3441,1.3699,1.3891,1.42,1.4504,1.3606,1.3645,1.4354,1.3635,0.0,1.3401,1.3401,1.364,1.4039,1.3681,1.3779,1.4226,1.3923,1.3727,1.3635,1.3671,1.3397,1.2821,1.2766,1.2567,1.2181,1.2208,1.2009,1.1543,1.1525,1.1382,1.1101,1.0719,1.0809,1.142,1.1934,1.241,1.2815,1.2895,1.2893,1.2905,1.2905,1.2915,1.2905,1.2837,1.2807,1.2825,0.0,0.0,0.0,0.0,0.0,0.0,0.0,0.0,0.0,0.0,0.0,0.0,0.0,0.0,1.207,1.2496,0.0,1.2366,1.2659,0.0,0.0,0.0,1.3086,1.3662,1.3732,1.3628,1.3397,0.0,0.0,1.2741,1.4442,1.6127,1.6902,1.5903,1.5624,1.7002,1.6431,1.6362,1.787,1.7625,1.7501,1.7982,1.8842,1.9754,2.0626,2.1075,2.0994,2.1017,2.1098,2.1125,2.1075,2.1155,2.1226,2.1341,2.124,2.1256,2.0496,2.0641,2.0915,2.1113,2.0973,2.081,1.3139,1.3089,1.3105,1.3342,1.3764,1.4516,1.4999,1.5257,1.547,1.5184,1.4513,1.4181,1.3863,1.3571,1.3378,1.3635,1.4222,1.4207,1.4672,1.5467,1.5402,1.5427,1.5508,1.486,1.4592,1.467,1.4029,1.3667,1.3594,1.3405,1.311,1.2755,1.3165,1.2808,1.1691,1.1654,1.153,1.1254,1.0851,1.0991,1.1686,1.2033,1.2262,1.2371,1.2717,1.2915,1.2915,1.2915,1.2915,1.2886,1.2271,1.2074,1.2413,1.2244,0.0,0.0,0.0,0.0,0.0,0.0,0.0,0.0,0.0,1.2793,1.2274,0.0,1.2145,0.0,1.2266,1.3006,1.4257,1.3806,0.0,0.0,1.3397,1.3757,1.4649,1.4752,1.4992,1.5698,1.5381,1.5305,1.5832,1.5468,1.5799,1.7512,1.6879,1.6455,1.7114,1.7412,1.7623,1.7995,1.7963,1.7936,1.8128,1.8992,1.9718,1.9685,1.9908,2.0059,2.0059,2.0354,2.0599,2.0618,2.0933,2.1171,2.1219,2.1269,2.1207,2.1056,2.1292,2.1381,2.0973,2.0814,2.0766,1.4304,1.4424,1.4918,1.5326,1.5656,1.5941,1.607,1.6099,1.6349,1.6026,1.5299,1.5216,1.4833,1.4198,1.4146,1.4284,1.4577,1.4577,1.5105,1.5978,1.5873,1.5936,1.6144,1.5417,1.5069,1.5015,1.4429,1.4081,1.3996,1.3937,1.3687,1.3304,1.3637,1.3436,1.2742,1.2459,1.2242,1.2113,1.1827,1.188,1.2288,1.2436,1.2508,1.2529,1.2972,1.3212,1.3222,1.3428,1.3525,1.3493,1.3055,1.2877,1.2998,1.2785,1.2817,0.0,0.0,0.0,0.0,0.0,0.0,0.0,0.0,0.0,0.0,0.0,1.2979,1.2837,1.3302,1.4003,1.5011,1.481,1.4616,1.4627,1.4616,1.4932,1.5687,1.576,1.6043,1.6744,1.6333,1.6378,1.7368,1.6828,1.6738,1.7968,1.7623,1.7245,1.723,1.7504,1.7774,1.8057,1.8098,1.8203,1.8409,1.9156,1.9732,1.976,2.0099,2.0289,2.0067,2.0213,2.0343,2.0159,2.0381,2.0646,2.0707,2.0772,2.0833,2.0939,2.1102,2.1121,2.0865,2.0723,2.0677,1.544,1.5801,1.6438,1.6955,1.7387,1.7193,1.69,1.6609,1.6841,1.6723,1.6296,1.6261,1.5942,1.5387,1.5229,1.5065,1.4889,1.4848,1.5293,1.6098,1.5845,1.5989,1.6456,1.5769,1.5321,1.507,1.4847,1.4568,1.4231,1.4402,1.4306,1.3924,1.3952,1.403,1.4057,1.3582,1.3242,1.308,1.301,1.2942,1.2915,1.2978,1.298,1.3014,1.3442,1.3692,1.3693,1.4072,1.4316,1.4316,1.4316,1.4227,1.4062,1.3605,1.383,0.0,1.399,0.0,0.0,0.0,0.0,0.0,0.0,0.0,0.0,1.4071,1.4126,1.4222,1.4829,1.5234,1.5331,1.5728,1.5993,1.5995,1.5963,1.6104,1.655,1.6566,1.6674,1.7057,1.7205,1.7499,1.7972,1.8112,1.8128,1.8109,1.8057,1.7875,1.749,1.7393,1.7584,1.8057,1.8098,1.8249,1.863,1.9126,1.9551,1.9983,2.0262,2.0634,2.0064,2.0117,2.0086,1.9744,1.9828,1.9995,2.0082,2.0222,2.0341,2.0516,2.0572,2.0624,2.0633,2.0531,2.0481,1.5756,1.6136,1.6518,1.6963,1.7424,1.7923,1.7898,1.7522,1.7416,1.6982,1.6295,1.6132,1.5985,1.584,1.5613,1.5647,1.5905,1.5568,1.5964,1.6858,1.6453,1.6488,1.6891,1.6108,1.564,1.5484,1.5116,1.4918,1.4842,1.4988,1.484,1.4469,1.4872,1.4886,1.4501,0.0,0.0,0.0,1.3227,1.3235,1.2915,1.3272,1.3478,1.3478,1.3919,0.0,1.4177,1.4258,1.4316,1.4316,1.4316,0.0,0.0,0.0,0.0,0.0,0.0,0.0,0.0,0.0,0.0,0.0,1.5051,1.4605,1.4212,1.4421,1.4668,1.4909,1.5413,1.601,1.665,1.656,1.6523,1.6601,1.6304,1.6237,1.6704,1.6449,1.6412,1.703,1.7713,1.8125,1.8126,1.824,1.8275,1.8141,1.81,1.8125,1.8168,1.8004,1.7975,1.807,1.8111,1.8146,1.8224,1.84,1.8621,1.8544,1.8593,1.8707,1.8722,1.9071,1.9365,1.9237,1.9683,2.0044,2.0073,2.0126,2.0113,2.0187,2.0265,2.0239,1.9925,1.9808,1.9793,1.6507,1.6738,1.7119,1.736,0.0,1.8135,1.8235,1.7953,1.8047,1.788,1.7464,1.6959,1.6909,1.7153,1.6527,1.6389,1.6631,1.622,1.6421,1.7062,1.696,1.688,1.6886,1.6381,1.5881,1.5403,1.5203,1.5112,1.5112,1.5235,1.5182,1.4988,1.5259,1.5418,1.5457,1.5788,1.526,1.3804,1.3631,1.3648,1.3824,1.3892,1.3953,1.3954,1.4432,0.0,0.0,0.0,0.0,0.0,0.0,0.0,0.0,1.5447,0.0,1.5781,1.5803,1.59,1.6152,1.5971,1.6054,1.6548,1.6361,1.5986,1.544,1.5658,1.5852,1.5889,1.6403,1.6888,1.7207,1.7439,1.7629,1.767,1.7422,1.7336,1.7522,1.7395,1.7341,1.7566,1.8075,1.8375,1.8342,1.836,1.841,1.84,1.8304,1.8302,1.845,1.8354,1.8247,1.8259,1.8251,1.8253,1.8282,1.866,1.8816,1.876,1.8909,1.8944,1.8735,1.8962,1.9149,1.8969,1.9195,1.9457,1.9471,1.9527,1.9545,1.9557,1.9614,1.9596,1.9361,1.9516,1.96,1.7252,1.7381,1.7699,1.7705,1.7534,1.8062,1.8308,1.834,1.8629,0.0,0.0,1.7968,1.7997,1.8331,1.7479,1.7175,1.7227,1.6751,1.6761,1.7147,1.722,1.7119,1.6824,1.6553,1.6056,1.5384,1.5259,1.5235,1.5235,1.5347,1.542,1.541,1.5512,1.5864,1.6457,1.6775,1.6322,1.5057,1.4333,1.4214,1.4692,1.4523,1.4432,1.4444,1.4937,1.5221,1.5221,1.5592,1.5803,1.5803,1.5887,1.5935,1.5947,1.6031,1.6091,1.6068,1.6079,1.6283,1.6715,1.6739,1.6931,1.7363,1.7471,1.7303,1.6752,1.6919,1.6972,1.6838,1.7314,1.7615,1.7638,1.8201,1.8614,1.8639,1.8449,1.8299,1.8312,1.8242,1.8011,1.7982,1.8129,1.8419,1.8629,1.857,1.8528,1.8624,1.8518,1.8489,1.8598,1.8518,1.8423,1.8435,1.839,1.8392,1.8511,1.8938,1.9402,1.912,1.946,1.9665,1.9322,1.9192,1.9056,1.8757,1.8744,1.886,1.8875,1.8978,1.9,1.9013,1.9013,1.9013,1.9049,1.9349,1.9534,1.7457,1.795,1.7734,1.7581,1.7507,1.7786,1.8345,1.9097,1.9012,1.848,1.7713,1.8455,1.864,1.8378,1.8007,1.7835,1.7837,1.7041,1.6924,1.7337,1.697,1.6976,1.7262,1.6514,1.6094,1.5957,1.5576,1.5366,1.5376,1.5405,1.542,1.5478,1.5911,1.6472,1.697,1.6354,1.6071,1.6223,1.5732,1.5118,1.4395,1.4766,1.4983,1.5006,1.5458,1.5692,1.5703,1.577,1.5803,1.5815,1.6235,1.6475,1.6499,1.6919,1.7183,1.7183,1.7183,1.7207,1.7279,1.7291,1.7315,1.7411,1.7832,1.7819,1.7182,1.7133,1.7211,1.73,1.7635,1.7984,1.8437,1.8566,1.8666,1.8722,1.8353,1.8056,1.8092,1.7724,1.7442,1.7401,1.7744,1.8334,1.8802,1.8808,1.8692,1.8643,1.8615,1.8625,1.8706,1.8666,1.8587,1.8548,1.8459,1.8471,1.8583,1.8698,1.8868,1.873,1.8812,1.8932,1.8814,1.8858,1.8876,1.8795,1.8866,1.8959,1.8972,1.8999,1.9013,1.9013,1.9013,1.9013,1.9013,1.9136,1.9321,1.8568,1.851,1.8695,1.8403,1.7851,1.8193,1.8692,1.9316,1.9601,1.9526,1.9145,1.8669,1.8734,1.913,1.8356,1.8118,1.8286,1.7688,1.7522,1.7722,1.7503,1.7435,1.7471,1.7097,1.6782,1.6571,1.6374,1.6214,1.6153,1.6502,1.6572,1.6446,1.7111,1.7603,1.7759,1.7696,1.7572,1.7383,1.6101,1.5481,1.5556,1.5788,1.5961,1.6029,1.6178,1.6281,1.6336,1.6292,1.6367,1.6643,1.6907,1.7027,1.7051,1.7267,1.7436,1.7509,1.7448,1.7568,1.7908,1.8147,1.8277,1.8277,1.8482,1.8517,1.8201,1.8112,1.8118,1.8256,1.8327,1.8485,1.8815,1.8839,1.8839,1.8906,1.8625,1.8441,1.8419,1.8252,1.8017,1.7964,1.8268,1.8644,1.8959,1.889,1.8813,1.8802,1.8827,1.8841,1.8893,1.8853,1.8786,1.8719,1.8722,1.871,1.8732,1.8811,1.8839,1.8814,1.8802,1.8827,1.8814,1.8881,1.8894,1.8906,1.8959,1.9012,1.9013,1.9013,1.9013,1.9013,1.9013,1.9013,1.904,1.9409,1.9837,1.9402,1.9029,1.9346,1.8914,1.8078,1.8468,1.8873,1.9326,1.9648,2.0138,2.0476,1.9134,1.8905,1.9454,1.8609,1.8459,1.8797,1.8433,1.8236,1.8286,1.8303,1.8191,1.7994,1.7932,1.7802,1.7645,1.7527,1.7383,1.7367,1.7806,1.7945,1.7784,1.8363,1.8667,1.8548,1.8853,1.8782,1.8221,1.6563,1.6032,1.6786,1.6822,1.6892,1.7008,1.6915,1.6915,1.6973,1.688,1.7026,1.7412,1.7544,1.758,1.7617,1.7725,1.7798,1.7896,1.7847,1.8028,1.8516,1.8851,1.9013,1.9013,1.9013,1.9,1.9,1.8906,1.8891,1.8972,1.8882,1.8867,1.8972,1.8999,1.9013,1.8999,1.8906,1.8829,1.8839,1.8851,1.8813,1.8724,1.8882,1.8988,1.8986,1.8906,1.8893,1.8972,1.9013,1.9013,1.9013,1.9013,1.8959,1.8906,1.8932,1.8946,1.8878,1.8907,1.8987,1.9013,1.9,1.8987,1.8987,1.9,1.9,1.8999,1.9,1.9013,1.9013,1.9013,1.9013,1.9013,1.9013,1.904,1.9238,1.9747,2.0308,1.9157,1.9403,1.8877,1.8271,1.7933,1.8103,1.8636,1.9176,1.8568,1.9359,2.0889,2.032,1.9511,1.8799,1.8818,1.9195,1.9713,1.9184,1.9021,1.9171,1.9177,1.9179,1.9085,1.887,1.9081,1.945,1.9051,1.8867,1.8972,1.8932,1.9002,1.916,1.9291,1.9332,1.9261,1.8787,1.8532,1.8559,1.7788,1.7424,1.7508,1.752,1.7581,1.7725,1.7701,1.764,1.7532,1.7508,1.752,1.7606,1.7943,1.8184,1.8309,1.8632,1.8844,1.8871,1.8961,1.9074,1.9123,1.9041,1.9013,1.9013,1.9013,1.9013,1.9013,1.8999,1.8999,1.9012,1.8986,1.8986,1.8987,1.9013,1.9013,1.9013,1.8999,1.8974,1.8986,1.8999,1.896,1.8948,1.8974,1.9013,1.9012,1.8986,1.8999,1.9012,1.9013,1.9013,1.9,1.8928,1.8951,1.8962,1.8975,1.8963,1.896,1.8999,1.9013,1.9013,1.8988,1.8976,1.8964,1.8989,1.9013,1.9,1.9013,1.9013,1.9013,1.9013,1.9013,1.9013,1.904,1.9146,1.9565,1.9875,2.008,1.9899,1.9764,1.9556,1.9295,1.9061,1.9123,1.9345,1.9609,1.9551,1.9872,2.04,2.0519,2.0274,1.9796,2.007,2.0366,2.0585,2.0483,2.0245,1.9928,1.9634,1.9529,1.9574,1.949,1.9779,2.0392,2.0158,2.0068,2.008,2.0163,2.0461,2.0923,2.0772,2.0456,2.0071,1.9783,1.9473,1.9075,1.8816,1.8706,1.872,1.84,1.8265,1.8363,1.8326,1.824,1.8191,1.8191,1.83,1.8529,1.872,1.8803,1.8869,1.8944,1.9078,1.9224,1.9302,1.9288,1.9208,1.9078,1.9013,1.9013,1.9013,1.9013,1.9013,1.9013,1.9013,1.9013,1.9013,1.9013,1.9013,1.9013,1.9013,1.9013,1.9013,1.9013,1.9013,1.9013,1.9013,1.9013,1.9013,1.9013,1.9013,1.9013,1.9013,1.9013,1.9013,1.9013,1.8988,1.8734,1.8674,1.8879,1.8658,1.8585,1.8891,1.9013,1.9013,1.8964,1.8722,1.8578,1.8916,1.8687,1.8615,1.894,1.9,1.9013,1.9013,1.9013,1.9013,1.9013,1.904,1.9172,1.9695,2.0055,2.0447,2.034,2.0014,2.008,2.0011,1.983,1.9878,1.991,1.9932,2.0192,2.0294,2.0273,2.0659,2.0993,2.1191,2.0996,2.1065,2.1409,2.1403,2.1263,2.0975,2.0473,2.0312,2.036,2.0409,2.0771,2.1342,2.1397,2.1326,2.1255,2.1451,2.176,2.2068,2.1877,2.1389,2.083,2.0615,2.0263,1.985,1.9585,1.9512,1.9555,1.918,1.897,1.9045,1.8982,1.8931,1.8868,1.8868,1.9002,1.9303,1.9288,1.9262,1.9315,1.9144,1.9158,1.9368,1.9407,1.9355,1.9274,1.9143,1.904,1.9013,1.9013,1.9013,1.9013,1.9013,1.9013,1.9013,1.9013,1.9013,1.9013,1.9013,1.9013,1.9013,1.9013,1.9013,1.9013,1.9013,1.9013,1.9013,1.9013,1.9013,1.9013,1.9013,1.9013,1.9013,1.9013,1.9013,1.8976,1.8698,1.8602,1.8903,1.8524,1.8488,1.8903,1.9013,1.9013,1.8952,1.8686,1.865,1.894,1.8602,1.8471,1.8976,1.9,1.9013,1.9013,1.9013,1.9028,1.904,1.9132,1.9396,1.9991,2.0447,2.0969,2.0034,2.0136,1.9992,1.9839,1.9658,1.9837,1.992,1.9921,1.9974,2.0364,2.0888,2.1016,2.1652,2.2663,2.1229,2.1097,2.2144,2.1767,2.1876,2.2377,2.1981,2.178,2.1815,2.1943,2.231,2.275,2.2671,2.2668,2.2714,2.2877,2.275,2.2303,2.2282,2.1981,2.144,2.0907,2.062,2.0642,2.0032,1.9668,1.9747,1.9735,1.9697,1.971,1.9722,1.9633,1.9529,1.9541,1.9566,1.9565,1.946,1.946,1.9526,1.9329,1.9275,1.9381,1.9407,1.9407,1.9381,1.9262,1.9143,1.9039,1.904,1.9013,1.9025,1.9025,1.9013,1.9013,1.9013,1.9013,1.9013,1.9013,1.9013,1.9013,1.9013,1.9013,1.9013,1.9013,1.9013,1.9013,1.9013,1.9013,1.9013,1.9013,1.9013,1.9013,1.9013,1.8976,1.8916,1.8891,1.8879,1.8891,1.8865,1.8939,1.9,1.9013,1.9013,1.894,1.8867,1.8916,1.8951,1.8963,1.8964,1.8988,1.9,1.9013,1.9013,1.9028,1.9031,1.915,1.9475,1.9837,2.0434,2.0982,2.1447,2.0164,2.0288,2.0342,2.0382,2.0428,2.0342,2.0187,2.008,2.0487,2.0617,2.0825,2.1839,2.2567,2.289,2.3033,2.3326,2.3706,2.3594,2.332,2.2943,2.2679,2.2415,2.2084,2.2478,2.2796,2.3042,2.3047,2.3017,2.3045,2.3078,2.3007,2.2872,2.2807,2.2531,2.2069,2.1775,2.139,2.0794,2.0438,2.0148,1.9849,1.9811,1.9811,1.9811,1.9811,1.9746,1.9591,1.9682,1.9695,1.9591,1.9552,1.9552,1.9591,1.9512,1.9473,1.9512,1.9538,1.9526,1.9512,1.9407,1.9328,1.9263,1.9263,1.921,1.9131,1.913,1.9104,1.9039,1.9013,1.9013,1.9013,1.9013,1.9013,1.9013,1.9013,1.9013,1.9013,1.9013,1.9013,1.9013,1.9013,1.9013,1.9013,1.9013,1.9013,1.9013,1.9013,1.888,1.8578,1.8494,1.8531,1.8418,1.8218,1.8212,1.8987,1.9,1.8988,1.888,1.882,1.8808,1.8832,1.8686,1.8626,1.8952,1.9013,1.8868,1.8794,1.8623,1.8739,1.9838,2.0118,2.0232,2.0945,2.1326,2.1688,2.0385,2.0576,2.0673,2.0819,2.1021,2.1203,2.0989,2.0666,2.1397,2.1466,2.1309,2.2546,2.3288,2.3653,2.4602,2.4942,2.4749,2.4587,2.4093,2.3441,2.3376,2.3184,2.2932,2.3392,2.3585,2.3439,2.3198,2.3095,2.3095,2.3095,2.3095,2.3095,2.3095,2.292,2.2596,2.238,2.1961,2.1467,2.0998,2.049,2.0177,2.0092,1.9952,1.9901,2.0118,2.0093,1.9708,1.9759,1.9747,1.9682,1.9656,1.9643,1.9604,1.9811,1.9824,1.9643,1.9643,1.9656,1.9591,1.9512,1.9447,1.942,1.9407,1.9342,1.9262,1.9236,1.9183,1.9118,1.9027,1.9025,1.9052,1.9065,1.9065,1.9052,1.9039,1.9025,1.904,1.9013,1.9013,1.9013,1.9013,1.9013,1.9013,1.9013,1.9013,1.9013,1.9025,1.8896,1.8631,1.8403,1.8403,1.8474,1.8289,1.8418,1.8832,1.9,1.9013,1.8929,1.888,1.882,1.8759,1.8542,1.8542,1.888,1.8904,1.871,1.8516,1.8309,1.9106,2.0379,2.0534,2.0485,2.1044,2.1544,2.1866,2.0673,2.1109,2.1003,2.1147,2.1454,2.2325,2.2284,2.1706,2.2574,2.2623,2.2167,2.2995,2.3956,2.482,2.5456,2.5623,2.5165,2.4458,2.4075,2.4022,2.4165,2.4168,2.4074,2.4526,2.4476,2.4009,2.3427,2.3138,2.3153,2.3188,2.3213,2.3123,2.3201,2.3175,2.3098,2.2665,2.2595,2.251,2.1521,2.0859,2.0865,2.0707,2.0411,2.008,2.0795,2.0819,1.9875,1.9875,1.9952,1.9914,1.9888,1.9773,1.9798,2.0194,2.0283,1.9734,1.9734,1.9734,1.963,1.9604,1.9539,1.946,1.9433,1.942,1.9394,1.9315,1.9262,1.9302,1.9184,1.9065,1.917,1.9196,1.9196,1.9183,1.9092,1.9105,1.9143,1.9092,1.9013,1.9015,1.9001,1.9013,1.9013,1.9039,1.9052,1.9052,1.9117,1.9087,1.8893,1.8703,1.8839,1.8935,1.8812,1.8789,1.8902,1.9013,1.9013,1.9002,1.8989,1.8952,1.8928,1.8808,1.8784,1.9001,1.8796,1.864,1.9104,1.9019,1.9623,2.0569,2.0546,2.0821,2.1337,2.1819,2.1971,2.1291,2.132,2.2042,2.236,2.2424,2.2965,2.2959,2.2684,2.2981,2.2737,2.2543,2.3915,2.4745,2.5069,2.5914,2.6051,2.5408,2.4743,2.4226,2.3996,2.4589,2.4745,2.4502,2.4467,2.4189,2.3722,2.3524,2.3437,2.3484,2.3697,2.3705,2.3427,2.3664,2.3654,2.3328,2.3227,2.3112,2.2714,2.2261,2.1786,2.1313,2.1186,2.1053,2.0971,2.1248,2.1053,2.0409,2.0709,2.0893,2.0881,2.0906,2.0721,2.0421,2.0497,2.0346,1.9824,1.9773,1.9785,1.9759,1.9734,1.9746,1.9682,1.9682,1.963,1.9552,1.9499,1.9447,1.9433,1.9329,1.9302,1.9316,1.9329,1.9315,1.9208,1.9249,1.9289,1.9315,1.9302,1.9175,1.906,1.9123,1.9134,1.9081,1.9105,1.9182,1.9143,1.9183,1.9065,1.8509,1.883,1.8744,1.8436,1.8659,1.9043,1.9158,1.9226,1.9242,1.9174,1.9119,1.9065,1.9052,1.9052,1.9039,1.9032,1.8814,1.8988,1.9422,1.9736,2.0189,2.0863,2.1233,2.1551,2.1864,2.2044,2.2147,2.1826,2.1959,2.2764,2.3169,2.3312,2.3909,2.4133,2.4008,2.4108,2.3898,2.3868,2.4727,2.5381,2.5638,2.6379,2.627,2.5649,2.5652,2.5166,2.4374,2.4983,2.5215,2.4931,2.4794,2.4364,2.3836,2.3656,2.3586,2.3611,2.3841,2.3806,2.3592,2.3821,2.3806,2.3563,2.3765,2.3538,2.2832,2.2793,2.2426,2.1708,2.1621,2.1614,2.1557,2.1837,2.1742,2.1334,2.174,2.1742,2.1321,2.1455,2.1431,2.098,2.1066,2.0969,2.0534,2.0371,2.0333,2.0156,2.0105,1.9991,1.9875,1.9811,1.9773,1.9682,1.9643,1.9578,1.9565,1.9447,1.942,1.9473,1.946,1.942,1.9367,1.9368,1.9407,1.9407,1.9407,1.9344,1.9228,1.928,1.9291,1.934,1.9275,1.9339,1.9275,1.9316,1.9123,1.8548,1.8796,1.8573,1.8376,1.8462,1.8881,1.931,1.9437,1.9479,1.9373,1.9238,1.9171,1.9118,1.9118,1.9118,1.9344,1.9263,1.975,2.019,1.9849,2.0036,2.0877,2.1797,2.1752,2.1825,2.2077,2.218,2.2354,2.3094,2.3327,2.372,2.4145,2.5234,2.5556,2.5451,2.5737,2.5755,2.5652,2.5391,2.572,2.6434,2.6431,2.6112,2.595,2.6469,2.6119,2.5308,2.5462,2.5656,2.5492,2.5557,2.522,2.4512,2.4066,2.3865,2.3983,2.4079,2.3729,2.3897,2.4103,2.3831,2.405,2.4357,2.4166,2.3314,2.342,2.3027,2.19,2.2194,2.2163,2.1839,2.2552,2.2723,2.2305,2.2549,2.2238,2.1127,2.1803,2.198,2.166,2.1935,2.1851,2.1321,2.1382,2.1065,2.0746,2.0522,2.0371,1.9978,1.985,1.9837,1.9875,1.9759,1.9734,1.9837,1.9617,1.9486,1.9604,1.9604,1.9591,1.9591,1.9526,1.9473,1.9433,1.946,1.9435,1.9421,1.9433,1.9497,1.9689,1.9548,1.9446,1.9433,1.9486,1.9242,1.8983,1.8921,1.8946,1.8834,1.8697,1.8995,1.9517,1.9596,1.9635,1.958,1.9447,1.9343,1.9316,1.9316,1.9276,1.9488,1.9889,2.0433,2.0655,2.0349,2.0653,2.1657,2.2002,2.175,2.1805,2.2086,2.2035,2.3559,2.4277,2.4791,2.5182,2.5527,2.6074,2.6294,2.6289,2.6052,2.5984,2.5803,2.5686,2.5768,2.6003,2.5657,2.5358,2.5437,2.562,2.5539,2.5238,2.6004,2.6024,2.5833,2.6144,2.6011,2.5322,2.5151,2.5241,2.5252,2.5345,2.5342,2.5128,2.5737,2.5792,2.5325,2.5735,2.552,2.4598,2.4806,2.4234,2.3091,2.337,2.3424,2.2936,2.312,2.2982,2.2498,2.2583,2.2643,2.2391,2.252,2.2512,2.2063,2.2135,2.2041,2.1597,2.1441,2.1369,2.1176,2.0858,2.056,2.0371,2.0093,1.9991,2.0346,1.9991,2.0003,2.0169,1.9978,1.9721,1.9759,1.9746,1.9746,1.9746,1.9695,1.9669,1.9682,1.9695,1.9695,1.9682,1.9669,1.9719,1.9718,1.9666,1.9565,1.9552,1.9541,1.9443,1.9121,1.9258,1.9371,1.9221,1.9158,1.9422,1.9661,1.975,1.9775,1.9748,1.9656,1.9565,1.9578,1.963,1.9565,1.9604,2.0245,2.0819,2.1002,2.0919,2.1724,2.2368,2.2319,2.2151,2.2077,2.2187,2.184,2.4671,2.5252,2.5739,2.6099,2.638,2.6667,2.6871,2.6956,2.6722,2.6401,2.6182,2.589,2.5794,2.5738,2.5251,2.5253,2.5528,2.5669,2.5802,2.6056,2.6702,2.6667,2.6319,2.6556,2.6341,2.5767,2.579,2.5767,2.579,2.6034,2.5952,2.5787,2.6381,2.6318,2.5738,2.6329,2.6156,2.5267,2.5505,2.5126,2.3615,2.3992,2.3906,2.3511,2.3374,2.3194,2.2946,2.2878,2.2915,2.3019,2.3042,2.2907,2.2638,2.2578,2.2402,2.2037,2.2039,2.1955,2.1718,2.1432,2.119,2.0956,2.0596,2.0659,2.0833,2.0634,2.0634,2.0522,2.0308,2.0067,1.985,1.9811,1.9811,1.9798,1.9811,1.9811,1.9811,1.9798,1.9798,1.9811,1.9798,1.9798,1.9809,1.9733,1.9682,1.9682,1.9682,1.9421,1.9146,1.9509,1.9673,1.9422,1.9409,1.9636,1.9723,1.9775,1.9813,1.9799,1.9773,1.9695,1.9798,1.9888,1.9849,1.9952,2.0584,2.1077,2.1281,2.157,2.207,2.2483,2.254,2.2435,2.226,2.2111,2.177,2.5645,2.6087,2.6329,2.6577,2.6816,2.715,2.7352,2.7469,2.7406,2.7163,2.6703,2.6093,2.5905,2.5848,2.5409,2.5493,2.6263,2.6572,2.6932,2.713,2.7367,2.7203,2.7044,2.706,2.6833,2.6409,2.6177,2.6387,2.6576,2.6416,2.619,2.6374,2.6348,2.6144,2.6314,2.6727,2.6307,2.5787,2.6194,2.5776,2.4531,2.4464,2.4291,2.3822,2.3535,2.3494,2.3403,2.3359,2.3315,2.3341,2.3319,2.319,2.3082,2.3071,2.2989,2.2877,2.2775,2.2649,2.2359,2.2184,2.1971,2.1549,2.1393,2.1441,2.1419,2.1321,2.1103,2.0821,2.066,2.0296,1.9901,1.9811,1.9811,1.9811,1.9811,1.9811,1.9811,1.9811,1.9811,1.9811,1.9811,1.9811,1.9811,1.9811,1.9798,1.9747,1.9747,1.9584,1.9421,1.9597,1.9597,1.9371,1.951,1.9761,1.9799,1.9811,1.9799,1.9798,1.9798,1.9798,1.9978,2.0055,2.0055,2.0334,2.1115,2.1551,2.1732,2.2086,2.2486,2.2638,2.2718,2.2411,2.2065,2.1991,2.1743,2.6316,2.7138,2.6782,2.6901,2.7306,2.7436,2.7473,2.7477,2.749,2.7422,2.7075,2.6255,2.6088,2.6421,2.5725,2.5748,2.6451,2.7133,2.7642,2.7827,2.7581,2.7805,2.7988,2.8077,2.8023,2.7958,2.8445,2.8619,2.8507,2.7928,2.7889,2.779,2.7583,2.7696,2.7286,2.7582,2.7817,2.7204,2.722,2.6718,2.5794,2.5352,2.4969,2.4347,2.3846,2.3592,2.3562,2.3556,2.353,2.3486,2.3392,2.3264,2.316,2.313,2.3093,2.3071,2.306,2.3004,2.2868,2.2543,2.2224,2.2051,2.1768,2.1575,2.1971,2.1682,2.1417,2.1138,2.0857,2.0484,1.9965,1.9824,1.9824,1.9824,1.9811,1.9811,1.9811,1.9811,1.9811,1.9811,1.9811,1.9811,1.9811,1.9811,1.9811,1.9811,1.9773,1.9723,1.971,1.9723,1.9623,1.9459,1.9585,1.9811,1.9837,1.9901,2.0003,2.008,2.0093,2.0156,2.0321,2.0584,2.0721,2.114,2.1742,2.2004,2.2041,2.2402,2.276,2.2834,2.2843,2.2566,2.2299,2.2087,2.1596,2.696,2.7469,2.7201,2.7239,2.7486,2.749,2.7363,2.7256,2.7627,2.7294,2.6593,2.608,2.6162,2.6275,2.5835,2.6064,2.7143,2.7798,2.8101,2.8108,2.7987,2.8173,2.8567,2.9004,2.9226,2.9125,2.9507,2.9582,2.9067,2.8717,2.8255,2.8096,2.8122,2.7834,2.7664,2.7973,2.7863,2.7622,2.7585,2.7215,2.6506,2.6189,2.5528,2.4679,2.3973,2.3584,2.3584,2.3584,2.3584,2.3577,2.3501,2.3381,2.3301,2.3293,2.3246,2.319,2.319,2.3146,2.3012,2.2877,2.2666,2.2612,2.2333,2.2391,2.252,2.233,2.1894,2.1561,2.131,2.108,2.0308,2.0182,2.0105,1.985,1.9875,1.9888,1.9888,1.9849,1.9811,1.9811,1.9811,1.9811,1.9811,1.985,1.9811,1.9824,1.9837,1.9786,1.9773,1.9773,1.9773,1.971,1.9736,1.9824,1.9875,2.0003,2.0258,2.0421,2.0622,2.0733,2.0918,2.1224,2.1539,2.1827,2.198,2.2135,2.2243,2.2635,2.2888,2.2877,2.2833,2.2728,2.2522,2.2153,2.1487,2.7536,2.7573,2.7536,2.7536,2.756,2.7485,2.72,2.695,2.7655,2.7141,2.594,2.6169,2.6359,2.6205,2.601,2.6849,2.8177,2.8759,2.8917,2.8755,2.8787,2.8951,2.9225,2.9596,2.9962,2.9845,3.0015,2.9655,2.9122,2.8605,2.8411,2.7907,2.7698,2.7768,2.7711,2.764,2.7695,2.765,2.7597,2.7405,2.6854,2.6614,2.5869,2.475,2.4182,2.3744,2.3655,2.3584,2.3584,2.3584,2.3584,2.3551,2.3527,2.3498,2.3455,2.333,2.333,2.3275,2.3212,2.316,2.3138,2.3149,2.3105,2.3093,2.3093,2.2989,2.2526,2.2049,2.173,2.1611,2.0894,2.0808,2.0584,2.0321,2.0245,2.0207,2.0131,2.0042,2.0055,1.9849,1.9862,1.9862,1.9914,1.9952,1.9888,1.9875,1.9914,1.9888,1.9863,1.985,1.9863,2.0003,2.0042,2.0359,2.0459,2.0357,2.0556,2.0871,2.1116,2.1272,2.1453,2.167,2.1874,2.1851,2.198,2.2205,2.244,2.2692,2.2865,2.2877,2.287,2.2798,2.2533,2.2182,2.1612,2.7686,2.798,2.764,2.7716,2.7887,2.7417,2.7109,2.7107,2.7478,2.7226,2.6538,2.6666,2.694,2.7113,2.7097,2.8117,2.9518,2.9905,2.9964,2.9857,2.9826,2.9904,3.0242,3.0103,3.0426,3.1038,3.0875,3.0259,2.9817,2.9254,2.8698,2.8517,2.8117,2.7921,2.7863,2.784,2.7778,2.7738,2.769,2.7505,2.7313,2.6779,2.6078,2.4889,2.4526,2.4122,2.3704,2.3614,2.3584,2.3584,2.3584,2.3584,2.3577,2.3527,2.3498,2.3477,2.3466,2.3418,2.3389,2.3411,2.3378,2.3312,2.3268,2.3264,2.3264,2.3242,2.2915,2.2478,2.1997,2.1724,2.1556,2.1524,2.1472,2.1351,2.1244,2.1172,2.0906,2.0758,2.0546,2.0232,2.0093,1.9965,2.0042,2.0295,2.0599,2.0624,2.0585,2.0334,2.0093,2.0029,1.9991,2.0169,2.0373,2.0785,2.1177,2.0997,2.1018,2.1373,2.1618,2.1742,2.1908,2.2039,2.2135,2.217,2.2321,2.2601,2.2786,2.2843,2.2854,2.2888,2.2873,2.287,2.2682,2.249,2.2504,2.818,2.8324,2.8148,2.7977,2.7798,2.7516,2.7003,2.6608,2.7101,2.6896,2.6502,2.6752,2.7296,2.7694,2.806,2.9108,3.0276,3.0509,3.0495,3.045,3.0539,3.0644,3.1101,3.0759,3.1251,3.1724,3.1501,3.0799,3.0244,2.9729,2.9037,2.8417,2.8089,2.8007,2.798,2.793,2.7918,2.7865,2.7778,2.7715,2.7643,2.6995,2.6195,2.5734,2.4948,2.444,2.4167,2.3704,2.3599,2.3584,2.3584,2.3584,2.3599,2.3577,2.356,2.3549,2.3534,2.3538,2.3509,2.3509,2.3466,2.3407,2.3396,2.3396,2.3411,2.3378,2.3216,2.286,2.2478,2.2254,2.2538,2.2303,2.2009,2.1769,2.1781,2.1738,2.1561,2.1489,2.116,2.078,2.0694,2.0544,2.0215,2.0604,2.1257,2.1381,2.1292,2.0895,2.0446,2.0446,2.0483,2.0621,2.0883,2.1099,2.1568,2.1683,2.1578,2.1882,2.2121,2.2254,2.2333,2.2437,2.2532,2.2603,2.2797,2.291,2.2888,2.2865,2.2888,2.2888,2.2873,2.2873,2.2873,2.2856,2.2841,2.851,2.8683,2.8481,2.8128,2.7738,2.7562,2.6952,2.6292,2.6968,2.6713,2.5855,2.6914,2.769,2.8164,2.9057,3.0133,3.1116,3.094,3.0999,3.1043,3.1204,3.129,3.1447,3.1697,3.1957,3.1721,3.1786,3.1398,3.0257,2.9763,2.909,2.8434,2.8069,2.8081,2.8094,2.8066,2.8054,2.8005,2.7905,2.7828,2.7652,2.7244,2.6804,2.6612,2.5482,2.4803,2.4552,2.3935,2.364,2.3584,2.3584,2.3584,2.3584,2.3584,2.3584,2.3584,2.3584,2.3566,2.3549,2.3527,2.3527,2.3516,2.3531,2.3531,2.352,2.3494,2.3421,2.3227,2.2998,2.288,2.3161,2.2994,2.2592,2.2343,2.2262,2.2221,2.2151,2.207,2.1899,2.1614,2.1424,2.1012,2.0534,2.1298,2.2019,2.2261,2.2172,2.1551,2.1172,2.1256,2.129,2.1327,2.1433,2.1495,2.185,2.2369,2.2338,2.2463,2.2626,2.2726,2.2783,2.2843,2.2865,2.2831,2.2914,2.2992,2.2933,2.2899,2.2888,2.2888,2.2888,2.2899,2.2899,2.303,2.3128,2.8241,2.8978,2.8098,2.7873,2.8014,2.7517,2.6898,2.6432,2.7223,2.7017,2.6018,2.7512,2.8326,2.89,3.0451,3.1331,3.1666,3.1865,3.1949,3.1935,3.2033,3.2076,3.2173,3.227,3.1984,3.1626,3.137,3.0809,3.0114,2.9604,2.8971,2.8339,2.8262,2.8335,2.8302,2.8226,2.8174,2.8149,2.8042,2.7967,2.794,2.7821,2.7473,2.6904,2.6165,2.5417,2.4905,2.4217,2.3743,2.3627,2.3616,2.3606,2.3584,2.3584,2.3584,2.3584,2.3584,2.3584,2.3599,2.3577,2.3577,2.3577,2.3577,2.3588,2.3577,2.3577,2.3551,2.3573,2.3443,2.3403,2.3499,2.3473,2.3399,2.3286,2.3117,2.2987,2.2864,2.2694,2.2526,2.2446,2.2262,2.1402,2.0694,2.1797,2.2764,2.2939,2.2929,2.2292,2.1887,2.1946,2.2109,2.2156,2.209,2.2138,2.2269,2.2756,2.2864,2.2968,2.3053,2.3123,2.3079,2.3034,2.2955,2.2944,2.3037,2.3037,2.2967,2.2933,2.2899,2.2888,2.2888,2.2899,2.2914,2.3099,2.3287,2.8736,2.934,2.8905,2.8423,2.7961,2.7654,2.71,2.6594,2.6846,2.6908,2.6807,2.772,2.8784,2.9842,3.1192,3.1823,3.2092,3.2299,3.2398,3.2411,3.2411,3.2411,3.2242,3.194,3.1595,3.1688,3.0936,3.0445,2.9963,2.958,2.8971,2.8419,2.836,2.8399,2.8473,2.8351,2.8323,2.8287,2.8189,2.8106,2.806,2.8005,2.7868,2.7561,2.6846,2.614,2.5451,2.4794,2.4191,2.3965,2.3839,2.3797,2.3728,2.3707,2.3685,2.3584,2.3584,2.3584,2.3584,2.3584,2.3584,2.3584,2.3584,2.3584,2.3584,2.3584,2.3584,2.3584,2.3584,2.3584,2.3584,2.3584,2.3584,2.3584,2.3584,2.3497,2.3323,2.3334,2.3209,2.3154,2.3024,2.2237,2.166,2.2401,2.3164,2.3237,2.328,2.2943,2.2586,2.2521,2.2736,2.3001,2.2895,2.2826,2.2951,2.3216,2.3161,2.3231,2.3275,2.3312,2.3235,2.3168,2.3101,2.3101,2.319,2.3146,2.3034,2.2952,2.2915,2.2907,2.2888,2.3055,2.3212,2.3044,2.3287,2.907,2.9199,2.9182,2.8605,2.782,2.7738,2.7228,2.6557,2.6862,2.7001,2.7321,2.8142,2.9464,3.0753,3.1531,3.2078,3.2384,3.2411,3.2411,3.2411,3.2411,3.2411,3.2269,3.1813,3.1751,3.2165,3.1021,3.0287,2.9925,2.9602,2.9048,2.843,2.8399,2.855,2.8658,2.8722,2.8753,2.8812,2.8652,2.8443,2.8244,2.8131,2.8131,2.789,2.7421,2.6739,2.607,2.5314,2.465,2.4119,2.3972,2.3903,2.382,2.3782,2.3713,2.3623,2.3591,2.3584,2.3584,2.3584,2.3584,2.3584,2.3584,2.3584,2.3584,2.3584,2.3584,2.3584,2.3584,2.3584,2.3584,2.3584,2.3584,2.3584,2.3584,2.3584,2.3573,2.3508,2.3476,2.341,2.3377,2.3443,2.3105,2.3321,2.3556,2.3562,2.3508,2.341,2.3246,2.302,2.3146,2.337,2.333,2.3227,2.3326,2.3451,2.3429,2.3433,2.3487,2.3477,2.3378,2.3312,2.3231,2.3264,2.3389,2.3264,2.3164,2.3061,2.296,2.2988,2.3084,2.3415,2.3528,2.34,2.3621,2.8736,2.8107,2.8005,2.7919,2.7765,2.7526,2.709,2.67,2.7558,2.7584,2.7471,2.8815,3.0116,3.119,3.1813,3.2238,3.2411,3.2411,3.2411,3.2411,3.2411,3.2411,3.2287,3.2162,3.193,3.1657,3.0885,3.024,2.9738,2.943,2.8938,2.8488,2.8411,2.8796,2.903,2.9092,2.9394,2.9453,2.9317,2.8913,2.8597,2.8397,2.8351,2.8188,2.7619,2.6872,2.6199,2.5525,2.4857,2.4218,2.4065,2.3988,2.3931,2.3871,2.3767,2.3636,2.3601,2.3595,2.3584,2.3584,2.3584,2.3584,2.3584,2.3584,2.3584,2.3584,2.3584,2.3584,2.3584,2.3584,2.3584,2.3584,2.3584,2.3584,2.3584,2.3584,2.3584,2.3584,2.3562,2.3584,2.3584,2.3584,2.3584,2.3584,2.3584,2.3584,2.3584,2.3486,2.3508,2.3377,2.3421,2.353,2.3541,2.3515,2.3526,2.3556,2.3523,2.3505,2.3527,2.3516,2.3498,2.3418,2.3359,2.3567,2.3674,2.3496,2.3437,2.3643,2.3647,2.3269,2.3339,2.3938,2.4402,2.4521,2.4835,2.8483,2.8125,2.7965,2.7765,2.7541,2.7451,2.7355,2.7371,2.7742,2.7946,2.7945,2.9063,3.0011,3.0788,3.1474,3.2042,3.235,3.2411,3.2425,3.2411,3.2411,3.2411,3.2319,3.2103,3.1811,3.1657,3.0951,3.0338,3.0063,2.9347,2.8781,2.8458,2.8466,2.8519,2.8799,2.935,2.9858,3.0157,2.9843,2.9286,2.9215,2.8624,2.8411,2.8338,2.8221,2.7586,2.6957,2.6206,2.5509,2.4886,2.4442,2.4206,2.4041,2.3961,2.3815,2.3649,2.3619,2.3616,2.3606,2.3606,2.3584,2.3584,2.3584,2.3584,2.3584,2.3584,2.3584,2.3584,2.3584,2.3584,2.3584,2.3584,2.3584,2.3584,2.3584,2.3584,2.3584,2.3584,2.3584,2.3584,2.3584,2.3584,2.3584,2.3584,2.3584,2.3584,2.3584,2.3584,2.3584,2.3584,2.3584,2.3584,2.3584,2.3584,2.3584,2.3584,2.3584,2.3573,2.3566,2.363,2.3653,2.357,2.3583,2.3799,2.4149,2.4234,2.4337,2.4488,2.4354,2.3981,2.42,2.474,2.5157,2.5548,2.5833,2.8301,2.8149,2.8002,2.7797,2.7553,2.7675,2.782,2.8007,2.8162,2.8256,2.8539,2.9141,2.9696,3.032,3.1177,3.1796,3.2222,3.2359,3.2447,3.2422,3.2363,3.2341,3.2208,3.2073,3.1903,3.1765,3.0966,3.0261,2.9907,2.9194,2.8826,2.8683,2.8721,2.8863,2.8969,2.9578,3.0379,3.0656,3.0293,2.944,2.9308,2.8744,2.8411,2.8411,2.8338,2.7969,2.7415,2.678,2.6315,2.5639,2.5044,2.4505,2.4252,2.4061,2.3926,2.3815,2.373,2.3717,2.3717,2.3638,2.3595,2.3584,2.3584,2.3584,2.3584,2.3584,2.3584,2.3584,2.3584,2.3584,2.3584,2.3584,2.3584,2.3584,2.3584,2.3584,2.3584,2.3584,2.3584,2.3584,2.3584,2.3584,2.3584,2.3584,2.3584,2.3584,2.3584,2.3584,2.3584,2.3584,2.3584,2.3584,2.3584,2.3584,2.3584,2.3584,2.3584,2.3584,2.3633,2.3812,2.3853,2.3819,2.4118,2.4612,2.4932,2.5085,2.5211,2.5325,2.5067,2.4699,2.5097,2.5569,2.6019,2.6384,2.6472,2.821,2.8091,2.7953,2.7859,2.7818,2.8276,2.8458,2.8515,2.8803,2.8865,2.8766,2.9206,2.9571,3.0089,3.1046,3.1685,3.2141,3.224,3.2445,3.2676,3.2382,3.2241,3.2261,3.2239,3.1842,3.1503,3.0909,3.0212,2.9607,2.9687,2.9345,2.9284,2.9594,2.9719,2.9557,3.0687,3.1226,3.1039,3.051,2.9717,2.8919,2.855,2.8427,2.8411,2.8411,2.8088,2.7688,2.7319,2.6857,2.6376,2.5687,2.5015,2.4353,2.4312,2.419,2.3991,2.3947,2.3956,2.3961,2.3739,2.3627,2.3595,2.3584,2.3584,2.3584,2.3584,2.3584,2.3584,2.3584,2.3584,2.3584,2.3584,2.3584,2.3584,2.3584,2.3584,2.3584,2.3584,2.3584,2.3584,2.3584,2.3584,2.3584,2.3584,2.3584,2.3584,2.3584,2.3584,2.3584,2.3584,2.3584,2.3584,2.3584,2.3584,2.3584,2.3584,2.3584,2.3584,2.3748,2.4018,2.4302,2.4466,2.4855,2.5423,2.5636,2.5744,2.5947,2.6138,2.5941,2.583,2.5982,2.6386,2.6851,2.71,2.7068,2.7602,2.7407,2.7787,2.7899,2.7881,2.8299,2.8646,2.8885,2.9025,2.9052,2.9002,2.9151,2.952,3.0055,3.0492,3.1265,3.2088,3.223,3.2502,3.3053,3.2642,3.2652,3.2565,3.2106,3.1668,3.1264,3.083,3.041,2.9981,3.0232,3.0403,3.0415,3.0787,3.0732,3.0476,3.0918,3.1189,3.0711,3.0394,2.9968,2.9122,2.8673,2.8411,2.8411,2.8411,2.8258,2.7996,2.7688,2.7319,2.7022,2.6395,2.5577,2.4765,2.4623,2.4563,2.4226,2.4041,2.3946,2.3893,2.375,2.3685,2.3657,2.3665,2.368,2.361,2.3595,2.3584,2.364,2.3699,2.3684,2.3584,2.3584,2.3584,2.3584,2.3584,2.3584,2.3584,2.3584,2.3584,2.3584,2.3584,2.3584,2.3584,2.3642,2.3668,2.3631,2.3616,2.3595,2.3584,2.3584,2.3584,2.3584,2.3584,2.3584,2.3584,2.3584,2.3699,2.3774,2.4033,2.438,2.4664,2.5079,2.5585,2.6123,2.627,2.6405,2.6629,2.6839,2.7006,2.7051,2.6857,2.6775,2.704,2.7276,2.7378,2.7287,2.7281,2.7711,2.7842,2.785,2.837,2.8887,2.9307,2.9282,2.922,2.9241,2.916,2.9362,2.9832,3.0263,3.0903,3.2065,3.2153,3.2704,3.3263,3.2953,3.285,3.254,3.1987,3.1517,3.1063,3.0479,2.9986,2.9966,3.0673,3.1315,3.1893,3.2278,3.218,3.1877,3.186,3.1424,3.0959,3.0584,3.0076,2.9353,2.8842,2.8411,2.8411,2.8411,2.8381,2.8273,2.8027,2.7731,2.7558,2.7057,2.63,2.5597,2.5105,2.4934,2.4381,2.4125,2.4056,2.3993,2.3961,2.3999,2.4173,2.4048,2.4019,2.4094,2.4346,2.4289,2.4218,2.4006,2.3774,2.3684,2.367,2.3606,2.3606,2.3595,2.3595,2.3584,2.3584,2.3595,2.3595,2.3591,2.358,2.3631,2.3689,2.3752,2.37,2.3638,2.3627,2.3606,2.3595,2.3595,2.3584,2.3599,2.3614,2.3599,2.3584,2.3719,2.3924,2.4332,2.4799,2.5393,2.5869,2.6345,2.6761,2.6881,2.7033,2.733,2.7512,2.7437,2.7303,2.7113,2.7128,2.7258,2.729,2.731,2.7216,2.7632,2.7688,2.7674,2.782,2.8468,2.9194,2.9815,2.9621,2.9504,2.9509,2.9271,2.9396,2.9674,3.0245,3.1012,3.172,3.1853,3.2506,3.2999,3.2688,3.2703,3.2534,3.2074,3.1495,3.0929,3.0509,3.0314,2.9933,3.1302,3.2503,3.338,3.3621,3.3609,3.3412,3.2987,3.2202,3.1529,3.081,3.0252,2.9583,2.8969,2.8698,2.8624,2.8549,2.8537,2.8491,2.8401,2.8425,2.8243,2.784,2.7357,2.6711,2.5933,2.5165,2.4569,2.4368,2.4362,2.4334,2.4318,2.4606,2.4908,2.5039,2.4927,2.4927,2.5142,2.51,2.4875,2.4631,2.4181,2.386,2.3762,2.3638,2.3627,2.3616,2.3606,2.3595,2.3595,2.3606,2.3616,2.3597,2.3608,2.3685,2.3758,2.3848,2.3812,2.376,2.3717,2.3685,2.361,2.361,2.3584,2.3599,2.3644,2.3674,2.3853,2.4182,2.4511,2.487,2.5334,2.5974,2.6512,2.6854,2.718,2.742,2.7585,2.7585,2.7585,2.757,2.742,2.7195,2.7151,2.721,2.6914,2.6871,2.694,2.6998,2.6992,2.7251,2.7775,2.8476,2.9205,2.9848,2.9787,2.9765,2.9781,2.9704,2.9601,2.9813,3.0035,3.0579,3.0962,3.1313,3.1759,3.2079,3.2293,3.2224,3.2111,3.1918,3.1458,3.1219,3.1005,3.0887,3.1054,3.2232,3.3954,3.52,3.497,3.4966,3.471,3.4383,3.3256,3.22,3.1357,3.0654,3.0056,2.9543,2.9232,2.8978,2.8908,2.8908,2.8897,2.8897,2.9001,2.9178,2.8831,2.827,2.7049,2.6807,2.6395,2.5184,2.5019,2.5013,2.4938,2.4921,2.5175,2.5794,2.6161,2.6089,2.5917,2.5818,2.5901,2.5666,2.5176,2.466,2.4187,2.3962,2.3818,2.3739,2.3732,2.3724,2.3709,2.373,2.3726,2.3702,2.3698,2.3743,2.3805,2.3902,2.3981,2.3929,2.3897,2.387,2.3805,2.373,2.3759,2.3774,2.3679,2.3732,2.4186,2.4421,2.4795,2.5154,2.5498,2.5869,2.6393,2.6899,2.7273,2.748,2.757,2.7585,2.7585,2.7585,2.7585,2.739,2.718,2.7151,2.7076,2.6836,2.6734,2.6366,2.6277,2.627,2.6659,2.7326,2.778,2.8379,2.893,2.9027,2.9167,2.9443,2.9432,2.9459,2.9497,2.9756,3.0161,3.0495,3.0899,3.1447,3.2122,3.1922,3.2152,3.212,3.1823,3.1519,3.138,3.134,3.1293,3.1887,3.3294,3.5012,3.594,3.5971,3.5761,3.5453,3.5033,3.4275,3.312,3.212,3.1398,3.081,3.0217,2.9696,2.9461,2.9382,2.9382,2.9382,2.9387,2.9561,2.9722,2.9337,2.8629,2.7393,2.6976,2.6668,2.5569,2.5384,2.5501,2.5606,2.5687,2.606,2.6554,2.7049,2.7102,2.7077,2.7037,2.6846,2.6567,2.5792,2.5093,2.4618,2.4199,2.4046,2.3882,2.3868,2.3853,2.3859,2.3876,2.3863,2.3839,2.3865,2.3926,2.3994,2.4085,2.4087,2.4029,2.411,2.4246,2.4105,2.3963,2.4049,2.4133,2.3948,2.3855,2.4436,2.5091,2.5488,2.5818,2.6063,2.6465,2.6899,2.7153,2.745,2.754,2.7585,2.7585,2.7585,2.7585,2.7555,2.7375,2.7225,2.7151,2.7076,2.6896,2.6884,2.5684,2.5655,2.5671,2.6092,2.6587,2.6749,2.7089,2.75,2.7533,2.798,2.8606,2.8703,2.8719,2.8811,2.9167,2.9416,2.9772,3.0195,3.0837,3.2219,3.1989,3.2028,3.1984,3.1851,3.1703,3.1466,3.1536,3.1964,3.2862,3.4079,3.5263,3.6152,3.609,3.5958,3.5893,3.5582,3.4992,3.437,3.3166,3.2225,3.1607,3.0827,2.9968,2.9881,2.9848,2.9859,2.9875,2.9875,2.9897,2.975,2.9465,2.896,2.7942,2.6634,2.6196,2.6072,2.5872,2.5999,2.6265,2.6434,2.6834,2.7215,2.7503,2.7714,2.7808,2.7773,2.7539,2.7255,2.6549,2.5894,2.5376,2.5011,2.4778,2.4691,2.4656,2.4718,2.4805,2.4563,2.4118,2.4115,2.4166,2.4196,2.407,2.4124,2.4177,2.4109,2.4159,2.4394,2.4578,2.4383,2.4535,2.4657,2.4413,2.4464,2.5246,2.5848,2.6213,2.6513,2.6686,2.6911,2.7255,2.7435,2.757,2.7585,2.7585,2.7585,2.7585,2.7585,2.7585,2.751,2.736,2.7183,2.7063,2.7001,2.7076,2.5677,2.5662,2.6205,2.6264,2.5953,2.6474,2.6442,2.6099,2.6108,2.6837,2.7802,2.7953,2.7953,2.8045,2.8286,2.8443,2.8528,2.9519,2.9798,3.0501,3.0952,3.1591,3.1712,3.1854,3.1866,3.1983,3.2214,3.2684,3.3463,3.454,3.5466,3.611,3.6043,3.5908,3.595,3.5687,3.5433,3.4966,3.4009,3.2696,3.1761,3.1385,3.0835,3.0518,3.0341,3.0341,3.0341,3.0341,3.0566,3.0679,3.0366,2.9724,2.8869,2.7112,2.6648,2.6895,2.6635,2.6708,2.7067,2.733,2.7601,2.794,2.8179,2.8239,2.8286,2.8232,2.8076,2.7773,2.7367,2.6748,2.6161,2.5803,2.5539,2.5494,2.5439,2.5564,2.5705,2.5155,2.4535,2.4476,2.4522,2.4354,2.4201,2.4228,2.4234,2.4255,2.4255,2.4475,2.5013,2.5129,2.5443,2.5481,2.5032,2.5182,2.5986,2.645,2.6741,2.7023,2.7195,2.7405,2.7597,2.7585,2.7585,2.7585,2.7585,2.7585,2.7585,2.7585,2.757,2.754,2.7525,2.7375,2.7375,2.7345,2.7375,2.5726,2.5689,2.6046,2.5979,2.5726,2.6044,2.5979,2.5655,2.5597,2.6044,2.6782,2.7089,2.7267,2.7415,2.7664,2.7587,2.7754,2.8923,2.9642,2.9984,3.0219,3.0971,3.1391,3.1692,3.1724,3.1885,3.2532,3.3143,3.3697,3.4293,3.4956,3.5352,3.5335,3.5353,3.5359,3.5284,3.5153,3.4677,3.3965,3.2965,3.1759,3.1433,3.1254,3.0932,3.0831,3.0811,3.0828,3.0801,3.0938,3.1005,3.0679,3.0155,2.9321,2.8224,2.7958,2.8048,2.7902,2.7543,2.8069,2.8317,2.8396,2.8724,2.8748,2.8748,2.8673,2.8593,2.8323,2.8062,2.8029,2.7485,2.6738,2.6283,2.6094,2.5991,2.5913,2.5944,2.6096,2.5967,2.5458,2.5161,2.4915,2.4348,2.4339,2.4705,2.4763,2.4947,2.4866,2.5384,2.5795,2.5892,2.6218,2.6369,2.5952,2.6054,2.6787,2.7063,2.7153,2.7408,2.761,2.76,2.7612,2.7585,2.7585,2.7585,2.7585,2.7585,2.7585,2.7585,2.7585,2.757,2.757,2.7555,2.7585,2.7585,2.7555,2.5816,2.5689,2.5644,2.5613,2.5606,2.5625,2.5625,2.5609,2.5609,2.5654,2.5882,2.6415,2.6591,2.6922,2.741,2.7283,2.7592,2.8519,2.9336,2.9722,3.0132,3.0725,3.1077,3.1264,3.1515,3.1946,3.2549,3.2791,3.3066,3.3793,3.4241,3.4103,3.4086,3.4121,3.4086,3.4042,3.4059,3.3616,3.3045,3.2517,3.1956,3.1557,3.1416,3.1329,3.1271,3.1239,3.123,3.122,3.122,3.1018,3.0781,3.0351,2.9783,2.9011,2.9124,2.9036,2.8561,2.8696,2.9228,2.9209,2.9397,2.9517,2.9314,2.917,2.9055,2.8783,2.8515,2.8415,2.8381,2.8097,2.7346,2.6961,2.6776,2.6676,2.6596,2.6524,2.6692,2.6742,2.6304,2.5867,2.5264,2.4612,2.4888,2.5246,2.5342,2.5542,2.5969,2.6615,2.7019,2.6869,2.6937,2.711,2.6992,2.7251,2.7598,2.7558,2.7525,2.7583,2.7713,2.765,2.7612,2.76,2.7585,2.7585,2.7585,2.76,2.7585,2.7585,2.7585,2.7585,2.7585,2.7585,2.7585,2.7585,2.7585,2.5779,2.5609,2.5606,2.559,2.5584,2.5635,2.5673,2.5682,2.5633,2.5828,2.5957,2.6012,2.6133,2.6151,2.6506,2.6647,2.7001,2.7981,2.8249,2.8465,2.9683,3.0461,3.1015,3.1334,3.1637,3.2007,3.2421,3.2783,3.2748,3.349,3.4034,3.3931,3.3965,3.3992,3.4027,3.3886,3.3591,3.308,3.276,3.2423,3.1951,3.1644,3.153,3.1473,3.146,3.144,3.1404,3.1339,3.1293,3.112,3.0835,3.0549,3.0164,2.9653,2.9602,2.969,2.92,2.9345,2.9675,2.975,2.9892,2.9935,2.9728,2.9539,2.9284,2.8866,2.865,2.8561,2.8509,2.8429,2.7934,2.791,2.7796,2.7796,2.7748,2.7748,2.7825,2.7402,2.6899,2.6389,2.5817,2.5739,2.6039,2.6132,2.5876,2.6097,2.6364,2.698,2.7442,2.753,2.7617,2.7694,2.7783,2.7859,2.7925,2.7863,2.782,2.7853,2.7815,2.7728,2.765,2.76,2.7585,2.7638,2.7612,2.7612,2.76,2.7625,2.7585,2.7585,2.7585,2.7585,2.7585,2.7675,2.775]}]]